[[{"header":{"parameterUnit":"m.s-1","parameterCategory":1,"la1":31.0,"la2":29.5877,"lo1":-88.7671,"lo2":-86.6584,"dy":0.0162,"dx":0.0185,"nx":115,"ny":88,"refTime":"2023-03-22T12:00:00:Z","depth":0,"parameterNumber":2,"parameterNumberName":"U-component_of_WINDS"},"data":[0.0,0.0,0.0,0.0,0.0,0.0,0.0,0.0,0.0,0.0,0.0,0.0,0.0,0.0,0.0,0.0,0.0,0.0,0.0,0.0,0.0,0.0,0.0,0.0,0.0,0.0,0.0,0.0,0.0,0.0,0.0,0.0,0.0,0.0,0.0,0.0,0.0,0.0,0.0,0.0,0.0,0.0,0.0,0.0,0.0,0.0,0.0,0.0,0.0,0.0,0.0,0.0,0.0,0.0,0.0,0.0,0.0,0.0,0.0,0.0,0.0,0.0,0.0,0.0,0.0,0.0,0.0,0.0,0.0,0.0,0.0,0.0,0.0,0.0,0.0,0.0,0.0,0.0,0.0,0.0,0.0,0.0,0.0,0.0,0.0,0.0,0.0,0.0,0.0,0.0,0.0,0.0,0.0,0.0,0.0,0.0,0.0,0.0,0.0,0.0,0.0,0.0,0.0,0.0,0.0,0.0,0.0,0.0,0.0,0.0,0.0,0.0,0.0,0.0,0.0,0.0,0.0,0.0,0.0,0.0,0.0,0.0,0.0,0.0,0.0,0.0,0.0,0.0,0.0,0.0,0.0,0.0,0.0,0.0,0.0,0.0,0.0,0.0,0.0,0.0,0.0,0.0,0.0,0.0,0.0,0.0,0.0,0.0,0.0,0.0,0.0,0.0,0.0,0.0,0.0,0.0,0.0,0.0,0.0,0.0,0.0,0.0,0.0,0.0,0.0,0.0,0.0,0.0,0.0,0.0,0.0,0.0,0.0,0.0,0.0,0.0,0.0,0.0,0.0,0.0,0.0,0.0,0.0,0.0,0.0,0.0,0.0,0.0,0.0,0.0,0.0,0.0,0.0,0.0,0.0,0.0,0.0,0.0,0.0,0.0,0.0,0.0,0.0,0.0,0.0,0.0,0.0,0.0,0.0,0.0,0.0,0.0,0.0,0.0,0.0,0.0,0.0,0.0,0.0,0.0,0.0,0.0,0.0,0.0,0.0,0.0,0.0,0.0,0.0,0.0,0.0,0.0,0.0,0.0,0.0,0.0,0.0,0.0,0.0,0.0,0.0,0.0,0.0,0.0,0.0,0.0,0.0,0.0,0.0,0.0,0.0,0.0,0.0,0.0,0.0,0.0,0.0,0.0,0.0,0.0,0.0,0.0,0.0,0.0,0.0,0.0,0.0,0.0,0.0,0.0,0.0,0.0,0.0,0.0,0.0,0.0,0.0,0.0,0.0,0.0,0.0,0.0,0.0,0.0,0.0,0.0,0.0,0.0,0.0,0.0,0.0,0.0,0.0,0.0,0.0,0.0,0.0,0.0,0.0,0.0,0.0,0.0,0.0,0.0,0.0,0.0,0.0,0.0,0.0,0.0,0.0,0.0,0.0,0.0,0.0,0.0,0.0,0.0,0.0,0.0,0.0,0.0,0.0,0.0,0.0,0.0,0.0,0.0,0.0,0.0,0.0,0.0,0.0,0.0,0.0,0.0,0.0,0.0,0.0,0.0,0.0,0.0,0.0,0.0,0.0,0.0,0.0,0.0,0.0,0.0,0.0,0.0,0.0,0.0,0.0,0.0,0.0,0.0,0.0,0.0,0.0,0.0,0.0,0.0,0.0,0.0,0.0,0.0,0.0,0.0,0.0,0.0,0.0,0.0,0.0,0.0,0.0,0.0,0.0,0.0,0.0,0.0,0.0,0.0,0.0,0.0,0.0,0.0,0.0,0.0,0.0,0.0,0.0,0.0,0.0,0.0,0.0,0.0,0.0,0.0,0.0,0.0,0.0,0.0,0.0,0.0,0.0,0.0,0.0,0.0,0.0,0.0,0.0,0.0,0.0,0.0,0.0,0.0,0.0,0.0,0.0,0.0,0.0,0.0,0.0,0.0,0.0,0.0,0.0,0.0,0.0,0.0,0.0,0.0,0.0,0.0,0.0,0.0,0.0,0.0,0.0,0.0,0.0,0.0,0.0,0.0,0.0,0.0,0.0,0.0,0.0,0.0,0.0,0.0,0.0,0.0,0.0,0.0,0.0,0.0,0.0,0.0,0.0,0.0,0.0,0.0,0.0,0.0,0.0,0.0,0.0,0.0,0.0,0.0,0.0,0.0,0.0,0.0,0.0,0.0,0.0,0.0,0.0,0.0,0.0,0.0,0.0,0.0,0.0,0.0,0.0,0.0,0.0,0.0,0.0,0.0,0.0,0.0,0.0,0.0,0.0,0.0,0.0,0.0,0.0,0.0,0.0,0.0,0.0,0.0,0.0,0.0,0.0,0.0,0.0,0.0,0.0,0.0,0.0,0.0,0.0,0.0,0.0,0.0,0.0,0.0,0.0,0.0,0.0,0.0,0.0,0.0,0.0,0.0,0.0,0.0,0.0,0.0,0.0,0.0,0.0,0.0,0.0,0.0,0.0,0.0,0.0,0.0,0.0,0.0,0.0,0.0,0.0,0.0,0.0,0.0,0.0,0.0,0.0,0.0,0.0,0.0,0.0,0.0,0.0,0.0,0.0,0.0,0.0,0.0,0.0,0.0,0.0,0.0,0.0,0.0,0.0,0.0,0.0,0.0,0.0,0.0,0.0,0.0,0.0,0.0,0.0,0.0,0.0,0.0,0.0,0.0,0.0,0.0,0.0,0.0,0.0,0.0,0.0,0.0,0.0,0.0,0.0,0.0,0.0,0.0,0.0,0.0,0.0,0.0,0.0,0.0,0.0,0.0,0.0,0.0,0.0,0.0,0.0,0.0,0.0,0.0,0.0,0.0,0.0,0.0,0.0,0.0,0.0,0.0,0.0,0.0,0.0,0.0,0.0,0.0,0.0,0.0,0.0,0.0,0.0,0.0,0.0,0.0,0.0,0.0,0.0,0.0,0.0,0.0,0.0,0.0,0.0,0.0,0.0,0.0,0.0,0.0,0.0,0.0,0.0,0.0,0.0,0.0,0.0,0.0,0.0,0.0,0.0,0.0,0.0,0.0,0.0,0.0,0.0,0.0,0.0,0.0,0.0,0.0,0.0,0.0,0.0,0.0,0.0,0.0,0.0,0.0,0.0,0.0,0.0,0.0,0.0,0.0,0.0,0.0,0.0,0.0,0.0,0.0,0.0,0.0,0.0,0.0,0.0,0.0,0.0,0.0,0.0,0.0,0.0,0.0,0.0,0.0,0.0,0.0,0.0,0.0,0.0,0.0,0.0,0.0,0.0,0.0,0.0,0.0,0.0,0.0,0.0,0.0,0.0,0.0,0.0,0.0,0.0,0.0,0.0,0.0,0.0,0.0,0.0,0.0,0.0,0.0,0.0,0.0,0.0,0.0,0.0,0.0,0.0,0.0,0.0,0.0,0.0,0.0,0.0,0.0,0.0,0.0,0.0,0.0,0.0,0.0,0.0,0.0,0.0,0.0,0.0,0.0,0.0,0.0,0.0,0.0,0.0,0.0,0.0,0.0,0.0,0.0,0.0,0.0,0.0,0.0,0.0,0.0,0.0,0.0,0.0,0.0,0.0,0.0,0.0,0.0,0.0,0.0,0.0,0.0,0.0,0.0,0.0,0.0,0.0,0.0,0.0,0.0,0.0,0.0,0.0,0.0,0.0,0.0,0.0,0.0,0.0,0.0,0.0,0.0,0.0,0.0,0.0,0.0,0.0,0.0,0.0,0.0,0.0,0.0,0.0,0.0,0.0,0.0,0.0,0.0,0.0,0.0,0.0,0.0,0.0,0.0,0.0,0.0,0.0,0.0,0.0,0.0,0.0,0.0,0.0,0.0,0.0,0.0,0.0,0.0,0.0,0.0,0.0,0.0,0.0,0.0,0.0,0.0,0.0,0.0,0.0,0.0,0.0,0.0,0.0,0.0,0.0,0.0,0.0,0.0,0.0,0.0,0.0,0.0,0.0,0.0,0.0,0.0,0.0,0.0,0.0,0.0,0.0,0.0,0.0,0.0,0.0,0.0,0.0,0.0,0.0,0.0,0.0,0.0,0.0,0.0,0.0,0.0,0.0,0.0,0.0,0.0,0.0,0.0,0.0,0.0,0.0,0.0,0.0,0.0,0.0,0.0,0.0,0.0,0.0,0.0,0.0,0.0,0.0,0.0,0.0,0.0,0.0,0.0,0.0,0.0,0.0,0.0,0.0,0.0,0.0,0.0,0.0,0.0,0.0,0.0,0.0,0.0,0.0,0.0,0.0,0.0,0.0,0.0,0.0,0.0,0.0,0.0,0.0,0.0,0.0,0.0,0.0,0.0,0.0,0.0,0.0,0.0,0.0,0.0,0.0,0.0,-6.6894,0.0,0.0,0.0,0.0,0.0,0.0,0.0,0.0,0.0,0.0,0.0,0.0,0.0,0.0,0.0,0.0,0.0,0.0,0.0,0.0,0.0,0.0,0.0,0.0,0.0,0.0,0.0,0.0,0.0,0.0,0.0,0.0,0.0,0.0,0.0,0.0,0.0,0.0,0.0,0.0,0.0,0.0,0.0,0.0,0.0,0.0,0.0,0.0,0.0,0.0,0.0,0.0,0.0,0.0,0.0,0.0,0.0,0.0,0.0,0.0,0.0,0.0,0.0,0.0,0.0,0.0,0.0,0.0,0.0,0.0,0.0,0.0,0.0,0.0,0.0,0.0,0.0,0.0,0.0,0.0,0.0,0.0,0.0,0.0,0.0,0.0,0.0,0.0,0.0,0.0,0.0,0.0,0.0,0.0,0.0,0.0,0.0,0.0,0.0,0.0,0.0,0.0,0.0,0.0,0.0,0.0,0.0,0.0,0.0,0.0,-6.6894,-6.6894,-6.6894,-6.6894,-6.6894,0.0,0.0,0.0,0.0,0.0,0.0,0.0,0.0,0.0,0.0,0.0,0.0,0.0,0.0,0.0,0.0,0.0,0.0,0.0,0.0,0.0,0.0,0.0,0.0,0.0,0.0,0.0,0.0,0.0,0.0,0.0,0.0,0.0,0.0,0.0,0.0,0.0,0.0,0.0,0.0,0.0,0.0,0.0,0.0,0.0,0.0,0.0,0.0,0.0,0.0,0.0,0.0,0.0,0.0,0.0,0.0,0.0,0.0,0.0,0.0,0.0,0.0,0.0,0.0,0.0,0.0,0.0,0.0,0.0,0.0,0.0,0.0,0.0,0.0,0.0,0.0,0.0,0.0,0.0,0.0,0.0,0.0,0.0,0.0,0.0,0.0,0.0,0.0,0.0,0.0,0.0,0.0,0.0,0.0,0.0,0.0,0.0,0.0,0.0,0.0,0.0,0.0,0.0,0.0,0.0,0.0,0.0,0.0,0.0,0.0,0.0,0.0,-6.6894,-6.6894,-6.6894,0.0,0.0,0.0,0.0,0.0,0.0,0.0,0.0,0.0,0.0,0.0,0.0,0.0,0.0,0.0,0.0,0.0,0.0,0.0,0.0,0.0,0.0,0.0,0.0,0.0,0.0,0.0,0.0,0.0,0.0,0.0,0.0,0.0,0.0,0.0,0.0,0.0,0.0,0.0,0.0,0.0,0.0,0.0,0.0,0.0,0.0,0.0,0.0,0.0,0.0,0.0,0.0,0.0,0.0,0.0,0.0,0.0,0.0,0.0,0.0,0.0,0.0,0.0,0.0,0.0,0.0,0.0,0.0,0.0,0.0,0.0,0.0,0.0,0.0,0.0,0.0,0.0,0.0,0.0,0.0,0.0,0.0,0.0,0.0,0.0,0.0,0.0,0.0,0.0,0.0,0.0,0.0,0.0,0.0,0.0,0.0,0.0,0.0,0.0,0.0,0.0,0.0,0.0,0.0,0.0,0.0,0.0,0.0,0.0,0.0,-6.6894,-6.6894,-6.6894,0.0,-6.6894,0.0,0.0,0.0,0.0,0.0,0.0,0.0,0.0,0.0,0.0,0.0,0.0,0.0,0.0,0.0,0.0,0.0,0.0,0.0,0.0,0.0,0.0,0.0,0.0,0.0,0.0,0.0,0.0,0.0,0.0,0.0,0.0,0.0,0.0,0.0,0.0,0.0,0.0,0.0,0.0,0.0,0.0,0.0,0.0,0.0,0.0,0.0,0.0,0.0,0.0,0.0,0.0,0.0,0.0,0.0,0.0,0.0,0.0,0.0,0.0,0.0,0.0,0.0,0.0,0.0,0.0,0.0,0.0,0.0,0.0,0.0,0.0,0.0,0.0,0.0,0.0,0.0,0.0,0.0,0.0,0.0,0.0,0.0,0.0,0.0,0.0,0.0,0.0,0.0,0.0,0.0,0.0,0.0,0.0,0.0,0.0,0.0,0.0,0.0,0.0,0.0,0.0,0.0,0.0,0.0,0.0,0.0,0.0,0.0,0.0,-6.6894,-6.6894,-6.6894,-6.6894,0.0,0.0,0.0,0.0,0.0,0.0,0.0,0.0,0.0,0.0,0.0,0.0,0.0,0.0,0.0,0.0,0.0,0.0,0.0,0.0,0.0,0.0,0.0,0.0,0.0,0.0,0.0,0.0,0.0,0.0,0.0,0.0,0.0,0.0,0.0,0.0,0.0,0.0,0.0,0.0,0.0,0.0,0.0,0.0,0.0,0.0,0.0,0.0,0.0,0.0,0.0,0.0,0.0,0.0,0.0,0.0,0.0,0.0,0.0,0.0,0.0,0.0,0.0,0.0,0.0,0.0,0.0,0.0,0.0,0.0,0.0,0.0,0.0,0.0,0.0,0.0,0.0,0.0,0.0,0.0,0.0,0.0,0.0,0.0,0.0,0.0,0.0,0.0,0.0,0.0,0.0,0.0,0.0,0.0,0.0,0.0,0.0,0.0,0.0,0.0,0.0,0.0,0.0,0.0,0.0,0.0,0.0,0.0,0.0,0.0,-6.6894,-6.6894,-6.6894,-6.6894,-6.6894,-6.6894,0.0,0.0,0.0,0.0,0.0,0.0,0.0,0.0,0.0,0.0,0.0,0.0,0.0,0.0,0.0,0.0,0.0,0.0,0.0,0.0,0.0,0.0,0.0,0.0,0.0,0.0,0.0,0.0,0.0,0.0,0.0,0.0,0.0,0.0,0.0,0.0,0.0,0.0,0.0,0.0,0.0,0.0,0.0,0.0,0.0,0.0,0.0,0.0,0.0,0.0,0.0,0.0,0.0,0.0,0.0,0.0,0.0,0.0,0.0,0.0,0.0,0.0,0.0,0.0,0.0,0.0,0.0,0.0,0.0,0.0,0.0,0.0,0.0,0.0,0.0,0.0,0.0,0.0,0.0,0.0,0.0,0.0,0.0,0.0,0.0,0.0,0.0,0.0,0.0,0.0,0.0,0.0,0.0,0.0,0.0,0.0,0.0,0.0,0.0,0.0,0.0,0.0,0.0,0.0,0.0,0.0,0.0,0.0,-6.6894,-6.6894,-6.6894,-6.6894,-6.6894,-6.6894,0.0,0.0,0.0,0.0,0.0,0.0,0.0,0.0,0.0,0.0,0.0,0.0,0.0,0.0,0.0,0.0,0.0,0.0,0.0,0.0,0.0,0.0,0.0,0.0,0.0,0.0,0.0,0.0,0.0,0.0,0.0,0.0,0.0,0.0,0.0,0.0,0.0,0.0,0.0,0.0,0.0,0.0,0.0,0.0,0.0,0.0,0.0,0.0,0.0,0.0,0.0,0.0,0.0,0.0,0.0,0.0,0.0,0.0,0.0,0.0,0.0,0.0,0.0,0.0,0.0,0.0,0.0,0.0,0.0,0.0,0.0,0.0,0.0,0.0,0.0,0.0,0.0,0.0,0.0,0.0,0.0,0.0,0.0,0.0,0.0,0.0,0.0,0.0,0.0,0.0,0.0,0.0,0.0,0.0,0.0,0.0,0.0,0.0,0.0,0.0,0.0,0.0,0.0,0.0,0.0,0.0,0.0,0.0,0.0,-6.6894,-6.6894,-6.6894,-6.6894,-6.6894,-6.6894,0.0,0.0,0.0,0.0,0.0,0.0,0.0,0.0,0.0,0.0,0.0,0.0,0.0,0.0,0.0,0.0,0.0,0.0,0.0,0.0,0.0,0.0,0.0,0.0,0.0,0.0,0.0,0.0,0.0,0.0,0.0,0.0,0.0,0.0,0.0,0.0,0.0,0.0,0.0,0.0,0.0,0.0,0.0,0.0,0.0,0.0,0.0,0.0,0.0,0.0,0.0,0.0,0.0,0.0,0.0,0.0,0.0,0.0,0.0,0.0,0.0,0.0,0.0,0.0,0.0,0.0,0.0,0.0,0.0,0.0,0.0,0.0,0.0,0.0,0.0,0.0,0.0,0.0,0.0,0.0,0.0,0.0,0.0,0.0,0.0,0.0,0.0,0.0,0.0,0.0,0.0,0.0,0.0,0.0,0.0,0.0,0.0,0.0,0.0,0.0,0.0,0.0,0.0,0.0,0.0,0.0,0.0,0.0,0.0,-6.6894,0.0,-6.6894,-6.6894,-6.6894,-6.6894,0.0,0.0,0.0,0.0,0.0,0.0,0.0,0.0,0.0,0.0,0.0,0.0,0.0,0.0,0.0,0.0,0.0,0.0,0.0,0.0,0.0,0.0,0.0,0.0,0.0,0.0,0.0,0.0,0.0,0.0,0.0,0.0,0.0,0.0,0.0,0.0,0.0,0.0,0.0,0.0,0.0,0.0,0.0,0.0,0.0,0.0,0.0,0.0,0.0,0.0,0.0,0.0,0.0,0.0,0.0,0.0,0.0,0.0,0.0,0.0,0.0,0.0,0.0,0.0,0.0,0.0,0.0,0.0,0.0,0.0,0.0,0.0,0.0,0.0,0.0,0.0,0.0,0.0,0.0,0.0,0.0,0.0,0.0,0.0,0.0,0.0,0.0,0.0,0.0,0.0,0.0,0.0,0.0,0.0,0.0,0.0,0.0,0.0,0.0,0.0,0.0,0.0,0.0,0.0,0.0,0.0,0.0,0.0,-6.6687,-6.6894,-6.6894,-6.6875,-6.6894,-6.6894,-6.6894,0.0,0.0,0.0,0.0,0.0,0.0,0.0,0.0,0.0,0.0,0.0,0.0,0.0,0.0,0.0,0.0,0.0,0.0,0.0,0.0,0.0,0.0,0.0,0.0,0.0,0.0,0.0,0.0,0.0,0.0,0.0,0.0,0.0,0.0,0.0,0.0,0.0,0.0,0.0,0.0,0.0,0.0,0.0,0.0,0.0,0.0,0.0,0.0,0.0,0.0,0.0,0.0,0.0,0.0,0.0,0.0,0.0,0.0,0.0,0.0,0.0,0.0,0.0,0.0,0.0,0.0,0.0,0.0,0.0,0.0,0.0,0.0,0.0,0.0,0.0,0.0,0.0,0.0,0.0,0.0,0.0,0.0,0.0,0.0,0.0,0.0,0.0,0.0,0.0,0.0,0.0,0.0,0.0,0.0,0.0,0.0,0.0,0.0,0.0,0.0,0.0,0.0,0.0,0.0,0.0,0.0,0.0,0.0,0.0,-6.6668,-6.6687,-6.6743,-6.6894,-6.6894,-6.6894,0.0,0.0,0.0,0.0,0.0,0.0,0.0,0.0,0.0,0.0,0.0,0.0,0.0,0.0,0.0,0.0,0.0,0.0,0.0,0.0,0.0,0.0,0.0,0.0,0.0,0.0,0.0,0.0,0.0,0.0,0.0,0.0,0.0,0.0,0.0,0.0,0.0,0.0,0.0,0.0,0.0,0.0,0.0,0.0,0.0,0.0,0.0,0.0,0.0,0.0,0.0,0.0,0.0,0.0,0.0,0.0,0.0,0.0,0.0,0.0,0.0,0.0,0.0,0.0,0.0,0.0,0.0,0.0,0.0,0.0,0.0,0.0,0.0,0.0,0.0,0.0,0.0,0.0,0.0,0.0,0.0,0.0,0.0,0.0,0.0,0.0,0.0,0.0,0.0,0.0,0.0,0.0,0.0,0.0,0.0,0.0,0.0,0.0,0.0,0.0,0.0,0.0,0.0,0.0,0.0,0.0,0.0,0.0,0.0,-6.6402,-6.6507,-6.6636,-6.6768,-6.681,-6.6853,-6.6894,0.0,0.0,0.0,0.0,0.0,0.0,0.0,0.0,0.0,0.0,0.0,0.0,0.0,0.0,0.0,0.0,0.0,0.0,0.0,0.0,0.0,0.0,0.0,0.0,0.0,0.0,0.0,0.0,0.0,0.0,0.0,0.0,0.0,0.0,0.0,0.0,0.0,0.0,0.0,0.0,0.0,0.0,0.0,0.0,0.0,0.0,0.0,0.0,0.0,0.0,0.0,0.0,0.0,0.0,0.0,0.0,0.0,0.0,0.0,0.0,0.0,0.0,0.0,0.0,0.0,0.0,0.0,0.0,0.0,0.0,0.0,0.0,0.0,0.0,0.0,0.0,0.0,0.0,0.0,0.0,0.0,0.0,0.0,0.0,0.0,0.0,0.0,0.0,0.0,0.0,0.0,0.0,0.0,0.0,0.0,0.0,0.0,0.0,0.0,0.0,0.0,0.0,0.0,0.0,0.0,0.0,0.0,0.0,-6.609,-6.6344,-6.6512,-6.6597,-6.6673,-6.6777,0.0,0.0,0.0,0.0,0.0,0.0,0.0,0.0,0.0,0.0,0.0,0.0,0.0,0.0,0.0,0.0,0.0,0.0,0.0,0.0,0.0,0.0,0.0,0.0,0.0,0.0,0.0,0.0,0.0,0.0,0.0,0.0,0.0,0.0,0.0,0.0,0.0,0.0,0.0,0.0,0.0,0.0,0.0,0.0,0.0,0.0,0.0,0.0,0.0,0.0,0.0,0.0,0.0,0.0,0.0,0.0,0.0,0.0,0.0,0.0,0.0,0.0,0.0,0.0,0.0,0.0,0.0,0.0,0.0,0.0,0.0,0.0,0.0,0.0,0.0,0.0,0.0,0.0,0.0,0.0,0.0,0.0,0.0,0.0,0.0,0.0,0.0,0.0,0.0,0.0,0.0,0.0,0.0,0.0,0.0,0.0,0.0,0.0,0.0,0.0,0.0,0.0,0.0,0.0,0.0,0.0,0.0,0.0,0.0,-6.5955,-6.6072,-6.6287,-6.6567,-6.6619,-6.6711,0.0,0.0,0.0,0.0,0.0,0.0,0.0,0.0,0.0,0.0,0.0,0.0,0.0,0.0,0.0,0.0,0.0,0.0,0.0,0.0,0.0,0.0,0.0,0.0,0.0,0.0,0.0,0.0,0.0,0.0,0.0,0.0,0.0,0.0,0.0,0.0,0.0,0.0,0.0,0.0,0.0,0.0,0.0,0.0,0.0,0.0,0.0,0.0,0.0,0.0,0.0,0.0,0.0,0.0,0.0,0.0,0.0,0.0,0.0,0.0,0.0,0.0,0.0,0.0,0.0,0.0,0.0,0.0,0.0,0.0,0.0,0.0,0.0,0.0,0.0,0.0,0.0,0.0,0.0,0.0,0.0,0.0,0.0,0.0,0.0,0.0,0.0,0.0,0.0,0.0,0.0,0.0,0.0,0.0,0.0,0.0,0.0,0.0,0.0,0.0,0.0,0.0,0.0,0.0,0.0,0.0,0.0,0.0,-6.5532,-6.5878,-6.5935,-6.6098,-6.6398,-6.6452,-6.6557,0.0,0.0,0.0,0.0,0.0,0.0,0.0,0.0,0.0,0.0,0.0,0.0,0.0,0.0,0.0,0.0,0.0,0.0,0.0,0.0,0.0,0.0,0.0,0.0,0.0,0.0,0.0,0.0,0.0,0.0,0.0,0.0,0.0,0.0,0.0,0.0,0.0,0.0,0.0,0.0,0.0,0.0,0.0,0.0,0.0,0.0,0.0,0.0,0.0,0.0,0.0,0.0,0.0,0.0,0.0,0.0,0.0,0.0,0.0,0.0,0.0,0.0,0.0,0.0,0.0,0.0,0.0,0.0,0.0,0.0,0.0,0.0,0.0,0.0,0.0,0.0,0.0,0.0,0.0,0.0,0.0,0.0,0.0,0.0,0.0,0.0,0.0,0.0,0.0,0.0,0.0,0.0,0.0,0.0,0.0,0.0,0.0,0.0,0.0,0.0,0.0,0.0,0.0,0.0,0.0,0.0,0.0,0.0,-6.4974,-6.5743,-6.5667,-6.5678,-6.5809,-6.6124,-6.6393,0.0,0.0,0.0,0.0,0.0,0.0,0.0,0.0,0.0,0.0,0.0,0.0,0.0,0.0,0.0,0.0,0.0,0.0,0.0,0.0,0.0,0.0,0.0,0.0,0.0,0.0,0.0,0.0,0.0,0.0,0.0,0.0,0.0,0.0,0.0,0.0,0.0,0.0,0.0,0.0,0.0,0.0,0.0,0.0,0.0,0.0,0.0,0.0,0.0,0.0,0.0,0.0,0.0,0.0,0.0,0.0,0.0,0.0,0.0,0.0,0.0,0.0,0.0,0.0,0.0,0.0,0.0,0.0,0.0,0.0,0.0,0.0,0.0,0.0,0.0,0.0,0.0,0.0,0.0,0.0,0.0,0.0,0.0,0.0,0.0,0.0,0.0,0.0,0.0,0.0,0.0,0.0,0.0,0.0,0.0,0.0,0.0,0.0,0.0,0.0,0.0,0.0,0.0,0.0,0.0,0.0,0.0,0.0,-6.4705,-6.4859,-6.4205,-6.3864,-6.3897,-6.5344,-6.6298,0.0,0.0,0.0,0.0,0.0,0.0,0.0,0.0,0.0,0.0,0.0,0.0,0.0,0.0,0.0,0.0,0.0,0.0,0.0,0.0,0.0,0.0,0.0,0.0,0.0,0.0,0.0,0.0,0.0,0.0,0.0,0.0,0.0,0.0,0.0,0.0,0.0,0.0,0.0,0.0,0.0,0.0,0.0,0.0,0.0,0.0,0.0,0.0,-6.171,0.0,0.0,0.0,0.0,0.0,0.0,0.0,0.0,0.0,0.0,0.0,0.0,0.0,0.0,0.0,0.0,0.0,0.0,0.0,0.0,0.0,0.0,0.0,0.0,0.0,0.0,0.0,0.0,0.0,0.0,0.0,0.0,0.0,0.0,0.0,0.0,0.0,0.0,0.0,0.0,0.0,0.0,0.0,0.0,0.0,0.0,0.0,0.0,0.0,0.0,0.0,0.0,0.0,0.0,0.0,0.0,0.0,0.0,0.0,-6.3993,-6.3993,-6.3551,-6.3288,-6.3339,-6.4274,-6.5101,0.0,0.0,0.0,0.0,0.0,0.0,0.0,0.0,0.0,0.0,0.0,0.0,0.0,0.0,0.0,0.0,0.0,0.0,0.0,0.0,0.0,0.0,0.0,0.0,0.0,0.0,0.0,0.0,0.0,0.0,0.0,0.0,0.0,0.0,0.0,0.0,0.0,0.0,0.0,0.0,0.0,0.0,0.0,0.0,0.0,0.0,0.0,0.0,0.0,0.0,0.0,0.0,0.0,0.0,0.0,0.0,0.0,0.0,0.0,0.0,0.0,0.0,0.0,0.0,0.0,0.0,0.0,0.0,0.0,0.0,0.0,0.0,0.0,0.0,0.0,0.0,0.0,0.0,0.0,0.0,0.0,0.0,0.0,0.0,0.0,0.0,0.0,0.0,0.0,0.0,0.0,0.0,0.0,0.0,0.0,0.0,0.0,0.0,0.0,0.0,0.0,0.0,0.0,0.0,0.0,0.0,0.0,-6.2762,-6.3128,-6.3108,-6.2993,-6.2916,-6.2916,-6.2916,-6.3414,-6.4443,0.0,0.0,0.0,0.0,0.0,0.0,0.0,0.0,0.0,0.0,0.0,0.0,0.0,0.0,0.0,0.0,0.0,0.0,0.0,0.0,0.0,0.0,0.0,0.0,0.0,0.0,0.0,0.0,0.0,0.0,0.0,0.0,0.0,0.0,0.0,0.0,0.0,0.0,-6.1456,-6.1292,0.0,0.0,0.0,0.0,0.0,0.0,0.0,0.0,-6.1582,0.0,0.0,0.0,0.0,0.0,0.0,0.0,0.0,0.0,0.0,0.0,0.0,0.0,0.0,0.0,0.0,0.0,0.0,0.0,0.0,0.0,0.0,0.0,0.0,0.0,0.0,0.0,0.0,0.0,0.0,0.0,0.0,0.0,0.0,0.0,0.0,0.0,0.0,0.0,0.0,0.0,0.0,0.0,0.0,0.0,0.0,0.0,0.0,0.0,0.0,0.0,0.0,0.0,0.0,0.0,0.0,-6.2101,-6.2224,-6.23,-6.2281,-6.1589,-6.1204,-6.1204,-6.1204,-6.1647,-6.2645,0.0,0.0,0.0,0.0,0.0,0.0,0.0,0.0,0.0,0.0,0.0,0.0,0.0,0.0,0.0,0.0,0.0,0.0,0.0,0.0,0.0,0.0,0.0,0.0,0.0,0.0,0.0,0.0,0.0,0.0,0.0,0.0,0.0,0.0,0.0,0.0,0.0,0.0,0.0,-6.114,-6.1162,0.0,0.0,0.0,0.0,0.0,0.0,0.0,0.0,-6.1533,0.0,0.0,0.0,0.0,0.0,0.0,0.0,0.0,0.0,0.0,0.0,0.0,0.0,0.0,0.0,0.0,0.0,0.0,0.0,0.0,0.0,0.0,0.0,0.0,0.0,0.0,0.0,0.0,0.0,0.0,0.0,0.0,0.0,0.0,0.0,0.0,0.0,0.0,0.0,0.0,0.0,0.0,0.0,0.0,0.0,0.0,0.0,0.0,0.0,0.0,0.0,0.0,0.0,0.0,0.0,-6.1416,-6.1416,-6.1435,-6.1396,-6.0993,-6.08,-6.08,-6.08,-6.1027,0.0,0.0,0.0,0.0,0.0,0.0,0.0,0.0,0.0,0.0,0.0,0.0,0.0,0.0,0.0,0.0,0.0,0.0,0.0,0.0,0.0,0.0,0.0,0.0,0.0,0.0,0.0,0.0,0.0,0.0,0.0,0.0,0.0,0.0,0.0,0.0,0.0,0.0,0.0,0.0,-6.0606,-6.0278,-6.0236,0.0,0.0,0.0,0.0,0.0,0.0,-5.9951,-6.0033,0.0,0.0,0.0,0.0,0.0,0.0,0.0,0.0,0.0,0.0,0.0,0.0,0.0,0.0,0.0,0.0,0.0,0.0,0.0,0.0,0.0,0.0,0.0,0.0,0.0,0.0,0.0,0.0,0.0,0.0,0.0,0.0,0.0,0.0,0.0,0.0,0.0,0.0,0.0,0.0,0.0,0.0,0.0,0.0,0.0,0.0,0.0,0.0,0.0,0.0,0.0,0.0,0.0,0.0,0.0,-6.08,-6.08,-6.08,-6.08,-6.08,-6.08,-6.08,-6.08,-6.0823,0.0,0.0,0.0,0.0,0.0,0.0,0.0,0.0,0.0,0.0,0.0,0.0,0.0,0.0,0.0,0.0,0.0,0.0,0.0,0.0,0.0,0.0,0.0,0.0,0.0,0.0,0.0,0.0,0.0,0.0,0.0,0.0,0.0,0.0,0.0,0.0,0.0,0.0,0.0,0.0,0.0,-5.9261,-5.9242,-5.8788,0.0,0.0,0.0,0.0,-5.847,-5.8572,0.0,0.0,0.0,0.0,0.0,0.0,0.0,0.0,0.0,0.0,0.0,0.0,0.0,0.0,0.0,0.0,0.0,0.0,0.0,0.0,0.0,0.0,0.0,0.0,0.0,0.0,0.0,0.0,0.0,0.0,0.0,0.0,0.0,0.0,0.0,0.0,0.0,0.0,0.0,0.0,0.0,0.0,0.0,0.0,0.0,0.0,0.0,0.0,0.0,0.0,0.0,0.0,0.0,0.0,0.0,0.0,-6.08,-6.08,-6.08,-6.08,-6.08,-6.08,-6.08,-6.08,-6.0793,0.0,0.0,0.0,0.0,0.0,0.0,0.0,0.0,0.0,0.0,0.0,0.0,0.0,0.0,0.0,0.0,0.0,0.0,0.0,0.0,0.0,0.0,0.0,0.0,0.0,0.0,0.0,0.0,0.0,0.0,0.0,0.0,0.0,0.0,0.0,0.0,0.0,0.0,0.0,0.0,0.0,-5.8454,-5.8434,-5.836,-5.8325,0.0,0.0,-5.8338,-5.8325,-5.8423,0.0,0.0,0.0,0.0,0.0,0.0,0.0,0.0,0.0,0.0,0.0,0.0,0.0,0.0,0.0,0.0,0.0,0.0,0.0,0.0,0.0,0.0,0.0,0.0,0.0,0.0,0.0,0.0,0.0,0.0,0.0,0.0,0.0,0.0,0.0,0.0,0.0,0.0,0.0,0.0,0.0,0.0,0.0,0.0,0.0,0.0,0.0,0.0,0.0,0.0,0.0,0.0,0.0,0.0,0.0,-6.0491,-5.9982,-6.0423,-6.0704,-6.0734,-6.0753,-6.0765,-6.08,-6.08,-6.08,0.0,0.0,0.0,0.0,0.0,0.0,0.0,0.0,0.0,0.0,0.0,0.0,0.0,0.0,0.0,0.0,0.0,0.0,0.0,0.0,0.0,0.0,0.0,0.0,0.0,0.0,0.0,0.0,0.0,0.0,0.0,0.0,0.0,0.0,0.0,0.0,0.0,0.0,0.0,0.0,0.0,0.0,-5.7627,-5.7126,0.0,0.0,0.0,-5.6819,-5.6819,0.0,0.0,0.0,0.0,0.0,0.0,0.0,0.0,0.0,0.0,0.0,0.0,0.0,0.0,0.0,0.0,0.0,0.0,0.0,0.0,0.0,0.0,0.0,0.0,0.0,0.0,0.0,0.0,0.0,0.0,0.0,0.0,0.0,0.0,0.0,0.0,0.0,0.0,0.0,0.0,0.0,0.0,0.0,0.0,0.0,0.0,0.0,0.0,0.0,0.0,0.0,0.0,0.0,0.0,0.0,0.0,0.0,-5.8885,-5.9393,-5.9704,-5.9771,-5.9856,-5.9939,-6.0001,-6.0292,0.0,0.0,0.0,0.0,0.0,0.0,0.0,0.0,0.0,0.0,0.0,0.0,0.0,0.0,0.0,0.0,0.0,0.0,0.0,0.0,0.0,0.0,0.0,0.0,0.0,0.0,0.0,-6.1084,0.0,0.0,0.0,0.0,0.0,0.0,0.0,0.0,0.0,0.0,0.0,0.0,0.0,0.0,-5.737,-5.6739,-5.6085,-5.5692,0.0,0.0,-5.5684,-5.5684,-5.5684,-5.5684,0.0,0.0,0.0,0.0,0.0,0.0,0.0,0.0,0.0,0.0,0.0,0.0,0.0,0.0,0.0,0.0,0.0,0.0,0.0,0.0,0.0,0.0,0.0,0.0,0.0,0.0,0.0,0.0,0.0,0.0,0.0,0.0,0.0,0.0,0.0,0.0,0.0,0.0,0.0,0.0,0.0,0.0,0.0,0.0,0.0,0.0,0.0,0.0,0.0,0.0,0.0,0.0,0.0,0.0,-5.7377,-5.7592,-5.7377,-5.7292,-5.727,-5.7566,-5.7744,-5.7832,-5.8904,-5.953,0.0,0.0,0.0,0.0,0.0,0.0,0.0,0.0,0.0,0.0,0.0,0.0,0.0,0.0,0.0,0.0,0.0,0.0,0.0,0.0,0.0,0.0,0.0,0.0,0.0,0.0,0.0,0.0,0.0,0.0,0.0,0.0,0.0,0.0,0.0,0.0,0.0,0.0,0.0,0.0,0.0,-5.5712,-5.5711,-5.5646,-5.5618,0.0,-5.5684,-5.5684,-5.5684,-5.5684,-5.5684,-5.5684,0.0,0.0,0.0,0.0,0.0,0.0,0.0,0.0,0.0,0.0,0.0,0.0,0.0,0.0,0.0,0.0,0.0,0.0,0.0,0.0,0.0,0.0,0.0,0.0,0.0,0.0,0.0,0.0,0.0,0.0,0.0,0.0,0.0,0.0,0.0,0.0,0.0,0.0,0.0,0.0,0.0,0.0,0.0,0.0,0.0,0.0,0.0,0.0,0.0,0.0,0.0,0.0,0.0,-5.671,-5.6301,-5.666,-5.689,-5.6941,-5.7073,-5.7279,-5.7544,-5.7979,-5.8387,0.0,0.0,0.0,0.0,0.0,0.0,0.0,0.0,0.0,0.0,0.0,0.0,0.0,0.0,0.0,0.0,0.0,0.0,0.0,0.0,0.0,0.0,0.0,0.0,0.0,0.0,0.0,0.0,-5.91,-5.8589,-5.8565,0.0,0.0,0.0,0.0,0.0,0.0,0.0,0.0,0.0,0.0,-5.611,-5.5616,-5.5539,0.0,0.0,-5.5573,-5.5585,-5.5629,-5.5629,-5.566,-5.5703,-5.5684,0.0,0.0,0.0,0.0,0.0,0.0,0.0,0.0,0.0,0.0,0.0,0.0,0.0,0.0,0.0,0.0,0.0,0.0,0.0,0.0,0.0,0.0,0.0,0.0,0.0,0.0,0.0,0.0,0.0,0.0,0.0,0.0,0.0,0.0,0.0,0.0,0.0,0.0,0.0,0.0,0.0,0.0,0.0,0.0,0.0,0.0,0.0,0.0,0.0,0.0,0.0,0.0,-5.5527,-5.4982,-5.5454,-5.5753,-5.5808,-5.5879,-5.6086,-5.6393,-5.6747,-5.7154,0.0,0.0,0.0,0.0,0.0,0.0,0.0,0.0,0.0,0.0,0.0,0.0,0.0,0.0,0.0,0.0,0.0,0.0,0.0,0.0,0.0,0.0,0.0,0.0,0.0,0.0,0.0,0.0,-5.8151,-5.7564,-5.7315,0.0,0.0,0.0,0.0,0.0,0.0,0.0,0.0,0.0,0.0,-5.6146,-5.5564,-5.5449,-5.548,-5.5504,-5.5293,-5.5163,-5.5197,-5.5209,-5.522,-5.5284,0.0,0.0,0.0,0.0,0.0,0.0,0.0,0.0,0.0,0.0,0.0,0.0,0.0,0.0,0.0,0.0,0.0,0.0,0.0,0.0,0.0,0.0,0.0,0.0,0.0,0.0,0.0,-5.8024,0.0,0.0,-5.8024,0.0,0.0,0.0,0.0,0.0,0.0,0.0,0.0,0.0,0.0,0.0,0.0,0.0,0.0,0.0,0.0,0.0,0.0,0.0,0.0,0.0,0.0,-5.3474,-5.3719,-5.3512,-5.3322,-5.3343,-5.3599,-5.3851,-5.3981,-5.5011,-5.5842,-5.6321,0.0,0.0,0.0,0.0,0.0,0.0,0.0,0.0,0.0,0.0,0.0,0.0,0.0,0.0,0.0,0.0,0.0,0.0,0.0,0.0,0.0,0.0,0.0,0.0,0.0,0.0,-5.8081,-5.7194,-5.6333,0.0,0.0,0.0,0.0,0.0,0.0,0.0,0.0,0.0,-5.5403,-5.5422,-5.5428,-5.5415,-5.5389,-5.542,-5.5492,-5.4852,-5.4346,-5.4346,-5.4346,-5.4308,0.0,0.0,0.0,0.0,0.0,0.0,0.0,0.0,0.0,0.0,0.0,0.0,0.0,0.0,0.0,0.0,0.0,0.0,0.0,0.0,0.0,0.0,0.0,0.0,0.0,0.0,0.0,-5.7721,-5.7745,0.0,0.0,0.0,0.0,0.0,0.0,0.0,0.0,0.0,0.0,0.0,-5.6131,-5.5857,0.0,0.0,0.0,0.0,0.0,0.0,0.0,0.0,0.0,0.0,0.0,0.0,-5.3269,-5.3357,-5.3251,-5.3185,-5.3185,-5.3314,-5.3484,-5.372,-5.4131,-5.4549,-5.5035,0.0,0.0,0.0,0.0,0.0,0.0,0.0,0.0,0.0,0.0,0.0,0.0,0.0,0.0,0.0,0.0,0.0,0.0,0.0,0.0,0.0,0.0,0.0,0.0,0.0,-5.7168,0.0,0.0,0.0,0.0,0.0,0.0,0.0,0.0,0.0,0.0,-5.5396,-5.539,-5.539,-5.539,-5.5384,-5.539,-5.539,-5.5403,0.0,0.0,0.0,0.0,0.0,0.0,0.0,0.0,0.0,0.0,0.0,0.0,0.0,0.0,-5.4257,-5.5362,-5.5132,-5.4767,-5.4767,0.0,0.0,0.0,0.0,0.0,0.0,0.0,0.0,0.0,0.0,0.0,0.0,0.0,0.0,-5.7583,-5.7583,-5.7583,0.0,0.0,0.0,0.0,0.0,0.0,0.0,0.0,-5.5955,-5.5658,-5.5194,-5.4921,-5.4793,-5.4738,-5.3972,-5.3953,0.0,0.0,0.0,0.0,0.0,0.0,0.0,0.0,-5.3185,-5.3185,-5.3185,-5.3185,-5.3185,-5.3185,-5.3295,-5.3524,-5.3624,-5.387,-5.4138,-5.4832,-5.546,0.0,0.0,0.0,0.0,0.0,0.0,0.0,0.0,0.0,0.0,0.0,0.0,0.0,0.0,0.0,0.0,0.0,0.0,0.0,0.0,0.0,0.0,0.0,-5.5976,0.0,0.0,0.0,0.0,0.0,0.0,0.0,0.0,0.0,-5.539,-5.539,-5.539,-5.539,-5.539,-5.539,-5.539,0.0,0.0,0.0,0.0,0.0,0.0,0.0,-5.3118,-5.2598,-5.2763,-5.2955,-5.2958,-5.2947,-5.2935,-5.2958,0.0,0.0,-5.4419,-5.42,-5.3867,-5.3847,-5.2984,-5.239,-5.2897,-5.2371,-5.1949,0.0,0.0,0.0,0.0,-5.7601,0.0,0.0,0.0,-5.7577,-5.7559,0.0,-5.7559,0.0,0.0,0.0,0.0,-5.6379,-5.6242,0.0,0.0,-5.5036,-5.5018,-5.5025,-5.4319,-5.3954,-5.39,-5.3166,-5.2802,-5.2842,-5.2934,0.0,0.0,0.0,0.0,0.0,0.0,-5.3185,-5.3185,-5.3203,-5.3185,-5.3185,-5.3185,-5.3206,-5.3206,-5.3504,-5.3682,-5.3701,-5.4071,-5.4619,-5.5402,-5.5873,0.0,0.0,0.0,0.0,0.0,0.0,0.0,0.0,0.0,0.0,0.0,0.0,0.0,0.0,0.0,0.0,0.0,0.0,0.0,0.0,-5.588,0.0,0.0,0.0,0.0,0.0,0.0,0.0,0.0,0.0,-5.539,-5.539,-5.539,-5.5384,-5.5345,0.0,0.0,0.0,0.0,-5.4065,-5.4065,-5.269,-5.1677,-5.1639,-5.162,-5.162,-5.1582,0.0,0.0,-5.2786,-5.2757,-5.2676,-5.2805,-5.2681,-5.2765,-5.2893,-5.2943,-5.2943,-5.2943,-5.2847,-5.2866,-5.2828,-5.2157,-5.1689,-5.7313,0.0,0.0,0.0,0.0,-5.7332,-5.7313,-5.7332,-5.7332,-5.7332,-5.7313,-5.7332,0.0,0.0,0.0,0.0,0.0,0.0,-5.487,-5.4132,-5.409,-5.3782,-5.3284,-5.3049,-5.294,-5.2921,-5.2704,-5.2622,-5.2654,-5.2698,-5.2783,-5.2912,0.0,0.0,0.0,0.0,-5.2955,-5.306,-5.3042,-5.3103,-5.3185,-5.3185,-5.3185,-5.3185,-5.3293,-5.3336,-5.3357,-5.344,-5.3715,-5.4205,-5.4352,0.0,0.0,0.0,0.0,0.0,0.0,0.0,0.0,0.0,0.0,0.0,0.0,0.0,0.0,0.0,0.0,0.0,0.0,0.0,-5.5823,-5.5536,-5.539,0.0,0.0,0.0,0.0,0.0,0.0,0.0,0.0,0.0,-5.539,-5.539,-5.5174,0.0,0.0,-5.4237,-5.3626,-5.332,-5.3168,-5.3168,-5.2766,0.0,-5.1684,-5.1601,-5.1391,-5.0779,-5.0875,-5.104,-5.1051,-5.104,-5.1021,-5.1032,-5.104,-5.1021,-5.1094,-5.1603,-5.1954,-5.1954,-5.1526,-5.1094,-5.1048,-5.0857,-5.0742,-5.713,-5.713,-5.7181,-5.7188,-5.7188,-5.7188,-5.7188,-5.7188,-5.7188,-5.7188,-5.717,-5.6862,-5.6446,-5.5975,-5.5685,0.0,0.0,0.0,-5.4001,-5.3222,-5.3222,-5.2969,-5.2516,-5.2498,-5.2498,-5.2498,-5.2498,-5.2526,-5.2559,-5.2559,-5.2604,-5.2667,0.0,-5.2806,-5.2806,-5.2806,-5.2828,-5.2915,-5.2605,-5.248,-5.2544,-5.2254,-5.2236,-5.2526,-5.2584,-5.2709,-5.302,-5.3039,-5.313,-5.3345,-5.3488,-5.3905,0.0,0.0,0.0,0.0,0.0,0.0,0.0,0.0,0.0,0.0,0.0,-5.7829,-5.7013,0.0,0.0,0.0,-5.5688,-5.556,-5.5178,-5.5023,0.0,0.0,0.0,0.0,0.0,0.0,0.0,-5.4245,-5.4648,-5.4833,-5.4529,-5.4487,-5.4358,-5.3954,-5.3905,-5.3528,-5.2544,0.0,-5.1923,-5.1942,-5.1638,-5.1298,-5.0932,-5.0901,-5.0735,-5.0367,-5.0302,-5.0302,-5.0302,-5.0302,-5.0302,-5.0302,-5.0302,-5.0302,-5.0302,-5.0741,-5.1104,-5.1085,-5.0665,-5.0321,-5.0302,-5.0302,-5.0302,-5.6984,-5.7003,-5.713,-5.7163,-5.7163,-5.7181,-5.7163,-5.7163,-5.7091,-5.7073,-5.7018,-5.6222,-5.5842,-5.5733,-5.5009,0.0,-5.349,-5.349,-5.3092,-5.241,-5.241,-5.2434,-5.2498,-5.2498,-5.2498,-5.2498,-5.2498,-5.2498,-5.2498,-5.2498,-5.2498,-5.2498,-5.2672,-5.2761,-5.2761,-5.2688,-5.267,-5.2692,-5.1909,-5.1493,-5.1493,-5.0785,-5.0745,-5.1493,-5.1493,-5.1857,-5.2568,-5.2678,-5.2714,-5.2714,-5.3141,-5.3346,-5.3367,0.0,0.0,0.0,0.0,0.0,0.0,0.0,0.0,0.0,0.0,0.0,0.0,0.0,0.0,-5.4352,-5.4262,0.0,-5.4697,-5.4463,0.0,0.0,0.0,-5.4727,-5.4727,-5.4727,-5.4604,-5.4313,0.0,0.0,-5.3167,-5.3017,-5.3056,-5.3259,-5.3352,-5.2941,-5.1767,-5.098,-5.0498,-5.0529,-4.9859,-4.9424,-4.983,-4.9852,-4.992,-5.012,-5.0236,-5.0236,-5.0236,-5.029,-5.029,-5.0302,-5.0302,-5.0302,-5.0302,-5.034,-5.0302,-5.034,-5.0321,-5.0302,-5.0302,-5.0302,-5.0302,-5.6847,-5.6847,-5.6873,-5.6951,-5.7054,-5.6951,-5.6899,-5.6845,-5.6251,-5.5998,-5.5926,-5.517,-5.4503,-5.3891,-5.3116,-5.2411,-5.1795,-5.1777,-5.1747,-5.1572,-5.1572,-5.1897,-5.2498,-5.2498,-5.2498,-5.2498,-5.2498,-5.2498,-5.2498,-5.2498,-5.2498,-5.248,-5.2549,-5.2572,-5.2554,-5.1955,-5.171,-5.1799,-5.1017,-5.0623,-5.0672,-5.0511,-5.0511,-5.0693,-5.0672,-5.0785,-5.0964,-5.1547,-5.1876,-5.1912,-5.2568,-5.294,-5.294,-5.3011,0.0,0.0,0.0,0.0,0.0,0.0,0.0,0.0,0.0,-5.5423,-5.4492,0.0,-5.4412,0.0,-5.3995,-5.4048,-5.4098,-5.4048,0.0,0.0,-5.4117,-5.4098,-5.4117,-5.4117,-5.4101,-5.3994,-5.3452,-5.3002,-5.2813,-5.2269,-5.1583,-5.0833,-5.1061,-5.0986,-5.0028,-4.9749,-4.9599,-4.9584,-4.9437,-4.9333,-4.9375,-4.9424,-4.9468,-4.9527,-4.9744,-4.9929,-4.9929,-5.0132,-5.0302,-5.0302,-5.0302,-5.0302,-5.0302,-5.0302,-5.0302,-5.0302,-5.0302,-5.0302,-5.0302,-5.0302,-5.0302,-5.6715,-5.6715,-5.6707,-5.6742,-5.6821,-5.6794,-5.6579,-5.6237,-5.5787,-5.541,-5.505,-5.4295,-5.3504,-5.2731,-5.2282,-5.1938,-5.1586,-5.1296,-5.1226,-5.126,-5.1243,-5.1363,-5.1626,-5.2138,-5.2298,-5.2096,-5.2387,-5.2498,-5.2498,-5.2498,-5.2498,-5.248,-5.2136,-5.1955,-5.1937,-5.152,-5.1167,-5.0867,-5.0069,-4.9531,-4.9213,-4.9177,-4.9359,-4.9722,-4.9722,-4.9886,-5.0253,-5.0686,-5.0922,-5.0958,-5.1704,-5.2122,-5.214,-5.2467,-5.269,0.0,0.0,0.0,0.0,0.0,0.0,0.0,0.0,0.0,0.0,0.0,-5.3833,-5.3886,-5.3589,-5.349,-5.3664,-5.3529,-5.3472,-5.3645,-5.3664,-5.3664,-5.3664,-5.3683,-5.3477,-5.2933,-5.2488,-5.1934,-5.1249,-5.0768,-5.012,-4.9137,-4.9252,-4.9264,-4.8838,-4.8727,-4.8727,-4.8727,-4.8708,-4.8813,-4.9001,-4.9174,-4.9299,-4.9314,-4.9435,-4.957,-4.957,-4.9749,-4.9916,-5.0038,-5.0076,-5.0132,-5.0278,-5.0302,-5.0302,-5.0302,-5.0302,-5.0302,-5.0302,-5.0302,-5.0302,-5.6573,-5.6573,-5.6573,-5.6501,-5.6412,-5.6545,-5.6203,-5.5538,-5.5341,-5.4838,-5.4083,-5.3401,-5.2682,-5.2054,-5.2054,-5.2029,-5.1896,-5.1296,-5.1044,-5.1061,-5.1061,-5.084,-5.0497,-5.1637,-5.1945,-5.1594,-5.209,-5.2351,-5.233,-5.2312,-5.2258,-5.2154,-5.1484,-5.1086,-5.0995,-5.0977,-5.0597,-4.9822,-4.9094,-4.8424,-4.7735,-4.7699,-4.8022,-4.8692,-4.8746,-4.9075,-4.9767,-4.9912,-4.9927,-4.9945,-5.0728,-5.1176,-5.1285,-5.1955,-5.2417,0.0,-5.2568,0.0,0.0,0.0,0.0,0.0,0.0,0.0,0.0,-5.3093,-5.3408,-5.3684,-5.3141,-5.2897,-5.3263,-5.2944,-5.2897,-5.3224,-5.3304,-5.3249,-5.3156,-5.3138,-5.27,-5.1529,-5.1322,-5.0684,-4.9448,-4.9081,-4.8717,-4.8172,-4.8046,-4.8088,-4.7972,-4.8034,-4.8073,-4.7992,-4.7992,-4.8231,-4.855,-4.8881,-4.9078,-4.911,-4.9158,-4.9206,-4.9206,-4.9287,-4.9405,-4.9674,-4.973,-4.9844,-5.0169,-5.0224,-5.0248,-5.029,-5.0302,-5.0302,-5.0302,-5.0302,-5.0302,-5.6455,-5.6437,-5.6455,-5.6053,-5.5464,-5.5491,-5.5428,-5.5178,-5.3927,-5.2945,-5.2212,-5.2051,-5.1908,-5.1765,-5.1765,-5.1521,-5.1017,-5.0377,-5.0118,-5.0223,-5.0223,-5.0223,-5.0307,-5.1044,-5.1365,-5.1288,-5.1381,-5.1421,-5.136,-5.136,-5.1085,-5.0565,-5.0401,-4.9999,-4.9383,0.0,0.0,0.0,-4.8004,-4.7862,-4.7696,-4.7699,-4.7772,-4.7913,-4.7913,0.0,-4.817,-4.8786,-4.9108,-4.9144,-4.989,0.0,0.0,0.0,0.0,0.0,0.0,0.0,0.0,0.0,0.0,0.0,-5.264,-5.2595,-5.2631,-5.2672,-5.2694,-5.2761,-5.2645,-5.2595,-5.2645,-5.2599,-5.2595,-5.2667,-5.2667,-5.2413,-5.1795,-5.1708,-5.1373,-5.0486,-4.9829,-4.9321,-4.8977,-4.8415,-4.7961,-4.7819,-4.7762,-4.7762,-4.7762,-4.7909,-4.7992,-4.7992,-4.7992,-4.8032,-4.8113,-4.8231,-4.8346,-4.8289,-4.8586,-4.8781,-4.8815,-4.908,-4.9287,-4.9375,-4.9375,-4.9498,-4.9811,-4.9903,-4.9968,-5.0255,-5.029,-5.0302,-5.0302,-5.0302,-5.0302,-5.6383,-5.6365,-5.5972,-5.5562,0.0,-5.4384,-5.4063,-5.401,-5.325,-5.2294,-5.1263,-5.0902,-5.0946,-5.1245,-5.1245,-5.1245,-5.1219,-5.0577,-5.0135,-4.9901,-4.9901,-4.9641,-4.9227,-5.0085,-5.0374,-5.0198,-5.0371,-5.0432,-5.0392,-5.0415,-5.0267,-4.9987,-4.9603,-4.9227,-4.8891,-4.8493,-4.8094,-4.7699,-4.7699,-4.7699,-4.7699,-4.7699,-4.7699,-4.7699,-4.7699,0.0,0.0,0.0,0.0,0.0,0.0,0.0,0.0,-5.047,0.0,-5.1846,-5.19,-5.2063,-5.2462,-5.2498,-5.2498,-5.2498,-5.2498,-5.2521,-5.2554,-5.2526,-5.2498,-5.2498,-5.2498,-5.2498,-5.2498,-5.2498,-5.2335,-5.1973,-5.19,-5.1574,-5.0873,-5.0728,-5.0379,-4.9655,-4.9166,-4.8764,-4.8348,-4.7968,-4.7717,-4.7699,-4.7699,-4.7699,-4.7699,-4.7783,-4.7866,-4.7847,-4.7927,-4.7966,-4.7929,-4.799,-4.7992,-4.8052,-4.821,-4.8326,-4.8345,-4.8586,-4.8816,-4.8967,-4.9034,-4.9161,-4.9468,-4.9556,-4.9618,-4.9757,-4.9817,-4.987,-5.0006,-5.0188,-5.0302,-5.6383,-5.6329,-5.5526,-5.5134,-5.4884,-5.3474,-5.2822,-5.2671,-5.2594,0.0,0.0,-5.0153,-5.0282,-5.0803,-5.0928,-5.1237,-5.164,-5.107,-5.0512,-4.9965,-4.985,-4.9193,-4.8201,-4.9022,-4.9237,-4.8864,-4.9156,-4.9352,-4.9449,-4.9472,-4.9451,-4.9383,-4.881,-4.8565,-4.8637,-4.8043,-4.7699,-4.7699,-4.7699,-4.7699,-4.7699,-4.7699,-4.7699,-4.7699,-4.7699,-4.7699,-4.7699,-4.7699,-4.7699,-4.7735,-4.8333,-4.8746,-4.8909,-4.9528,-5.0257,-5.0995,-5.109,-5.1398,-5.2009,-5.2063,-5.2136,-5.2263,-5.2426,-5.2498,-5.2498,-5.2498,-5.2498,-5.2498,-5.2498,-5.2462,-5.2299,-5.2281,-5.1955,-5.1176,-5.1086,-5.076,-5.0017,-4.9872,-4.9582,-4.8855,-4.8677,-4.8438,-4.7844,-4.7735,-4.7699,-4.7699,-4.7699,-4.7699,-4.7699,-4.7699,-4.772,-4.772,-4.7801,-4.7861,-4.7881,-4.7886,-4.7949,-4.7929,-4.797,-4.799,-4.801,-4.807,-4.8286,-4.8587,-4.8677,-4.8849,-4.919,-4.9252,-4.9283,-4.9453,-4.942,-4.9498,-4.9817,-5.01,-5.029,-5.6383,-5.6329,-5.5544,-5.4813,-5.409,-5.3242,-5.2493,-5.1826,-5.1326,-5.0655,-4.9965,-5.0467,-5.0721,-5.0847,-5.1341,-5.164,-5.1665,-5.1061,-5.0749,-5.0622,-5.0067,-4.9098,-4.7909,-4.8014,-4.7974,-4.7824,-4.786,-4.8125,-4.8452,-4.8491,-4.8236,-4.7737,-4.7663,-4.7735,-4.7841,-4.7732,-4.7699,-4.7699,-4.7699,-4.7699,-4.7699,-4.7699,-4.7699,-4.7699,-4.7699,-4.7699,-4.7699,-4.7699,-4.7699,-4.7717,-4.7826,-4.8185,-4.8855,-4.8999,-4.9438,-5.0202,-5.0275,-5.0329,-5.0456,-5.0416,-5.0723,-5.1411,-5.21,-5.2498,-5.2498,-5.2498,-5.2498,-5.248,-5.2408,-5.219,-5.1574,-5.147,-5.1162,-5.0379,-5.0293,-4.9927,-4.9166,-4.9054,-4.8786,-4.8022,-4.7862,-4.7898,-4.7753,-4.7699,-4.7699,-4.7699,-4.7699,-4.7699,-4.7699,-4.7699,-4.7699,-4.7699,-4.7717,-4.7738,-4.7759,-4.7738,-4.7762,-4.7741,-4.7842,-4.7904,-4.7904,-4.7988,-4.809,-4.8265,-4.8324,-4.8569,-4.9113,-4.9048,-4.9224,-4.9744,-4.9776,-4.9776,-5.0044,-5.0236,-5.0283,-5.6133,-5.5669,-5.4902,-5.4135,-5.335,-5.2564,-5.1876,-5.1211,-5.091,-5.0439,-4.9804,-4.978,-4.9971,-5.031,-5.092,-5.1375,-5.169,-5.1418,-5.0885,-5.0144,-4.9821,-4.8962,-4.7717,-4.7526,-4.7432,-4.7369,-4.7296,-4.7391,-4.7561,-4.7589,-4.7478,-4.7267,-4.7341,-4.745,-4.7593,-4.7575,-4.7636,-4.7699,-4.7699,-4.7699,-4.7699,-4.7699,-4.7699,-4.7699,-4.7699,-4.7699,-4.7699,-4.7699,-4.7699,-4.7699,-4.7699,-4.7859,-4.8203,-4.8261,-4.8623,-4.9383,-4.9456,-4.9637,-5.0071,-5.0112,-5.0253,-5.0637,-5.0999,-5.1194,-5.1217,-5.1593,-5.1665,-5.1271,-5.1194,-5.1072,-5.0691,-5.0633,-5.0325,-4.9528,-4.9456,-4.9112,-4.842,-4.8261,-4.8094,-4.779,-4.7699,-4.7699,-4.7699,-4.7699,-4.7699,-4.7699,-4.7699,-4.7699,-4.7699,-4.7699,-4.7699,-4.7699,-4.7699,-4.7699,-4.7699,-4.7699,-4.7699,-4.7699,-4.7738,-4.778,-4.778,-4.7884,-4.7947,-4.8026,-4.8126,-4.8306,-4.8693,-4.8763,-4.9015,-4.924,-4.9397,-4.9439,-4.9876,-5.0156,-5.0149,-5.5937,-5.5152,-5.4322,-5.3474,-5.2564,-5.1958,-5.1418,-5.1008,-5.0857,-5.0495,-4.9982,-4.9381,-4.944,-5.005,-5.0577,-5.1052,-5.139,-5.1422,-5.0733,-4.9624,-4.9398,-4.8661,-4.7501,-4.7047,-4.6881,-4.6943,-4.6724,-4.6754,-4.6957,-4.6998,-4.7066,-4.7178,-4.7249,-4.7359,-4.7468,-4.7468,-4.7511,-4.7615,-4.7597,-4.7636,-4.7717,-4.7699,-4.7699,-4.7699,-4.7699,-4.7699,-4.7699,-4.7699,-4.7699,-4.7699,-4.7699,-4.7699,-4.7699,-4.7699,-4.7968,-4.8547,-4.8619,-4.8912,-4.9492,-4.9727,-4.9818,-4.9818,-5.0003,-5.0021,-4.989,-5.0379,-5.0597,-5.0184,-5.0184,-5.0075,-4.9854,-4.9818,-4.9492,-4.8746,-4.8619,-4.8405,-4.7826,-4.7699,-4.7699,-4.7699,-4.7699,-4.7699,-4.7699,-4.7699,-4.7699,-4.7699,-4.7699,-4.7699,-4.7699,-4.7699,-4.7699,-4.7699,-4.7699,-4.7699,-4.7699,-4.7699,-4.7699,-4.7699,-4.7699,-4.7699,-4.7738,-4.7798,-4.7861,-4.7904,-4.8028,-4.8228,-4.8306,-4.8477,-4.8746,-4.8967,-4.8984,-4.9067,-4.9688,-5.0,-4.9957,-5.5937,-5.5134,-5.4304,-5.3153,-5.1869,-5.1726,-5.164,-5.1521,-5.1061,-5.0776,-5.0649,-4.9993,-5.0067,-5.0649,-5.0776,-5.0752,-5.0624,-5.062,-5.0142,-4.9315,-4.8778,-4.8083,-4.728,-4.6285,-4.5942,-4.6213,-4.5819,-4.6151,-4.6957,-4.6998,-4.7048,-4.7196,-4.7219,-4.7249,-4.732,-4.732,-4.7341,-4.7341,-4.7341,-4.7468,-4.7678,-4.7699,-4.7699,-4.7699,-4.7717,-4.7699,-4.7678,-4.7699,-4.7699,-4.7699,-4.7699,-4.7699,-4.7699,-4.7699,-4.7735,-4.7844,-4.7844,-4.7862,-4.7989,-4.8623,-4.8999,-4.9075,-4.9637,-4.9727,-4.9094,-4.9094,-4.9438,-4.9818,-5.0057,-4.9691,-4.9112,-4.9021,-4.8713,-4.8043,-4.7898,-4.7769,-4.7735,-4.7699,-4.7699,-4.7699,-4.7699,-4.7699,-4.7699,-4.7699,-4.7699,-4.7699,-4.7699,-4.7699,-4.7699,-4.7699,-4.7699,-4.7699,-4.7699,-4.7699,-4.7699,-4.7699,-4.7699,-4.7699,-4.7699,-4.7699,-4.7717,-4.7717,-4.7738,-4.7861,-4.7966,-4.8151,-4.8383,-4.855,-4.8568,-4.8965,-4.8999,-4.9017,-4.9603,-4.9844,-4.9664,-5.5651,-5.4447,-5.4126,-5.3118,-5.1797,-5.169,-5.169,-5.1665,-5.1444,-5.1323,-5.1245,-5.0659,-5.0338,-5.0248,-5.0515,-5.0386,-4.9991,-4.9848,-4.9388,-4.8675,-4.8389,-4.7848,-4.7109,-4.6674,-4.6541,-4.6655,-4.6411,-4.6548,-4.6911,-4.6998,-4.7043,-4.7066,-4.7088,-4.7133,-4.7227,-4.7227,-4.7272,-4.7298,-4.7298,-4.7363,-4.745,-4.745,-4.7468,-4.745,-4.7533,-4.7593,-4.7575,-4.7657,-4.7699,-4.7699,-4.7699,-4.7699,-4.7699,-4.7699,-4.7699,-4.7699,-4.7699,-4.7699,-4.7699,-4.8004,-4.8167,-4.8185,-4.8496,-4.8532,-4.8239,-4.8185,-4.8351,-4.8605,-4.8677,-4.8514,-4.8239,-4.8206,-4.8022,-4.7751,-4.7699,-4.7699,-4.7699,-4.7699,-4.7699,-4.7699,-4.7699,-4.7699,-4.7699,-4.7699,-4.7699,-4.7699,-4.7699,-4.7699,-4.7699,-4.7699,-4.7699,-4.7699,-4.7699,-4.7699,-4.7699,-4.7699,-4.7699,-4.7699,-4.7699,-4.7699,-4.7699,-4.7699,-4.7738,-4.7798,-4.7884,-4.801,-4.8191,-4.8495,-4.8676,-4.8967,-4.9142,-4.9161,-4.9209,-4.9527,-4.9622,-5.5277,-5.4019,-5.3555,-5.2743,-5.1708,-5.169,-5.169,-5.169,-5.169,-5.169,-5.1665,-5.1219,-5.0686,-5.0161,-5.0223,-4.9884,-4.931,-4.9092,-4.8586,-4.7949,-4.7877,-4.7551,-4.7033,-4.6842,-4.6865,-4.6957,-4.6819,-4.6842,-4.6975,-4.6998,-4.6998,-4.6998,-4.6998,-4.7043,-4.7151,-4.7133,-4.716,-4.7209,-4.7232,-4.7209,-4.7232,-4.7209,-4.7254,-4.7302,-4.7385,-4.7468,-4.7428,-4.7575,-4.7636,-4.7657,-4.7696,-4.7699,-4.7699,-4.7699,-4.7699,-4.7699,-4.7699,-4.7699,-4.7699,-4.7699,-4.7699,-4.7699,-4.7699,-4.7699,-4.7699,-4.7699,-4.7699,-4.7753,-4.7699,-4.7753,-4.7699,-4.7699,-4.7699,-4.7699,-4.7699,-4.7699,-4.7699,-4.7699,-4.7699,-4.7699,-4.7699,-4.7699,-4.7699,-4.7699,-4.7699,-4.7699,-4.7699,-4.7699,-4.7699,-4.7699,-4.7699,-4.7699,-4.7699,-4.7699,-4.7699,-4.7699,-4.7699,-4.7699,-4.7699,-4.7699,-4.7699,-4.7699,-4.7699,-4.7759,-4.7861,-4.7966,-4.8092,-4.8364,-4.8605,-4.8694,-4.8832,-4.8982,-4.8917,-4.9256,-4.9498,-5.4777,-5.3805,-5.2422,-5.1815,-5.169,-5.169,-5.169,-5.169,-5.169,-5.169,-5.169,-5.1665,-5.1297,-5.0678,-4.9987,-4.9214,-4.8537,-4.8311,-4.7818,-4.7158,-4.7105,-4.7033,-4.6975,-4.6495,-4.6518,-4.6934,-4.659,-4.659,-4.6998,-4.6998,-4.6998,-4.6998,-4.6998,-4.6998,-4.702,-4.702,-4.702,-4.7025,-4.7043,-4.7002,-4.702,-4.7025,-4.7116,-4.7276,-4.7302,-4.732,-4.7341,-4.7428,-4.7493,-4.7511,-4.7615,-4.7678,-4.7696,-4.7696,-4.7699,-4.7699,-4.7699,-4.7699,-4.7699,-4.7699,-4.7699,-4.7699,-4.7699,-4.7699,-4.7699,-4.7699,-4.7699,-4.7699,-4.7699,-4.7699,-4.7699,-4.7699,-4.7699,-4.7699,-4.7699,-4.7699,-4.7699,-4.7699,-4.7699,-4.7699,-4.7699,-4.7699,-4.7699,-4.7699,-4.7699,-4.7699,-4.7699,-4.7699,-4.7699,-4.7699,-4.7699,-4.7699,-4.7699,-4.7699,-4.7699,-4.7699,-4.7699,-4.7699,-4.7699,-4.7699,-4.7699,-4.7699,-4.7699,-4.7741,-4.7866,-4.7968,-4.805,-4.8151,-4.8325,-4.842,-4.842,-4.8495,-4.8658,-4.8764,-4.9001,-5.4456,-5.3207,-5.2136,-5.169,-5.169,-5.169,-5.169,-5.169,-5.169,-5.169,-5.169,-5.169,-5.1367,-5.0733,-4.9831,-4.9038,-4.8397,-4.7725,-4.7288,-4.6998,-4.6998,-4.6998,-4.698,-4.6795,-4.6795,-4.6952,-4.6819,-4.6819,-4.6957,-4.6998,-4.6998,-4.6998,-4.6998,-4.6998,-4.6998,-4.6998,-4.6998,-4.6998,-4.6998,-4.6998,-4.6998,-4.6998,-4.7048,-4.7116,-4.7183,-4.7227,-4.7245,-4.732,-4.7363,-4.7385,-4.7407,-4.749,-4.7554,-4.7657,-4.7699,-4.7699,-4.7699,-4.7699,-4.7699,-4.7699,-4.7699,-4.7699,-4.7699,-4.7699,-4.7699,-4.7699,-4.7699,-4.7699,-4.7699,-4.7699,-4.7699,-4.7699,-4.7699,-4.7699,-4.7699,-4.7699,-4.7699,-4.7699,-4.7699,-4.7699,-4.7699,-4.7699,-4.7699,-4.7699,-4.7699,-4.7699,-4.7699,-4.7699,-4.7699,-4.7699,-4.7699,-4.7699,-4.7699,-4.7699,-4.7699,-4.7699,-4.7699,-4.7699,-4.7699,-4.7699,-4.7699,-4.7699,-4.7699,-4.772,-4.7845,-4.797,-4.805,-4.817,-4.8287,-4.8324,-4.8324,-4.8344,-4.8458,-4.8604,-4.8781,-5.392,-5.2554,-5.1922,-5.169,-5.169,-5.169,-5.169,-5.169,-5.169,-5.169,-5.169,-5.169,-5.147,-5.0928,-4.9841,-4.9088,-4.8597,-4.7548,-4.6998,-4.6998,-4.6998,-4.6998,-4.6998,-4.6998,-4.6998,-4.6998,-4.6998,-4.6998,-4.6998,-4.6998,-4.6998,-4.6998,-4.6998,-4.6998,-4.6998,-4.6998,-4.6998,-4.6998,-4.6998,-4.6998,-4.6998,-4.6998,-4.6998,-4.702,-4.7088,-4.7133,-4.7133,-4.7227,-4.7254,-4.7254,-4.7298,-4.7363,-4.749,-4.7593,-4.7675,-4.7696,-4.7699,-4.7699,-4.7699,-4.7699,-4.7699,-4.7699,-4.7699,-4.7699,-4.7699,-4.7699,-4.7699,-4.7699,-4.7699,-4.7699,-4.7699,-4.7699,-4.7699,-4.7699,-4.7699,-4.7699,-4.7699,-4.7699,-4.7699,-4.7699,-4.7699,-4.7699,-4.7699,-4.7699,-4.7699,-4.7699,-4.7699,-4.7699,-4.7699,-4.7699,-4.7699,-4.7699,-4.7699,-4.7699,-4.7699,-4.7699,-4.7699,-4.7699,-4.7699,-4.7699,-4.7717,-4.7699,-4.7699,-4.772,-4.7824,-4.7949,-4.809,-4.8209,-4.8267,-4.8305,-4.8324,-4.8325,-4.8402,-4.8495,-4.8604,-5.3135,-5.1851,-5.169,-5.169,-5.169,-5.169,-5.169,-5.169,-5.169,-5.169,-5.169,-5.169,-5.1665,-5.1344,-4.9989,-4.9251,-4.896,-4.767,-4.6998,-4.6998,-4.6998,-4.6998,-4.6998,-4.6998,-4.6998,-4.6998,-4.6998,-4.6998,-4.6998,-4.6998,-4.6998,-4.6998,-4.6998,-4.6998,-4.6998,-4.6998,-4.6998,-4.6998,-4.6998,-4.6998,-4.6998,-4.6998,-4.6998,-4.6998,-4.702,-4.702,-4.702,-4.7111,-4.7178,-4.7178,-4.7232,-4.7363,-4.7468,-4.7493,-4.7554,-4.7678,-4.7699,-4.7699,-4.7699,-4.7699,-4.7699,-4.7699,-4.7699,-4.7699,-4.7699,-4.7699,-4.7699,-4.7699,-4.7699,-4.7699,-4.7699,-4.7699,-4.7699,-4.7699,-4.7699,-4.7699,-4.7699,-4.7699,-4.7699,-4.7699,-4.7699,-4.7699,-4.7699,-4.7699,-4.7699,-4.7699,-4.7699,-4.7699,-4.7699,-4.7699,-4.7699,-4.7699,-4.7699,-4.7699,-4.7699,-4.7699,-4.7699,-4.7699,-4.7699,-4.7699,-4.7717,-4.7717,-4.7759,-4.778,-4.7909,-4.805,-4.8169,-4.8287,-4.8287,-4.8324,-4.8324,-4.8324,-4.8363,-4.842,-4.8382,-5.3092,-5.1744,-5.169,-5.169,-5.169,-5.169,-5.169,-5.169,-5.169,-5.169,-5.169,-5.169,-5.169,-5.1333,-5.0024,-4.9293,-4.915,-4.7747,-4.6998,-4.6998,-4.6998,-4.6998,-4.6998,-4.6998,-4.6998,-4.6998,-4.6998,-4.6998,-4.6998,-4.6998,-4.6998,-4.6998,-4.6998,-4.6998,-4.6998,-4.6998,-4.6998,-4.6998,-4.6998,-4.6998,-4.6998,-4.6998,-4.6998,-4.6998,-4.6998,-4.6998,-4.6998,-4.7043,-4.7066,-4.7066,-4.707,-4.7165,-4.7341,-4.7468,-4.7572,-4.7678,-4.7699,-4.7699,-4.7699,-4.7699,-4.7699,-4.7699,-4.7699,-4.7699,-4.7699,-4.7699,-4.7699,-4.7699,-4.7699,-4.7699,-4.7699,-4.7699,-4.7699,-4.7699,-4.7699,-4.7699,-4.7699,-4.7699,-4.7699,-4.7699,-4.7699,-4.7699,-4.7699,-4.7699,-4.7699,-4.7699,-4.7699,-4.7699,-4.7699,-4.7699,-4.7699,-4.7699,-4.7699,-4.7699,-4.7699,-4.7717,-4.7717,-4.7738,-4.7738,-4.7738,-4.7738,-4.778,-4.7801,-4.7884,-4.8028,-4.813,-4.8267,-4.8324,-4.8324,-4.8324,-4.8324,-4.8324,-4.8324,-4.8324,-4.8324,-5.3118,-5.1744,-5.169,-5.169,-5.1708,-5.1589,-5.1615,-5.1665,-5.1589,-5.1607,-5.1683,-5.169,-5.169,-5.1369,-5.0006,-4.9311,-4.9115,-4.7693,-4.6998,-4.6998,-4.6998,-4.6998,-4.6998,-4.6998,-4.6998,-4.6998,-4.6998,-4.6998,-4.6998,-4.6998,-4.6998,-4.6998,-4.6998,-4.6998,-4.6998,-4.6998,-4.6998,-4.6998,-4.6998,-4.6998,-4.6998,-4.6998,-4.6998,-4.6998,-4.6998,-4.6998,-4.6998,-4.6998,-4.6998,-4.6998,-4.6998,-4.7093,-4.728,-4.7385,-4.7511,-4.7657,-4.7699,-4.7699,-4.7699,-4.7699,-4.7699,-4.7699,-4.7699,-4.7699,-4.7699,-4.7699,-4.7699,-4.7699,-4.7699,-4.7699,-4.7699,-4.7699,-4.7699,-4.7699,-4.7699,-4.7699,-4.7699,-4.7699,-4.7699,-4.7699,-4.7699,-4.7699,-4.7699,-4.7699,-4.7699,-4.7699,-4.7699,-4.7699,-4.7699,-4.7699,-4.7699,-4.7699,-4.7699,-4.7699,-4.7699,-4.7717,-4.7717,-4.7777,-4.7798,-4.7819,-4.7819,-4.7866,-4.7927,-4.8008,-4.8128,-4.8169,-4.8286,-4.8305,-4.8324,-4.8324,-4.8324,-4.8324,-4.8324,-4.8324,-4.8324,-5.3118,-5.1762,-5.169,-5.169,-5.1665,-5.1462,-5.1487,-5.164,-5.1462,-5.1513,-5.1665,-5.169,-5.169,-5.1351,-5.0031,-4.9293,-4.9008,-4.7711,-4.6998,-4.6998,-4.6998,-4.6998,-4.6998,-4.6998,-4.6998,-4.6998,-4.6998,-4.6998,-4.6998,-4.6998,-4.6998,-4.6998,-4.6998,-4.6998,-4.6998,-4.6998,-4.6998,-4.6998,-4.6998,-4.6998,-4.6998,-4.6998,-4.6998,-4.6998,-4.6998,-4.6998,-4.6998,-4.6998,-4.6998,-4.6998,-4.6998,-4.7093,-4.7254,-4.7298,-4.7428,-4.7657,-4.7678,-4.7699,-4.7699,-4.7699,-4.7699,-4.7699,-4.7699,-4.7753,-4.7862,-4.7935,-4.8007,-4.8098,-4.7971,-4.7862,-4.7862,-4.7735,-4.7717,-4.7699,-4.7699,-4.7699,-4.7699,-4.7699,-4.7699,-4.7699,-4.7699,-4.7699,-4.7699,-4.7699,-4.7699,-4.7699,-4.7699,-4.7699,-4.7699,-4.7699,-4.7699,-4.7699,-4.7699,-4.7699,-4.7699,-4.778,-4.778,-4.784,-4.7881,-4.7925,-4.7904,-4.7968,-4.805,-4.8148,-4.8187,-4.8228,-4.8248,-4.8305,-4.8324,-4.8324,-4.8324,-4.8324,-4.8324,-4.8324,-4.8324,-5.3092,-5.1726,-5.169,-5.169,-5.1708,-5.1615,-5.164,-5.169,-5.1615,-5.1615,-5.169,-5.169,-5.169,-5.1512,-5.0049,-4.9293,-4.8901,-4.7693,-4.6998,-4.6998,-4.6998,-4.6998,-4.6998,-4.6998,-4.6998,-4.6998,-4.6998,-4.6998,-4.6998,-4.6998,-4.6998,-4.6998,-4.6998,-4.6998,-4.6998,-4.6998,-4.6998,-4.6998,-4.6998,-4.6998,-4.6998,-4.6998,-4.6998,-4.6998,-4.6998,-4.6998,-4.6998,-4.6998,-4.6998,-4.6998,-4.6998,-4.7066,-4.7223,-4.7294,-4.7385,-4.7533,-4.7693,-4.7735,-4.7735,-4.7772,-4.7753,-4.7699,-4.788,-4.7989,-4.855,-4.8583,-4.8876,-4.9166,-4.8985,-4.8583,-4.8475,-4.8098,-4.7826,-4.7699,-4.7862,-4.7808,-4.7717,-4.7699,-4.7699,-4.7699,-4.7699,-4.7699,-4.7699,-4.7699,-4.7699,-4.7699,-4.7699,-4.7699,-4.7699,-4.7699,-4.7699,-4.7699,-4.7699,-4.7699,-4.7738,-4.7801,-4.7861,-4.7902,-4.7966,-4.805,-4.805,-4.807,-4.8169,-4.8247,-4.8247,-4.8286,-4.8305,-4.8305,-4.8324,-4.8324,-4.8324,-4.8324,-4.8324,-4.8324,-4.8324,-5.3074,-5.1708,-5.169,-5.169,-5.169,-5.1564,-5.1589,-5.1683,-5.1564,-5.1589,-5.1665,-5.169,-5.169,-5.153,-5.0006,-4.9293,-4.9079,-4.7693,-4.7033,-4.6998,-4.6998,-4.6998,-4.6998,-4.6998,-4.6998,-4.6998,-4.6998,-4.6998,-4.6998,-4.6998,-4.6998,-4.6998,-4.6998,-4.6998,-4.6998,-4.6998,-4.6998,-4.6998,-4.6998,-4.6998,-4.6998,-4.6998,-4.6998,-4.6998,-4.6998,-4.6998,-4.6998,-4.6998,-4.6998,-4.6998,-4.702,-4.7066,-4.7178,-4.7272,-4.7363,-4.749,-4.7925,-4.8221,-4.8275,-4.8496,-4.8713,-4.8713,-4.8713,-4.8931,-4.9311,-4.942,-4.9673,-4.9894,-4.9619,-4.9456,-4.9329,-4.8967,-4.8731,-4.8786,-4.8713,-4.8442,-4.7826,-4.7699,-4.7699,-4.7699,-4.7699,-4.7717,-4.7717,-4.7735,-4.7717,-4.7699,-4.7699,-4.7699,-4.7699,-4.7717,-4.7829,-4.7959,-4.7961,-4.8003,-4.8045,-4.8125,-4.8168,-4.819,-4.8251,-4.8297,-4.8169,-4.8169,-4.8228,-4.8286,-4.8305,-4.8324,-4.8324,-4.8324,-4.8324,-4.8324,-4.8324,-4.8324,-4.8324,-4.8324,-4.8324,-5.3118,-5.169,-5.169,-5.169,-5.1665,-5.1479,-5.1513,-5.1615,-5.1487,-5.1513,-5.1665,-5.169,-5.169,-5.1601,-5.0024,-4.9275,-4.9186,-4.7711,-4.714,-4.6998,-4.6998,-4.6998,-4.6998,-4.6998,-4.6998,-4.6998,-4.6998,-4.6998,-4.6998,-4.6998,-4.6998,-4.6998,-4.6998,-4.6998,-4.6998,-4.6998,-4.6998,-4.6998,-4.6998,-4.6998,-4.6998,-4.6998,-4.6998,-4.6998,-4.6998,-4.6998,-4.6998,-4.6998,-4.6998,-4.6998,-4.6998,-4.7137,-4.7286,-4.7411,-4.7611,-4.7959,-4.8609,-4.9018,-4.9072,-4.9564,-4.9985,-4.9912,-4.9949,-5.0202,-5.0184,-5.0238,-5.0347,-5.0637,-5.0329,-5.0144,-4.9963,-5.0003,-4.9912,-4.9822,-4.9967,-4.9329,-4.8387,-4.7953,-4.7953,-4.7971,-4.7989,-4.7971,-4.7953,-4.7935,-4.8007,-4.8586,-4.8496,-4.8514,-4.8554,-4.8611,-4.8617,-4.8569,-4.8502,-4.8382,-4.8425,-4.8486,-4.8528,-4.857,-4.8648,-4.8615,-4.8321,-4.8267,-4.8286,-4.8324,-4.8324,-4.8324,-4.8324,-4.8324,-4.8324,-4.8324,-4.8324,-4.8324,-4.8324,-4.8324,-4.8324,-5.3118,-5.169,-5.169,-5.169,-5.169,-5.164,-5.164,-5.169,-5.164,-5.164,-5.1708,-5.169,-5.169,-5.1601,-5.0084,-4.9293,-4.9079,-4.7765,-4.6998,-4.6998,-4.6998,-4.6998,-4.6998,-4.6998,-4.6998,-4.6998,-4.6998,-4.6998,-4.6998,-4.6998,-4.6998,-4.6998,-4.6998,-4.6998,-4.6998,-4.6998,-4.6998,-4.6998,-4.6998,-4.6998,-4.6998,-4.6998,-4.6998,-4.6998,-4.6998,-4.6998,-4.6998,-4.6998,-4.6998,-4.6998,-4.7074,-4.7365,-4.7844,-4.8147,-4.8511,-4.9046,-4.9509,-4.9836,-4.9872,-5.0053,-5.0148,-5.0275,-5.0347,-5.0383,-5.1017,-5.1031,-5.1339,-5.1647,-5.1411,-5.0832,-5.0379,-5.0166,-5.0275,-5.0329,-5.0275,-5.0112,-4.9677,-4.9528,-4.942,-4.9456,-4.9456,-4.9568,-4.951,-4.9401,-4.9438,-4.9546,-4.951,-4.9528,-4.9499,-4.9452,-4.9407,-4.9289,-4.9352,-4.9323,-4.9385,-4.9391,-4.9342,-4.929,-4.9276,-4.9242,-4.893,-4.8618,-4.8746,-4.8581,-4.8324,-4.8324,-4.8324,-4.8324,-4.8324,-4.8324,-4.8324,-4.8324,-4.8324,-4.8324,-4.8324,-5.3074,-5.1726,-5.169,-5.169,-5.169,-5.169,-5.169,-5.169,-5.169,-5.169,-5.169,-5.169,-5.169,-5.1547,-5.0084,-4.9293,-4.8919,-4.7729,-4.6998,-4.6998,-4.6998,-4.6998,-4.6998,-4.6998,-4.6998,-4.6998,-4.6998,-4.6998,-4.6998,-4.6998,-4.6998,-4.6998,-4.6998,-4.6998,-4.6998,-4.6998,-4.6998,-4.6998,-4.6998,-4.6998,-4.6998,-4.6998,-4.6998,-4.6998,-4.6998,-4.6998,-4.6998,-4.6998,-4.7257,-4.7535,-4.7683,-4.7844,-4.8332,-4.882,-4.9365,-4.9758,-5.0376,-5.0615,-5.0691,-5.0995,-5.1249,-5.1176,-5.1194,-5.143,-5.1737,-5.1846,-5.2009,-5.2299,-5.21,-5.1647,-5.1267,-5.123,-5.1212,-5.1212,-5.1194,-5.1194,-5.1108,-5.0601,-5.0112,-5.0112,-5.0021,-5.0039,-5.0112,-5.0329,-5.0184,-4.9967,-4.993,-4.9949,-4.9981,-4.9952,-5.0114,-5.0122,-5.0276,-5.0357,-5.0437,-5.0426,-5.0301,-5.0211,-5.014,-5.0086,-4.9921,-4.9591,-4.9297,-4.893,-4.8489,-4.8324,-4.8324,-4.8324,-4.8324,-4.8324,-4.8324,-4.8324,-4.8324,-4.8324,-4.8324,-5.3074,-5.169,-5.169,-5.169,-5.169,-5.169,-5.169,-5.169,-5.169,-5.169,-5.169,-5.169,-5.169,-5.1351,-5.0031,-4.9275,-4.8568,-4.7783,-4.6998,-4.6998,-4.6998,-4.6998,-4.6998,-4.6998,-4.6998,-4.6998,-4.6998,-4.6998,-4.6998,-4.6998,-4.6998,-4.6998,-4.6998,-4.6998,-4.6998,-4.6998,-4.6998,-4.6998,-4.6998,-4.6998,-4.6998,-4.6998,-4.6998,-4.6998,-4.6998,-4.6998,-4.7074,-4.724,-4.7589,-4.8325,-4.8639,-4.8788,-4.9036,-4.9509,-5.0204,-5.0295,-5.109,-5.143,-5.1579,-5.1991,-5.2335,-5.2498,-5.2444,-5.2426,-5.2426,-5.2389,-5.2408,-5.2444,-5.2371,-5.2371,-5.2462,-5.2281,-5.2317,-5.2371,-5.2426,-5.2498,-5.2263,-5.1253,-5.08,-5.0655,-5.0891,-5.0959,-5.0836,-5.0895,-5.0641,-5.046,-5.0442,-5.0486,-5.0551,-5.0711,-5.1,-5.1268,-5.1478,-5.1574,-5.1637,-5.1545,-5.1424,-5.1075,-5.0986,-5.0839,-5.0747,-5.0325,-4.9829,-4.9077,-4.8673,-4.8581,-4.8434,-4.8324,-4.8324,-4.8324,-4.8324,-4.8324,-4.8324,-4.8324,-4.8324,-5.31,-5.169,-5.169,-5.169,-5.169,-5.169,-5.169,-5.169,-5.169,-5.169,-5.169,-5.169,-5.169,-5.128,-5.0031,-4.8687,-4.7729,-4.7122,-4.6998,-4.6998,-4.6998,-4.6998,-4.6998,-4.6998,-4.6998,-4.6998,-4.6998,-4.6998,-4.6998,-4.6998,-4.6998,-4.6998,-4.6998,-4.6998,-4.6998,-4.6998,-4.6998,-4.6998,-4.6998,-4.6998,-4.6998,-4.6998,-4.6998,-4.6998,-4.6998,-4.7056,-4.7257,-4.7773,-4.8253,-4.8491,-4.9865,-5.0438,-5.0587,-5.0795,-5.1179,-5.1636,-5.1958,-5.2136,-5.2226,-5.2353,-5.2498,-5.2498,-5.2498,-5.2498,-5.2498,-5.2498,-5.2498,-5.2498,-5.2498,-5.2498,-5.2498,-5.2498,-5.2498,-5.2498,-5.2498,-5.2498,-5.2408,-5.2159,-5.1851,-5.1765,-5.1887,-5.1946,-5.1756,-5.1673,-5.1641,-5.1609,-5.1649,-5.1726,-5.185,-5.2061,-5.2352,-5.2581,-5.2791,-5.2831,-5.2892,-5.2745,-5.2564,-5.1995,-5.1738,-5.1499,-5.1298,-5.0912,-5.0362,-4.9884,-4.9389,-4.9132,-4.8893,-4.8563,-4.8343,-4.8361,-4.8343,-4.8324,-4.8324,-4.8324,-4.8324,-5.3118,-5.1726,-5.169,-5.169,-5.169,-5.169,-5.169,-5.169,-5.169,-5.169,-5.169,-5.169,-5.169,-5.1262,-5.0031,-4.8461,-4.7319,-4.6998,-4.6998,-4.6998,-4.6998,-4.6998,-4.6998,-4.6998,-4.6998,-4.6998,-4.6998,-4.6998,-4.6998,-4.6998,-4.6998,-4.6998,-4.6998,-4.6998,-4.6998,-4.6998,-4.6998,-4.6998,-4.6998,-4.6998,-4.6998,-4.6998,-4.6998,-4.6998,-4.7074,-4.724,-4.7773,-4.8051,-4.89,-4.9752,-5.0623,-5.1274,-5.1623,-5.1803,-5.1948,-5.2291,-5.2452,-5.2498,-5.2498,-5.2498,-5.2498,-5.2498,-5.2498,-5.2498,-5.2498,-5.2498,-5.2498,-5.2498,-5.2498,-5.2498,-5.2498,-5.2498,-5.2498,-5.2498,-5.2498,-5.2498,-5.2503,-5.2531,-5.2554,-5.2559,-5.2413,-5.2368,-5.2522,-5.253,-5.2644,-5.2721,-5.2783,-5.2828,-5.2912,-5.2955,-5.3042,-5.3085,-5.3127,-5.3127,-5.3167,-5.3148,-5.3133,-5.2711,-5.2435,-5.2197,-5.2123,-5.1848,-5.1518,-5.1114,-5.0602,-5.0068,-4.9444,-4.9132,-4.8783,-4.8471,-4.8434,-4.8416,-4.8361,-4.8324,-4.8324,-5.3118,-5.169,-5.169,-5.169,-5.169,-5.169,-5.169,-5.169,-5.169,-5.169,-5.169,-5.169,-5.169,-5.128,-5.0031,-4.8496,-4.7069,-4.6998,-4.6998,-4.6998,-4.6998,-4.6998,-4.6998,-4.6998,-4.6998,-4.6998,-4.6998,-4.6998,-4.6998,-4.6998,-4.6998,-4.6998,-4.6998,-4.6998,-4.6998,-4.6998,-4.6998,-4.6998,-4.6998,-4.6998,-4.6998,-4.6998,-4.7105,-4.7235,-4.7252,-4.7709,-4.8294,-4.874,-4.9371,-5.0211,-5.0838,-5.1293,-5.1952,-5.212,-5.212,-5.2186,-5.2364,-5.2475,-5.2498,-5.2498,-5.2498,-5.2498,-5.2498,-5.2498,-5.2498,-5.2498,-5.2498,-5.2498,-5.2498,-5.2498,-5.2498,-5.2498,-5.2498,-5.2498,-5.248,-5.2503,-5.2531,-5.2559,-5.2631,-5.2654,-5.2676,-5.2698,-5.2779,-5.2824,-5.285,-5.2872,-5.2893,-5.2977,-5.3039,-5.3039,-5.3103,-5.3164,-5.3185,-5.3185,-5.3185,-5.3185,-5.3167,-5.302,-5.2892,-5.2763,-5.2873,-5.2928,-5.2527,-5.2032,-5.1867,-5.1298,-5.0508,-4.9831,-4.9664,-4.9352,-4.8838,-4.8655,-4.8802,-4.8545,-4.8324,-5.31,-5.169,-5.169,-5.169,-5.169,-5.169,-5.169,-5.169,-5.169,-5.169,-5.169,-5.169,-5.1697,-5.1215,-5.0013,-4.8461,-4.7413,-4.702,-4.702,-4.702,-4.702,-4.7043,-4.702,-4.6998,-4.7025,-4.7048,-4.7025,-4.6998,-4.7002,-4.7002,-4.6998,-4.6998,-4.702,-4.6998,-4.6998,-4.702,-4.6998,-4.6998,-4.7015,-4.7051,-4.7069,-4.7105,-4.752,-4.7918,-4.815,-4.8342,-4.8806,-4.9316,-4.9895,-4.9758,-5.0444,-5.077,-5.0911,-5.0929,-5.0929,-5.1217,-5.1775,-5.2498,-5.2369,-5.2364,-5.2387,-5.2387,-5.2475,-5.2498,-5.2498,-5.2498,-5.2498,-5.2498,-5.2498,-5.2498,-5.2498,-5.2498,-5.2498,-5.2498,-5.2498,-5.2531,-5.2581,-5.2627,-5.2698,-5.285,-5.2872,-5.2828,-5.2868,-5.2934,-5.2959,-5.302,-5.3042,-5.3103,-5.3124,-5.3124,-5.3124,-5.3185,-5.3185,-5.3185,-5.3185,-5.3185,-5.3185,-5.3185,-5.3185,-5.3185,-5.3185,-5.3185,-5.3185,-5.2803,-5.2635,-5.2289,-5.1408,-5.0857,-5.0655,-5.0233,-4.9682,-4.9499,-4.9482,-4.9058,-4.8691,-5.3177,-5.1708,-5.169,-5.169,-5.169,-5.169,-5.169,-5.169,-5.169,-5.169,-5.1715,-5.1765,-5.1392,-5.0599,-4.9745,-4.8624,-4.742,-4.7129,-4.7129,-4.7111,-4.7111,-4.7133,-4.7183,-4.7165,-4.7165,-4.7143,-4.7165,-4.7187,-4.716,-4.7066,-4.6998,-4.702,-4.7066,-4.7066,-4.7114,-4.7106,-4.7066,-4.7168,-4.7413,-4.7663,-4.7783,-4.8068,-4.8466,-4.8876,-4.8698,-4.8954,-4.9415,-4.952,-4.9987,-5.0029,-5.061,-5.0662,-5.0707,-5.0707,-5.0707,-5.0751,-5.1121,-5.1414,-5.1465,-5.1811,-5.1975,-5.2114,-5.2275,-5.2498,-5.2498,-5.2498,-5.2498,-5.2498,-5.2498,-5.2498,-5.2498,-5.2498,-5.2498,-5.2498,-5.2503,-5.2554,-5.2627,-5.2717,-5.2783,-5.2915,-5.3042,-5.2999,-5.2995,-5.3039,-5.3082,-5.3103,-5.3124,-5.3164,-5.3164,-5.3164,-5.3164,-5.3185,-5.3185,-5.3185,-5.3185,-5.3185,-5.3185,-5.3185,-5.3185,-5.3185,-5.3185,-5.3185,-5.3185,-5.3185,-5.2983,-5.2561,-5.2068,-5.1738,-5.1408,-5.0967,-5.0527,-5.0398,-5.027,-5.0178,-4.9756,-5.3304,-5.1808,-5.1783,-5.174,-5.174,-5.174,-5.1765,-5.179,-5.1815,-5.179,-5.1815,-5.1835,-5.1108,-4.9975,-4.9616,-4.878,-4.7277,-4.7223,-4.7223,-4.7223,-4.7245,-4.7249,-4.7254,-4.7298,-4.7298,-4.732,-4.7276,-4.7419,-4.7577,-4.7487,-4.7379,-4.7106,-4.716,-4.7322,-4.7424,-4.7572,-4.7667,-4.7957,-4.8368,-4.8583,-4.8667,-4.9078,-4.9371,-4.9447,-4.9362,-4.9394,-4.9881,-4.9792,-4.9978,-4.999,-5.0129,-5.0107,-5.0135,-5.0107,-5.0107,-5.0107,-5.0276,-5.0276,-5.0525,-5.0867,-5.1329,-5.1719,-5.2096,-5.2498,-5.2498,-5.2498,-5.2498,-5.2498,-5.2498,-5.2498,-5.2498,-5.2498,-5.2498,-5.2503,-5.2526,-5.2559,-5.2631,-5.2761,-5.2872,-5.302,-5.3124,-5.3146,-5.3143,-5.3164,-5.3185,-5.3185,-5.3185,-5.3185,-5.3185,-5.3185,-5.3185,-5.3185,-5.3185,-5.3185,-5.3185,-5.3185,-5.3185,-5.3185,-5.3185,-5.3185,-5.3185,-5.3185,-5.3185,-5.3185,-5.3185,-5.302,-5.2598,-5.238,-5.2142,-5.1867,-5.1591,-5.1242,-5.1096,-5.1004,-5.0729,-5.3479,-5.206,-5.1956,-5.1882,-5.1882,-5.19,-5.1956,-5.2036,-5.2036,-5.2036,-5.2036,-5.2006,-5.1221,-5.0111,-4.9667,-4.8888,-4.7352,-4.7316,-4.7298,-4.7298,-4.7298,-4.732,-4.7359,-4.7435,-4.7449,-4.7467,-4.7687,-4.8047,-4.8277,-4.8457,-4.7981,-4.7423,-4.7711,-4.7909,-4.8156,-4.8385,-4.8677,-4.9031,-4.9444,-4.9534,-4.9546,-4.9733,-4.9853,-4.9998,-5.0014,-5.0004,-4.9769,-4.9717,-4.9573,-4.9376,-4.9376,-4.9376,-4.9436,-4.9406,-4.9419,-4.9419,-4.9389,-4.9436,-4.9598,-5.0248,-5.0982,-5.1551,-5.2,-5.2275,-5.2322,-5.2434,-5.2475,-5.2457,-5.2498,-5.2498,-5.2498,-5.2498,-5.2498,-5.2521,-5.2549,-5.2604,-5.2717,-5.2828,-5.2955,-5.3124,-5.3185,-5.3185,-5.3185,-5.3185,-5.3185,-5.3185,-5.3185,-5.3185,-5.3185,-5.3185,-5.3185,-5.3185,-5.3185,-5.3185,-5.3185,-5.3185,-5.3185,-5.3185,-5.3185,-5.3185,-5.3185,-5.3185,-5.3185,-5.3185,-5.3185,-5.3185,-5.3167,-5.2855,-5.2711,-5.2803,-5.2619,-5.2142,-5.1701,-5.1481,-5.1224,-5.3621,-5.2216,-5.2168,-5.212,-5.2047,-5.2029,-5.2054,-5.2102,-5.2084,-5.215,-5.2222,-5.2168,-5.1656,-5.0764,-5.0046,-4.9316,-4.8185,-4.7609,-4.7501,-4.7428,-4.7428,-4.7472,-4.7619,-4.8002,-4.8309,-4.8363,-4.8688,-4.9089,-4.9472,-4.9464,-4.9378,-4.9089,-4.8933,-4.8987,-4.9235,-4.932,-4.9554,-4.9783,-5.0196,-5.043,-5.0467,-5.0573,-5.0695,-5.0832,-5.0031,-4.9941,-4.9768,-4.9466,-4.926,-4.9094,-4.9001,-4.9018,-4.9018,-4.9018,-4.9018,-4.9018,-4.9018,-4.9018,-4.9124,-4.9739,-5.0432,-5.0929,-5.1286,-5.1558,-5.1909,-5.1933,-5.2186,-5.2322,-5.2457,-5.241,-5.2498,-5.2498,-5.2498,-5.2521,-5.2572,-5.2627,-5.2739,-5.2872,-5.2999,-5.3164,-5.3185,-5.3185,-5.3185,-5.3185,-5.3185,-5.3185,-5.3185,-5.3185,-5.3185,-5.3185,-5.3185,-5.3185,-5.3185,-5.3185,-5.3185,-5.3185,-5.3185,-5.3185,-5.3185,-5.3185,-5.3185,-5.3185,-5.3185,-5.3185,-5.3185,-5.3185,-5.3185,-5.3185,-5.313,-5.3038,-5.2983,-5.2837,-5.2435,-5.1995,-5.1775,-5.3568,-5.2412,-5.2358,-5.2269,-5.2174,-5.215,-5.2156,-5.2222,-5.2222,-5.2287,-5.2358,-5.2322,-5.1953,-5.1249,-5.0452,-4.9593,-4.8677,-4.7987,-4.7662,-4.7554,-4.7575,-4.7781,-4.8167,-4.8547,-4.8905,-4.9293,-4.9727,-5.0108,-5.0429,-5.0452,-5.0597,-5.0697,-5.071,-5.0565,-5.0267,-5.0438,-5.0528,-5.0708,-5.0996,-5.1233,-5.1185,-5.1194,-5.0947,-5.0885,-5.0118,-4.9722,-4.9538,-4.9243,-4.9094,-4.9032,-4.9018,-4.9018,-4.9018,-4.9018,-4.9018,-4.9018,-4.9018,-4.9018,-4.9138,-4.9538,-5.0028,-5.0432,-5.0724,-5.0982,-5.1209,-5.1337,-5.1558,-5.2072,-5.2186,-5.2298,-5.241,-5.2498,-5.2498,-5.2521,-5.2554,-5.2627,-5.2761,-5.289,-5.3039,-5.3164,-5.3185,-5.3185,-5.3185,-5.3185,-5.3185,-5.3185,-5.3185,-5.3185,-5.3185,-5.3185,-5.3185,-5.3185,-5.3185,-5.3185,-5.3185,-5.3185,-5.3185,-5.3185,-5.3185,-5.3185,-5.3185,-5.3185,-5.3185,-5.3185,-5.3185,-5.3185,-5.3185,-5.3185,-5.3185,-5.3185,-5.3112,-5.3038,-5.2986,-5.2582,-5.2491,-5.3259,-5.2534,-5.2498,-5.2405,-5.2311,-5.2287,-5.2358,-5.2452,-5.2452,-5.2475,-5.2475,-5.2457,-5.2077,-5.1303,-5.056,-4.9705,-4.9014,-4.82,-4.7802,-4.7856,-4.8091,-4.833,-4.8728,-4.9184,-4.9655,-4.9963,-5.042,-5.0891,-5.1267,-5.1285,-5.1647,-5.1991,-5.1932,-5.1805,-5.1375,-5.2027,-5.2389,-5.2384,-5.2348,-5.2018,-5.1716,-5.1522,-5.0947,-5.0449,-4.9919,-4.9513,-4.9229,-4.9107,-4.9018,-4.9018,-4.9018,-4.9018,-4.9018,-4.9018,-4.9018,-4.9018,-4.9018,-4.9018,-4.9063,-4.9585,-4.9803,-4.9902,-5.0153,-5.0497,-5.067,-5.0787,-5.1087,-5.1743,-5.186,-5.2048,-5.2275,-5.2498,-5.2498,-5.2503,-5.2554,-5.2627,-5.2739,-5.2868,-5.2995,-5.3143,-5.3185,-5.3185,-5.3185,-5.3185,-5.3185,-5.3185,-5.3185,-5.3185,-5.3185,-5.3185,-5.3185,-5.3185,-5.3185,-5.3185,-5.3185,-5.3185,-5.3185,-5.3185,-5.3185,-5.3185,-5.3185,-5.3185,-5.3185,-5.3185,-5.3185,-5.3185,-5.3185,-5.3185,-5.3185,-5.3185,-5.3185,-5.3148,-5.3167,-5.3133,-5.2949,-5.3222,-5.2516,-5.2498,-5.2475,-5.2428,-5.2428,-5.2475,-5.2498,-5.2498,-5.2498,-5.2498,-5.2498,-5.2389,-5.1756,-5.076,-4.9963,-4.9619,-4.8891,-4.8493,-4.8529,-4.8931,-4.9365,-4.9745,-5.0144,-5.056,-5.0959,-5.1321,-5.1647,-5.2082,-5.2009,-5.2136,-5.2462,-5.248,-5.2353,-5.219,-5.2426,-5.248,-5.248,-5.2457,-5.2345,-5.2114,-5.1457,-5.0849,-5.0359,-4.9727,-4.932,-4.9094,-4.9094,-4.9124,-4.9107,-4.9138,-4.9094,-4.9063,-4.9032,-4.9018,-4.9018,-4.9018,-4.9018,-4.9032,-4.9229,-4.929,-4.9436,-4.9555,-4.9884,-5.0067,-5.0535,-5.0982,-5.1475,-5.1768,-5.2072,-5.2457,-5.2498,-5.2498,-5.2498,-5.2549,-5.2622,-5.2717,-5.2783,-5.2912,-5.3082,-5.3185,-5.3185,-5.3185,-5.3185,-5.3185,-5.3185,-5.3185,-5.3185,-5.3185,-5.3185,-5.3185,-5.3185,-5.3185,-5.3185,-5.3185,-5.3185,-5.3185,-5.3185,-5.3185,-5.3185,-5.3185,-5.3185,-5.3185,-5.3185,-5.3185,-5.3185,-5.3185,-5.3185,-5.3185,-5.3185,-5.3185,-5.3185,-5.3185,-5.3167,-5.313,-5.2969,-5.2516,-5.2498,-5.2498,-5.2498,-5.2498,-5.2498,-5.2498,-5.2498,-5.2498,-5.2498,-5.2498,-5.248,-5.2082,-5.123,-5.0528,-5.0416,-4.9709,-4.9329,-4.9383,-4.98,-5.0162,-5.0578,-5.1031,-5.1303,-5.1737,-5.2118,-5.2462,-5.2408,-5.2462,-5.248,-5.248,-5.2498,-5.2462,-5.2444,-5.248,-5.2498,-5.2498,-5.2475,-5.2345,-5.2,-5.1457,-5.0849,-5.0304,-4.9815,-4.9364,-4.9333,-4.9333,-4.9376,-4.9436,-4.9406,-4.932,-4.926,-4.9107,-4.9063,-4.9018,-4.9018,-4.9124,-4.9273,-4.9364,-4.9555,-4.9768,-4.9303,-4.9199,-4.9526,-4.9826,-5.0321,-5.0884,-5.1576,-5.1957,-5.2162,-5.2186,-5.2457,-5.2457,-5.2531,-5.2627,-5.2739,-5.2806,-5.2934,-5.3103,-5.3185,-5.3185,-5.3185,-5.3185,-5.3185,-5.3185,-5.3185,-5.3185,-5.3185,-5.3185,-5.3185,-5.3185,-5.3185,-5.3185,-5.3185,-5.3185,-5.3185,-5.3185,-5.3185,-5.3185,-5.3185,-5.3185,-5.3185,-5.3185,-5.3185,-5.3185,-5.3185,-5.3185,-5.3185,-5.3185,-5.3185,-5.3185,-5.3185,-5.3185,-5.3185,-5.2498,-5.2498,-5.2498,-5.2498,-5.2498,-5.2498,-5.2498,-5.2498,-5.2498,-5.2498,-5.2498,-5.2498,-5.2498,-5.2335,-5.1593,-5.1212,-5.1086,-5.0438,-5.0238,-5.0216,-5.0488,-5.0873,-5.118,-5.1448,-5.181,-5.2226,-5.2498,-5.2498,-5.2498,-5.2498,-5.2498,-5.2498,-5.2498,-5.2498,-5.2498,-5.2498,-5.2498,-5.2498,-5.2475,-5.2298,-5.1975,-5.1644,-5.1052,-5.0542,-5.0085,-4.993,-4.9873,-4.9832,-5.0028,-5.0096,-5.0028,-4.989,-4.9644,-4.932,-4.9124,-4.9018,-4.9018,-4.9273,-4.9555,-4.9615,-4.9959,-5.0039,-4.9568,-4.9212,-4.9199,-4.9466,-4.9861,-5.0254,-5.0786,-5.1226,-5.1551,-5.1975,-5.2387,-5.2462,-5.2559,-5.2672,-5.2783,-5.289,-5.3039,-5.3124,-5.3185,-5.3185,-5.3185,-5.3185,-5.3185,-5.3185,-5.3185,-5.3185,-5.3185,-5.3185,-5.3185,-5.3185,-5.3185,-5.3185,-5.3185,-5.3185,-5.3185,-5.3185,-5.3185,-5.3185,-5.3185,-5.3185,-5.3185,-5.3185,-5.3185,-5.3185,-5.3185,-5.3185,-5.3185,-5.3185,-5.3185,-5.3185,-5.3185,-5.3185,-5.3185,-5.2498,-5.2498,-5.2498,-5.2498,-5.2498,-5.2498,-5.2498,-5.2498,-5.2498,-5.2498,-5.2498,-5.2498,-5.2498,-5.2408,-5.1665,-5.1393,-5.123,-5.1104,-5.1017,-5.1108,-5.1357,-5.1828,-5.2027,-5.2082,-5.2317,-5.2389,-5.2498,-5.2498,-5.2498,-5.2498,-5.2498,-5.2498,-5.2498,-5.2498,-5.2498,-5.2498,-5.2498,-5.2498,-5.2498,-5.2345,-5.2114,-5.186,-5.1373,-5.1044,-5.0624,-5.0542,-5.046,-5.0113,-5.0153,-5.0085,-4.9598,-4.9303,-4.9229,-4.9094,-4.9018,-4.9018,-4.9032,-4.9124,-4.9303,-4.9656,-5.0102,-5.031,-4.9902,-4.9744,-4.9644,-4.9644,-4.9703,-4.9959,-5.0293,-5.0813,-5.1304,-5.1743,-5.2186,-5.2439,-5.2559,-5.2694,-5.2806,-5.2934,-5.3082,-5.3164,-5.3185,-5.3185,-5.3185,-5.3185,-5.3185,-5.3185,-5.3185,-5.3185,-5.3185,-5.3185,-5.3185,-5.3185,-5.3185,-5.3185,-5.3185,-5.3185,-5.3185,-5.3185,-5.3185,-5.3185,-5.3185,-5.3185,-5.3185,-5.3185,-5.3185,-5.3185,-5.3185,-5.3185,-5.3185,-5.3185,-5.3185,-5.3185,-5.3185,-5.3185,-5.3185,-5.2498,-5.2498,-5.2498,-5.2498,-5.2498,-5.2498,-5.2498,-5.2498,-5.2498,-5.2498,-5.2498,-5.2498,-5.2498,-5.2444,-5.2027,-5.181,-5.1792,-5.181,-5.1774,-5.19,-5.2245,-5.2335,-5.248,-5.2498,-5.2462,-5.2498,-5.2498,-5.2498,-5.2498,-5.2498,-5.2498,-5.2498,-5.2498,-5.2498,-5.2498,-5.2498,-5.2498,-5.2498,-5.2498,-5.2498,-5.2322,-5.2114,-5.1909,-5.1576,-5.1183,-5.1105,-5.0982,-5.0515,-5.0321,-5.0338,-4.9873,-4.9364,-4.9273,-4.9199,-4.9001,-4.9018,-4.9001,-4.9346,-4.9756,-5.0085,-5.0449,-5.0714,-5.0659,-5.0614,-5.0198,-4.9988,-4.9861,-4.9873,-5.0209,-5.057,-5.1026,-5.15,-5.1975,-5.2434,-5.2577,-5.2717,-5.285,-5.2977,-5.3082,-5.3164,-5.3185,-5.3185,-5.3185,-5.3185,-5.3185,-5.3185,-5.3185,-5.3185,-5.3185,-5.3185,-5.3185,-5.3185,-5.3185,-5.3185,-5.3185,-5.3185,-5.3185,-5.3185,-5.3185,-5.3185,-5.3185,-5.3185,-5.3185,-5.3185,-5.3185,-5.3185,-5.3185,-5.3185,-5.3185,-5.3185,-5.3185,-5.3185,-5.3185,-5.3185,-5.3185,-5.2498,-5.2498,-5.2498,-5.2498,-5.2498,-5.2498,-5.2498,-5.2498,-5.2498,-5.2498,-5.2498,-5.2498,-5.2498,-5.248,-5.2335,-5.2335,-5.2299,-5.2299,-5.2281,-5.2462,-5.2426,-5.2498,-5.2498,-5.2498,-5.2498,-5.2498,-5.2498,-5.2498,-5.2498,-5.2498,-5.2498,-5.2498,-5.2498,-5.2498,-5.2498,-5.2498,-5.2498,-5.2498,-5.2498,-5.2498,-5.2498,-5.2387,-5.2251,-5.1835,-5.1694,-5.1626,-5.15,-5.1235,-5.0938,-5.0947,-5.0532,-4.9744,-4.9496,-4.9273,-4.9063,-4.9094,-4.9138,-4.9568,-5.0124,-5.0552,-5.1252,-5.1626,-5.1909,-5.1576,-5.107,-5.031,-5.0056,-5.0085,-5.0387,-5.0706,-5.1148,-5.15,-5.1909,-5.2351,-5.2645,-5.2761,-5.2872,-5.302,-5.3143,-5.3185,-5.3185,-5.3185,-5.3185,-5.3185,-5.3185,-5.3185,-5.3185,-5.3185,-5.3185,-5.3185,-5.3185,-5.3185,-5.3185,-5.3185,-5.3185,-5.3185,-5.3185,-5.3185,-5.3185,-5.3185,-5.3185,-5.3185,-5.3185,-5.3185,-5.3185,-5.3185,-5.3185,-5.3185,-5.3185,-5.3185,-5.3185,-5.3185,-5.3185,-5.3185,-5.3185,-5.2498,-5.2498,-5.2498,-5.2498,-5.2498,-5.2498,-5.2498,-5.2498,-5.2498,-5.2498,-5.2498,-5.2498,-5.2498,-5.2498,-5.2498,-5.2498,-5.2498,-5.2498,-5.2498,-5.248,-5.2498,-5.2498,-5.2498,-5.2498,-5.2498,-5.2498,-5.2498,-5.2498,-5.2498,-5.2498,-5.2498,-5.2498,-5.2498,-5.2498,-5.2498,-5.2498,-5.2498,-5.2498,-5.2498,-5.2498,-5.2498,-5.2498,-5.2364,-5.2251,-5.2251,-5.2162,-5.1884,-5.1243,-5.0938,-5.0715,-4.9786,-4.9303,-4.9168,-4.9046,-4.9001,-4.9094,-4.9364,-4.9756,-5.0226,-5.0786,-5.1381,-5.1626,-5.1793,-5.1957,-5.1651,-5.0796,-5.0387,-5.0497,-5.0607,-5.0893,-5.12,-5.15,-5.1842,-5.2291,-5.2712,-5.2806,-5.2915,-5.3042,-5.3185,-5.3185,-5.3185,-5.3185,-5.3185,-5.3185,-5.3185,-5.3185,-5.3185,-5.3185,-5.3185,-5.3185,-5.3185,-5.3185,-5.3185,-5.3185,-5.3185,-5.3185,-5.3185,-5.3185,-5.3185,-5.3185,-5.3185,-5.3185,-5.3185,-5.3185,-5.3185,-5.3185,-5.3185,-5.3185,-5.3185,-5.3185,-5.3185,-5.3185,-5.3185,-5.3185,-5.3185,-5.2498,-5.2498,-5.2498,-5.2498,-5.2498,-5.2498,-5.2498,-5.2498,-5.2498,-5.2498,-5.2498,-5.2498,-5.2498,-5.2498,-5.2498,-5.2498,-5.2498,-5.2498,-5.2498,-5.2498,-5.2498,-5.2498,-5.2498,-5.2498,-5.2498,-5.2498,-5.2498,-5.2498,-5.2552,-5.2498,-5.2498,-5.2498,-5.2498,-5.2498,-5.2498,-5.2498,-5.2498,-5.2498,-5.2498,-5.2498,-5.2498,-5.2498,-5.2498,-5.2498,-5.2498,-5.241,-5.186,-5.1183,-5.0715,-5.0248,-4.9449,-4.9138,-4.9063,-4.9032,-4.9001,-4.9063,-4.9303,-4.9727,-5.0209,-5.0706,-5.1347,-5.1644,-5.1626,-5.1842,-5.2298,-5.1551,-5.1278,-5.1278,-5.0697,-5.0876,-5.1278,-5.1619,-5.197,-5.2408,-5.2694,-5.285,-5.2999,-5.3124,-5.3185,-5.3185,-5.3185,-5.3185,-5.3185,-5.3185,-5.3185,-5.3185,-5.3185,-5.3185,-5.3185,-5.3185,-5.3185,-5.3185,-5.3185,-5.3185,-5.3185,-5.3185,-5.3185,-5.3185,-5.3185,-5.3185,-5.3185,-5.3185,-5.3185,-5.3185,-5.3185,-5.3185,-5.3185,-5.3185,-5.3185,-5.3185,-5.3185,-5.3185,-5.3185,-5.3185,-5.3185,-5.2498,-5.2498,-5.2498,-5.2498,-5.2498,-5.2498,-5.2498,-5.2498,-5.2498,-5.2498,-5.2498,-5.2498,-5.2498,-5.2498,-5.2498,-5.2498,-5.2498,-5.2498,-5.2498,-5.2498,-5.2498,-5.2498,-5.2498,-5.2498,-5.2607,-5.2733,-5.2788,-5.2788,-5.2788,-5.2788,-5.277,-5.257,-5.2498,-5.2498,-5.2498,-5.2498,-5.2498,-5.2498,-5.2498,-5.2498,-5.2498,-5.2498,-5.2498,-5.2498,-5.2434,-5.2168,-5.1626,-5.1052,-5.0487,-4.9913,-4.9376,-4.9107,-4.9018,-4.9018,-4.9018,-4.9094,-4.9436,-4.9953,-5.0415,-5.057,-5.1347,-5.186,-5.1719,-5.186,-5.2317,-5.2364,-5.2072,-5.1768,-5.1191,-5.1113,-5.1551,-5.1835,-5.2197,-5.2499,-5.2698,-5.2912,-5.306,-5.3185,-5.3185,-5.3185,-5.3185,-5.3185,-5.3185,-5.3185,-5.3185,-5.3185,-5.3185,-5.3185,-5.3185,-5.3185,-5.3185,-5.3185,-5.3185,-5.3185,-5.3185,-5.3185,-5.3185,-5.3185,-5.3185,-5.3185,-5.3185,-5.3185,-5.3185,-5.3185,-5.3185,-5.3185,-5.3185,-5.3185,-5.3185,-5.3185,-5.3185,-5.3185,-5.3185,-5.3185,-5.3185,-5.2498,-5.2498,-5.2498,-5.2498,-5.2498,-5.2498,-5.2498,-5.2498,-5.2498,-5.2498,-5.2498,-5.2498,-5.2498,-5.2498,-5.2498,-5.2498,-5.2498,-5.2498,-5.2498,-5.2498,-5.2498,-5.2498,-5.2498,-5.2516,-5.2915,-5.3168,-5.3349,-5.344,-5.3458,-5.344,-5.315,-5.2715,-5.2607,-5.2589,-5.257,-5.2625,-5.277,-5.2806,-5.2788,-5.2788,-5.2679,-5.2625,-5.2498,-5.2498,-5.2498,-5.2096,-5.1626,-5.1008,-5.0442,-4.9902,-4.9376,-4.9138,-4.9018,-4.9018,-4.9018,-4.9182,-4.9551,-5.0163,-5.0552,-5.0796,-5.1551,-5.2186,-5.2048,-5.1884,-5.2251,-5.2498,-5.2322,-5.2322,-5.1957,-5.1957,-5.2228,-5.2228,-5.2462,-5.2694,-5.2912,-5.3039,-5.3164,-5.3185,-5.3185,-5.3185,-5.3185,-5.3185,-5.3185,-5.3185,-5.3185,-5.3185,-5.3185,-5.3185,-5.3185,-5.3185,-5.3185,-5.3185,-5.3185,-5.3185,-5.3185,-5.3185,-5.3185,-5.3185,-5.3185,-5.3185,-5.3185,-5.3185,-5.3185,-5.3185,-5.3185,-5.3185,-5.3185,-5.3185,-5.3185,-5.3185,-5.3185,-5.3185,-5.3185,-5.3185,-5.3185]},{"header":{"parameterUnit":"m.s-1","parameterCategory":1,"la1":31.0,"la2":29.5877,"lo1":-88.7671,"lo2":-86.6584,"dy":0.0162,"dx":0.0185,"nx":115,"ny":88,"refTime":"2023-03-22T12:00:00:Z","depth":0,"parameterNumber":3,"parameterNumberName":"V-component_of_WINDS"},"data":[0.0,0.0,0.0,0.0,0.0,0.0,0.0,0.0,0.0,0.0,0.0,0.0,0.0,0.0,0.0,0.0,0.0,0.0,0.0,0.0,0.0,0.0,0.0,0.0,0.0,0.0,0.0,0.0,0.0,0.0,0.0,0.0,0.0,0.0,0.0,0.0,0.0,0.0,0.0,0.0,0.0,0.0,0.0,0.0,0.0,0.0,0.0,0.0,0.0,0.0,0.0,0.0,0.0,0.0,0.0,0.0,0.0,0.0,0.0,0.0,0.0,0.0,0.0,0.0,0.0,0.0,0.0,0.0,0.0,0.0,0.0,0.0,0.0,0.0,0.0,0.0,0.0,0.0,0.0,0.0,0.0,0.0,0.0,0.0,0.0,0.0,0.0,0.0,0.0,0.0,0.0,0.0,0.0,0.0,0.0,0.0,0.0,0.0,0.0,0.0,0.0,0.0,0.0,0.0,0.0,0.0,0.0,0.0,0.0,0.0,0.0,0.0,0.0,0.0,0.0,0.0,0.0,0.0,0.0,0.0,0.0,0.0,0.0,0.0,0.0,0.0,0.0,0.0,0.0,0.0,0.0,0.0,0.0,0.0,0.0,0.0,0.0,0.0,0.0,0.0,0.0,0.0,0.0,0.0,0.0,0.0,0.0,0.0,0.0,0.0,0.0,0.0,0.0,0.0,0.0,0.0,0.0,0.0,0.0,0.0,0.0,0.0,0.0,0.0,0.0,0.0,0.0,0.0,0.0,0.0,0.0,0.0,0.0,0.0,0.0,0.0,0.0,0.0,0.0,0.0,0.0,0.0,0.0,0.0,0.0,0.0,0.0,0.0,0.0,0.0,0.0,0.0,0.0,0.0,0.0,0.0,0.0,0.0,0.0,0.0,0.0,0.0,0.0,0.0,0.0,0.0,0.0,0.0,0.0,0.0,0.0,0.0,0.0,0.0,0.0,0.0,0.0,0.0,0.0,0.0,0.0,0.0,0.0,0.0,0.0,0.0,0.0,0.0,0.0,0.0,0.0,0.0,0.0,0.0,0.0,0.0,0.0,0.0,0.0,0.0,0.0,0.0,0.0,0.0,0.0,0.0,0.0,0.0,0.0,0.0,0.0,0.0,0.0,0.0,0.0,0.0,0.0,0.0,0.0,0.0,0.0,0.0,0.0,0.0,0.0,0.0,0.0,0.0,0.0,0.0,0.0,0.0,0.0,0.0,0.0,0.0,0.0,0.0,0.0,0.0,0.0,0.0,0.0,0.0,0.0,0.0,0.0,0.0,0.0,0.0,0.0,0.0,0.0,0.0,0.0,0.0,0.0,0.0,0.0,0.0,0.0,0.0,0.0,0.0,0.0,0.0,0.0,0.0,0.0,0.0,0.0,0.0,0.0,0.0,0.0,0.0,0.0,0.0,0.0,0.0,0.0,0.0,0.0,0.0,0.0,0.0,0.0,0.0,0.0,0.0,0.0,0.0,0.0,0.0,0.0,0.0,0.0,0.0,0.0,0.0,0.0,0.0,0.0,0.0,0.0,0.0,0.0,0.0,0.0,0.0,0.0,0.0,0.0,0.0,0.0,0.0,0.0,0.0,0.0,0.0,0.0,0.0,0.0,0.0,0.0,0.0,0.0,0.0,0.0,0.0,0.0,0.0,0.0,0.0,0.0,0.0,0.0,0.0,0.0,0.0,0.0,0.0,0.0,0.0,0.0,0.0,0.0,0.0,0.0,0.0,0.0,0.0,0.0,0.0,0.0,0.0,0.0,0.0,0.0,0.0,0.0,0.0,0.0,0.0,0.0,0.0,0.0,0.0,0.0,0.0,0.0,0.0,0.0,0.0,0.0,0.0,0.0,0.0,0.0,0.0,0.0,0.0,0.0,0.0,0.0,0.0,0.0,0.0,0.0,0.0,0.0,0.0,0.0,0.0,0.0,0.0,0.0,0.0,0.0,0.0,0.0,0.0,0.0,0.0,0.0,0.0,0.0,0.0,0.0,0.0,0.0,0.0,0.0,0.0,0.0,0.0,0.0,0.0,0.0,0.0,0.0,0.0,0.0,0.0,0.0,0.0,0.0,0.0,0.0,0.0,0.0,0.0,0.0,0.0,0.0,0.0,0.0,0.0,0.0,0.0,0.0,0.0,0.0,0.0,0.0,0.0,0.0,0.0,0.0,0.0,0.0,0.0,0.0,0.0,0.0,0.0,0.0,0.0,0.0,0.0,0.0,0.0,0.0,0.0,0.0,0.0,0.0,0.0,0.0,0.0,0.0,0.0,0.0,0.0,0.0,0.0,0.0,0.0,0.0,0.0,0.0,0.0,0.0,0.0,0.0,0.0,0.0,0.0,0.0,0.0,0.0,0.0,0.0,0.0,0.0,0.0,0.0,0.0,0.0,0.0,0.0,0.0,0.0,0.0,0.0,0.0,0.0,0.0,0.0,0.0,0.0,0.0,0.0,0.0,0.0,0.0,0.0,0.0,0.0,0.0,0.0,0.0,0.0,0.0,0.0,0.0,0.0,0.0,0.0,0.0,0.0,0.0,0.0,0.0,0.0,0.0,0.0,0.0,0.0,0.0,0.0,0.0,0.0,0.0,0.0,0.0,0.0,0.0,0.0,0.0,0.0,0.0,0.0,0.0,0.0,0.0,0.0,0.0,0.0,0.0,0.0,0.0,0.0,0.0,0.0,0.0,0.0,0.0,0.0,0.0,0.0,0.0,0.0,0.0,0.0,0.0,0.0,0.0,0.0,0.0,0.0,0.0,0.0,0.0,0.0,0.0,0.0,0.0,0.0,0.0,0.0,0.0,0.0,0.0,0.0,0.0,0.0,0.0,0.0,0.0,0.0,0.0,0.0,0.0,0.0,0.0,0.0,0.0,0.0,0.0,0.0,0.0,0.0,0.0,0.0,0.0,0.0,0.0,0.0,0.0,0.0,0.0,0.0,0.0,0.0,0.0,0.0,0.0,0.0,0.0,0.0,0.0,0.0,0.0,0.0,0.0,0.0,0.0,0.0,0.0,0.0,0.0,0.0,0.0,0.0,0.0,0.0,0.0,0.0,0.0,0.0,0.0,0.0,0.0,0.0,0.0,0.0,0.0,0.0,0.0,0.0,0.0,0.0,0.0,0.0,0.0,0.0,0.0,0.0,0.0,0.0,0.0,0.0,0.0,0.0,0.0,0.0,0.0,0.0,0.0,0.0,0.0,0.0,0.0,0.0,0.0,0.0,0.0,0.0,0.0,0.0,0.0,0.0,0.0,0.0,0.0,0.0,0.0,0.0,0.0,0.0,0.0,0.0,0.0,0.0,0.0,0.0,0.0,0.0,0.0,0.0,0.0,0.0,0.0,0.0,0.0,0.0,0.0,0.0,0.0,0.0,0.0,0.0,0.0,0.0,0.0,0.0,0.0,0.0,0.0,0.0,0.0,0.0,0.0,0.0,0.0,0.0,0.0,0.0,0.0,0.0,0.0,0.0,0.0,0.0,0.0,0.0,0.0,0.0,0.0,0.0,0.0,0.0,0.0,0.0,0.0,0.0,0.0,0.0,0.0,0.0,0.0,0.0,0.0,0.0,0.0,0.0,0.0,0.0,0.0,0.0,0.0,0.0,0.0,0.0,0.0,0.0,0.0,0.0,0.0,0.0,0.0,0.0,0.0,0.0,0.0,0.0,0.0,0.0,0.0,0.0,0.0,0.0,0.0,0.0,0.0,0.0,0.0,0.0,0.0,0.0,0.0,0.0,0.0,0.0,0.0,0.0,0.0,0.0,0.0,0.0,0.0,0.0,0.0,0.0,0.0,0.0,0.0,0.0,0.0,0.0,0.0,0.0,0.0,0.0,0.0,0.0,0.0,0.0,0.0,0.0,0.0,0.0,0.0,0.0,0.0,0.0,0.0,0.0,0.0,0.0,0.0,0.0,0.0,0.0,0.0,0.0,0.0,0.0,0.0,0.0,0.0,0.0,0.0,0.0,0.0,0.0,0.0,0.0,0.0,0.0,0.0,0.0,0.0,0.0,0.0,0.0,0.0,0.0,0.0,0.0,0.0,0.0,0.0,0.0,0.0,0.0,0.0,0.0,0.0,0.0,0.0,0.0,0.0,0.0,0.0,0.0,0.0,0.0,0.0,0.0,0.0,0.0,0.0,0.0,0.0,0.0,0.0,0.0,0.0,0.0,0.0,0.0,0.0,0.0,0.0,0.0,0.0,0.0,0.0,0.0,0.0,0.0,0.0,0.0,0.0,0.0,0.0,0.0,0.0,0.0,0.0,0.0,0.0,0.0,0.0,0.0,0.0,0.0,0.0,0.0,0.0,0.0,0.0,0.0,0.0,0.0,0.0,0.0,0.0,0.0,0.0,0.0,0.0,0.0,0.0,0.0,0.0,0.0,0.0,0.0,0.0,0.0,0.0,0.0,0.0,0.0,0.0,0.0,0.0,0.0,0.0,0.0,0.0,0.0,0.0,0.0,0.0,0.0,0.0,0.0,0.0,0.0,0.0,0.0,0.0,0.0,0.0,0.0,0.0,0.0,0.0,0.0,0.0,0.0,0.0,0.0,0.0,0.0,0.0,0.0,0.0,0.0,0.0,0.0,0.0,0.0,0.0,0.0,0.0,0.0,0.0,0.0,0.0,0.0,0.0,0.0,0.0,0.0,0.0,0.0,0.0,0.0,0.0,0.0,0.0,0.0,0.0,0.0,0.0,0.0,0.0,0.0,0.0,0.0,0.0,0.0,0.0,0.0,0.0,0.0,0.0,0.0,0.0,0.0,0.0,0.0,0.0,0.0,0.0,0.0,0.0,0.0,0.0,0.0,0.0,0.0,0.0,0.0,0.0,0.0,0.0,0.0,0.0,0.0,0.0,0.0,0.0,0.0,0.0,0.0,0.0,0.0,0.0,0.0,0.0,0.0,0.0,0.0,0.0,0.0,0.0,0.0,0.0,0.0,0.0,0.0,0.0,0.0,0.0,0.0,0.0,0.0,0.0,0.0,0.0,0.0,0.0,0.0,0.0,0.0,0.0,0.0,0.0,0.0,0.0,0.0,0.0,0.0,0.0,0.0,0.0,0.0,0.0,0.0,0.0,0.0,0.0,0.0,0.0,0.0,0.0,0.0,0.0,0.0,0.0,0.0,0.0,0.0,0.0,0.0,0.0,0.0,0.0,0.0,0.0,0.0,0.0,0.0,0.0,0.0,0.0,0.0,0.0,0.0,0.0,0.0,0.0,0.0,0.0,0.0,0.0,0.0,0.0,0.0,0.0,0.0,0.0,0.0,0.0,0.0,0.0,0.0,0.0,0.0,0.0,0.0,0.0,0.0,0.0,0.0,0.0,0.0,0.0,0.0,0.0,0.0,0.0,0.0,0.0,0.0,0.0,0.0,0.0,0.0,0.0,0.0,0.0,0.0,0.0,0.0,0.0,0.0,0.0,0.0,0.0,0.0,0.0,0.0,0.0,0.0,0.0,0.0,0.0,0.0,0.0,0.0,0.0,0.0,0.0,0.0,0.0,0.0,0.0,0.0,0.0,0.0,0.0,0.0,0.0,0.0,0.0,0.0,0.0,0.0,0.0,0.0,0.0,0.0,0.0,0.0,0.0,0.0,0.0,0.0,0.0,0.0,0.0,0.0,0.0,0.0,0.0,0.0,0.0,0.0,0.0,0.0,0.0,0.0,0.0,0.0,0.0,0.0,0.0,0.0,0.0,0.0,0.0,0.0,0.0,0.0,0.0,0.0,0.0,0.0,0.0,0.0,0.0,0.0,0.0,0.0,0.0,0.0,0.0,0.0,0.0,0.0,0.0,0.0,0.0,0.0,0.0,0.0,0.0,0.0,0.0,0.0,0.0,0.0,0.0,0.0,0.0,0.0,0.0,0.0,0.0,0.0,0.0,0.0,0.0,0.0,0.0,0.0,0.0,0.0,0.0,0.0,0.0,0.0,0.0,0.0,0.0,0.0,0.0,0.0,0.0,0.0,0.0,0.0,0.0,0.0,0.0,0.0,0.0,0.0,0.0,0.0,0.0,0.0,0.0,0.0,0.0,0.0,0.0,0.0,0.0,0.0,0.0,0.0,0.0,0.0,0.0,0.0,0.0,0.0,0.0,0.0,0.0,0.0,0.0,0.0,0.0,0.0,0.0,0.0,0.0,0.0,0.0,0.0,0.0,0.0,0.0,0.0,0.0,0.0,0.0,0.0,0.0,0.0,0.0,0.0,0.0,0.0,0.0,0.0,0.0,0.0,0.0,0.0,0.0,0.0,0.0,0.0,0.0,0.0,0.0,0.0,0.0,0.0,0.0,0.0,0.0,0.0,0.0,0.0,0.0,0.0,0.0,0.0,0.0,0.0,0.0,0.0,0.0,0.0,0.0,0.0,0.0,0.0,0.0,0.0,0.0,0.0,0.0,0.0,0.0,0.0,0.0,0.0,0.0,0.0,0.0,0.0,0.0,0.0,0.0,0.0,0.0,0.0,0.0,0.0,0.0,0.0,0.0,0.0,0.0,0.0,0.0,0.0,0.0,0.0,0.0,0.0,0.0,0.0,0.0,0.0,0.0,0.0,0.0,0.0,0.0,0.0,0.0,0.0,0.0,0.0,0.0,0.0,0.0,0.0,0.0,0.0,0.0,0.0,0.0,0.0,0.0,0.0,0.0,0.0,0.0,0.0,0.0,0.0,0.0,0.0,0.0,0.0,0.0,0.0,0.0,0.0,0.0,0.0,0.0,0.0,0.0,0.0,0.0,0.0,0.0,0.0,0.0,0.0,0.0,0.0,0.0,0.0,0.0,0.0,0.0,0.0,0.0,0.0,0.0,0.0,0.0,0.0,0.0,0.0,0.0,0.0,0.0,0.0,0.0,0.0,0.0,0.0,0.0,0.0,0.0,0.0,0.0,0.0,0.0,0.0,0.0,0.0,0.0,0.0,0.0,0.0,0.0,0.0,0.0,0.0,0.0,0.0,0.0,0.0,0.0,0.0,0.0,0.0,0.0,0.0,0.0,0.0,0.0,0.0,0.0,0.0,0.0,0.0,0.0,0.0,0.0,0.0,0.0,0.0,0.0,0.0,0.0,0.0,0.0,0.0,0.0,0.0,0.0,0.0,0.0,0.0,0.0,0.0,0.0,0.0,0.0,0.0,0.0,0.0,0.0,0.0,0.0,0.0,0.0,0.0,0.0,0.0,0.0,0.0,0.0,0.0,0.0,0.0,0.0,0.0,0.0,0.0,0.0,0.0,0.0,0.0,0.0,0.0,0.0,0.0,0.0,0.0,0.0,0.0,0.0,0.0,0.0,0.0,0.0,0.0,0.0,0.0,0.0,0.0,0.0,0.0,0.0,0.0,0.0,0.0,0.0,0.0,0.0,0.0,0.0,0.0,0.0,0.0,0.0,0.0,0.0,0.0,0.0,0.0,0.0,0.0,0.0,0.0,0.0,0.0,0.0,0.0,0.0,0.0,0.0,0.0,0.0,0.0,0.0,0.0,0.0,0.0,0.0,0.0,0.0,0.0,0.0,0.0,0.0,0.0,0.0,0.0,0.0,0.0,0.0,0.0,0.0,0.0,0.0,0.0,0.0,0.0,0.0,0.0,0.0,0.0,0.0,0.0,0.0,0.0,0.0,0.0,0.0,0.0,0.0,0.0,0.0,0.0,0.0,0.0,0.0,0.0,0.0,0.0,0.0,0.0,0.0,0.0,0.0,0.0,0.0,0.0,0.0,0.0,0.0,0.0,0.0,0.0,0.0,0.0,0.0,0.0,0.0,0.0,0.0,0.0,0.0,0.0,0.0,0.0,0.0,0.0,0.0,0.0,0.0,0.0,0.0,0.0,0.0,0.0,0.0,0.0,0.0,0.0,0.0,0.0,0.0,0.0,0.0,0.0,0.0,0.0,0.0,0.0,0.0,0.0,0.0,0.0,0.0,0.0,0.0,0.0,0.0,0.0,0.0,0.0,0.0,0.0,0.0,0.0,0.0,0.0,0.0,0.0,0.0,0.0,0.0,0.0,0.0,0.0,0.0,0.0,0.0,0.0,0.0,0.0,0.0,0.0,0.0,0.0,0.0,0.0,0.0,0.0,0.0,0.0,0.0,0.0,0.0,0.0,0.0,0.0,0.0,0.0,0.0,0.0,0.0,0.0,0.0,0.0,0.0,0.0,0.0,0.0,0.0,0.0,0.0,0.0,0.0,0.0,0.0,0.0,0.0,0.0,0.0,0.0,0.0,0.0,0.0,0.0,0.0,0.0,0.0,0.0,0.0,0.0,0.0,0.0,0.0,0.0,0.0,0.0,0.0,0.0,0.0,0.0,0.0,0.0,0.0,0.0,0.0,0.0,0.0,0.0,0.0,0.0,0.0,0.0,0.0,0.0,0.0,0.0,0.0,0.0,0.0,0.0,0.0,0.0,0.0,0.0,0.0,0.0,0.0,0.0,0.0,0.0,0.0,0.0,0.0,0.0,0.0,0.0,0.0,0.0,0.0,0.0,0.0,0.0,0.0,0.0,0.0,0.0,0.0,0.0,0.0,0.0,0.0,0.0,0.0,0.0,0.0,0.0,0.0,0.0,0.0,0.0,0.0,0.0,0.0,0.0,0.0,0.0,0.0,0.0,0.0,0.0,0.0,0.0,0.0,0.0,0.0,0.0,0.0,0.0,0.0,0.0,0.0,0.0,0.0,0.0,0.0,0.0,0.0,0.0,0.0,0.0,0.0,0.0,0.0,0.0,0.0,0.0,0.0,0.0,0.0,0.0,0.0,0.0,0.0,0.0,0.0,0.0,0.0,0.0,0.0,0.0,0.0,0.0,0.0,0.0,0.0,0.0,0.0,0.0,0.0,0.0,0.0,0.2037,0.0146,0.0,0.0,0.0,0.0,0.0,0.0,0.0,0.0,0.0,0.0,0.0,0.0,0.0,0.0,0.0,0.0,0.0,0.0,0.0,0.0,0.0,0.0,0.0,0.0,0.0,0.0,0.0,0.0,0.0,0.0,0.0,0.0,0.0,0.0,0.0,0.0,0.0,0.0,0.0,0.0,0.0,0.0,0.0,0.0,0.0,0.0,0.0,0.0,0.0,0.0,0.0,0.0,0.0,0.0,0.0,0.0,0.0,0.0,0.0,0.0,0.0,0.0,0.0,0.0,0.0,0.0,0.0,0.0,0.0,0.0,0.0,0.0,0.0,0.0,0.0,0.0,0.0,0.0,0.0,0.0,0.0,0.0,0.0,0.0,0.0,0.0,0.0,0.0,0.0,0.0,0.0,0.0,0.0,0.0,0.0,0.0,0.0,0.0,0.0,0.0,0.0,0.0,0.0,0.0,0.0,0.0,0.0,0.0,0.0,0.0,0.0,0.0,0.0,0.0,0.2037,0.2037,0.1384,0.0,0.0,0.0,0.0,0.0,0.0,0.0,0.0,0.0,0.0,0.0,0.0,0.0,0.0,0.0,0.0,0.0,0.0,0.0,0.0,0.0,0.0,0.0,0.0,0.0,0.0,0.0,0.0,0.0,0.0,0.0,0.0,0.0,0.0,0.0,0.0,0.0,0.0,0.0,0.0,0.0,0.0,0.0,0.0,0.0,0.0,0.0,0.0,0.0,0.0,0.0,0.0,0.0,0.0,0.0,0.0,0.0,0.0,0.0,0.0,0.0,0.0,0.0,0.0,0.0,0.0,0.0,0.0,0.0,0.0,0.0,0.0,0.0,0.0,0.0,0.0,0.0,0.0,0.0,0.0,0.0,0.0,0.0,0.0,0.0,0.0,0.0,0.0,0.0,0.0,0.0,0.0,0.0,0.0,0.0,0.0,0.0,0.0,0.0,0.0,0.0,0.0,0.0,0.0,0.0,0.0,0.0,0.0,0.0,0.0,0.0,0.0,0.5153,0.4213,0.2909,0.1093,0.0947,0.0583,0.0,0.0,0.0,0.0,0.0,0.0,0.0,0.0,0.0,0.0,0.0,0.0,0.0,0.0,0.0,0.0,0.0,0.0,0.0,0.0,0.0,0.0,0.0,0.0,0.0,0.0,0.0,0.0,0.0,0.0,0.0,0.0,0.0,0.0,0.0,0.0,0.0,0.0,0.0,0.0,0.0,0.0,0.0,0.0,0.0,0.0,0.0,0.0,0.0,0.0,0.0,0.0,0.0,0.0,0.0,0.0,0.0,0.0,0.0,0.0,0.0,0.0,0.0,0.0,0.0,0.0,0.0,0.0,0.0,0.0,0.0,0.0,0.0,0.0,0.0,0.0,0.0,0.0,0.0,0.0,0.0,0.0,0.0,0.0,0.0,0.0,0.0,0.0,0.0,0.0,0.0,0.0,0.0,0.0,0.0,0.0,0.0,0.0,0.0,0.0,0.0,0.0,0.0,0.0,0.0,0.0,0.0,0.0,0.0,0.8848,0.668,0.4724,0.2908,0.2474,0.1603,0.0,0.0,0.0,0.0,0.0,0.0,0.0,0.0,0.0,0.0,0.0,0.0,0.0,0.0,0.0,0.0,0.0,0.0,0.0,0.0,0.0,0.0,0.0,0.0,0.0,0.0,0.0,0.0,0.0,0.0,0.0,0.0,0.0,0.0,0.0,0.0,0.0,0.0,0.0,0.0,0.0,0.0,0.0,0.0,0.0,0.0,0.0,0.0,0.0,0.0,0.0,0.0,0.0,0.0,0.0,0.0,0.0,0.0,0.0,0.0,0.0,0.0,0.0,0.0,0.0,0.0,0.0,0.0,0.0,0.0,0.0,0.0,0.0,0.0,0.0,0.0,0.0,0.0,0.0,0.0,0.0,0.0,0.0,0.0,0.0,0.0,0.0,0.0,0.0,0.0,0.0,0.0,0.0,0.0,0.0,0.0,0.0,0.0,0.0,0.0,0.0,0.0,0.0,0.0,0.0,0.0,0.0,0.0,0.0,1.0815,0.9948,0.7406,0.3125,0.2836,0.1893,0.0,0.0,0.0,0.0,0.0,0.0,0.0,0.0,0.0,0.0,0.0,0.0,0.0,0.0,0.0,0.0,0.0,0.0,0.0,0.0,0.0,0.0,0.0,0.0,0.0,0.0,0.0,0.0,0.0,0.0,0.0,0.0,0.0,0.0,0.0,0.0,0.0,0.0,0.0,0.0,0.0,0.0,0.0,0.0,0.0,0.0,0.0,0.0,0.0,0.0,0.0,0.0,0.0,0.0,0.0,0.0,0.0,0.0,0.0,0.0,0.0,0.0,0.0,0.0,0.0,0.0,0.0,0.0,0.0,0.0,0.0,0.0,0.0,0.0,0.0,0.0,0.0,0.0,0.0,0.0,0.0,0.0,0.0,0.0,0.0,0.0,0.0,0.0,0.0,0.0,0.0,0.0,0.0,0.0,0.0,0.0,0.0,0.0,0.0,0.0,0.0,0.0,0.0,0.0,0.0,0.0,0.0,0.0,1.1555,1.1616,1.1404,0.9363,0.5444,0.5011,0.3707,0.0,0.0,0.0,0.0,0.0,0.0,0.0,0.0,0.0,0.0,0.0,0.0,0.0,0.0,0.0,0.0,0.0,0.0,0.0,0.0,0.0,0.0,0.0,0.0,0.0,0.0,0.0,0.0,0.0,0.0,0.0,0.0,0.0,0.0,0.0,0.0,0.0,0.0,0.0,0.0,0.0,0.0,0.0,0.0,0.0,0.0,0.0,0.0,0.0,0.0,0.0,0.0,0.0,0.0,0.0,0.0,0.0,0.0,0.0,0.0,0.0,0.0,0.0,0.0,0.0,0.0,0.0,0.0,0.0,0.0,0.0,0.0,0.0,0.0,0.0,0.0,0.0,0.0,0.0,0.0,0.0,0.0,0.0,0.0,0.0,0.0,0.0,0.0,0.0,0.0,0.0,0.0,0.0,0.0,0.0,0.0,0.0,0.0,0.0,0.0,0.0,0.0,0.0,0.0,0.0,0.0,0.0,0.0,1.1457,1.1592,1.1579,1.0696,0.9029,0.8119,0.6174,0.0,0.0,0.0,0.0,0.0,0.0,0.0,0.0,0.0,0.0,0.0,0.0,0.0,0.0,0.0,0.0,0.0,0.0,0.0,0.0,0.0,0.0,0.0,0.0,0.0,0.0,0.0,0.0,0.0,0.0,0.0,0.0,0.0,0.0,0.0,0.0,0.0,0.0,0.0,0.0,0.0,0.0,0.0,0.0,0.0,0.0,0.0,0.0,0.0,0.0,0.0,0.0,0.0,0.0,0.0,0.0,0.0,0.0,0.0,0.0,0.0,0.0,0.0,0.0,0.0,0.0,0.0,0.0,0.0,0.0,0.0,0.0,0.0,0.0,0.0,0.0,0.0,0.0,0.0,0.0,0.0,0.0,0.0,0.0,0.0,0.0,0.0,0.0,0.0,0.0,0.0,0.0,0.0,0.0,0.0,0.0,0.0,0.0,0.0,0.0,0.0,0.0,0.0,0.0,0.0,0.0,0.0,0.0,1.1409,1.1436,1.1321,1.1117,1.0693,0.9256,0.6749,0.0,0.0,0.0,0.0,0.0,0.0,0.0,0.0,0.0,0.0,0.0,0.0,0.0,0.0,0.0,0.0,0.0,0.0,0.0,0.0,0.0,0.0,0.0,0.0,0.0,0.0,0.0,0.0,0.0,0.0,0.0,0.0,0.0,0.0,0.0,0.0,0.0,0.0,0.0,0.0,0.0,0.0,0.0,0.0,0.0,0.0,0.0,0.0,0.101,0.0,0.0,0.0,0.0,0.0,0.0,0.0,0.0,0.0,0.0,0.0,0.0,0.0,0.0,0.0,0.0,0.0,0.0,0.0,0.0,0.0,0.0,0.0,0.0,0.0,0.0,0.0,0.0,0.0,0.0,0.0,0.0,0.0,0.0,0.0,0.0,0.0,0.0,0.0,0.0,0.0,0.0,0.0,0.0,0.0,0.0,0.0,0.0,0.0,0.0,0.0,0.0,0.0,0.0,0.0,0.0,0.0,0.0,0.0,1.1284,1.1284,1.1206,1.1231,1.1168,1.0324,0.8426,0.0,0.0,0.0,0.0,0.0,0.0,0.0,0.0,0.0,0.0,0.0,0.0,0.0,0.0,0.0,0.0,0.0,0.0,0.0,0.0,0.0,0.0,0.0,0.0,0.0,0.0,0.0,0.0,0.0,0.0,0.0,0.0,0.0,0.0,0.0,0.0,0.0,0.0,0.0,0.0,0.0,0.0,0.0,0.0,0.0,0.0,0.0,0.0,0.0,0.0,0.0,0.0,0.0,0.0,0.0,0.0,0.0,0.0,0.0,0.0,0.0,0.0,0.0,0.0,0.0,0.0,0.0,0.0,0.0,0.0,0.0,0.0,0.0,0.0,0.0,0.0,0.0,0.0,0.0,0.0,0.0,0.0,0.0,0.0,0.0,0.0,0.0,0.0,0.0,0.0,0.0,0.0,0.0,0.0,0.0,0.0,0.0,0.0,0.0,0.0,0.0,0.0,0.0,0.0,0.0,0.0,0.0,1.1067,1.1131,1.1128,1.1107,1.1094,1.1094,1.1094,1.0257,0.8341,0.0,0.0,0.0,0.0,0.0,0.0,0.0,0.0,0.0,0.0,0.0,0.0,0.0,0.0,0.0,0.0,0.0,0.0,0.0,0.0,0.0,0.0,0.0,0.0,0.0,0.0,0.0,0.0,0.0,0.0,0.0,0.0,0.0,0.0,0.0,0.0,0.0,0.0,0.4769,0.5767,0.0,0.0,0.0,0.0,0.0,0.0,0.0,0.0,0.2689,0.0,0.0,0.0,0.0,0.0,0.0,0.0,0.0,0.0,0.0,0.0,0.0,0.0,0.0,0.0,0.0,0.0,0.0,0.0,0.0,0.0,0.0,0.0,0.0,0.0,0.0,0.0,0.0,0.0,0.0,0.0,0.0,0.0,0.0,0.0,0.0,0.0,0.0,0.0,0.0,0.0,0.0,0.0,0.0,0.0,0.0,0.0,0.0,0.0,0.0,0.0,0.0,0.0,0.0,0.0,0.0,1.088,1.0972,1.0985,1.0982,1.086,1.0792,1.0792,1.0792,1.0524,0.9992,0.0,0.0,0.0,0.0,0.0,0.0,0.0,0.0,0.0,0.0,0.0,0.0,0.0,0.0,0.0,0.0,0.0,0.0,0.0,0.0,0.0,0.0,0.0,0.0,0.0,0.0,0.0,0.0,0.0,0.0,0.0,0.0,0.0,0.0,0.0,0.0,0.0,0.0,0.0,0.7034,0.6833,0.0,0.0,0.0,0.0,0.0,0.0,0.0,0.0,0.3292,0.0,0.0,0.0,0.0,0.0,0.0,0.0,0.0,0.0,0.0,0.0,0.0,0.0,0.0,0.0,0.0,0.0,0.0,0.0,0.0,0.0,0.0,0.0,0.0,0.0,0.0,0.0,0.0,0.0,0.0,0.0,0.0,0.0,0.0,0.0,0.0,0.0,0.0,0.0,0.0,0.0,0.0,0.0,0.0,0.0,0.0,0.0,0.0,0.0,0.0,0.0,0.0,0.0,0.0,0.0,1.0829,1.0829,1.0833,1.0826,1.0755,1.0721,1.0721,1.0721,1.0555,0.0,0.0,0.0,0.0,0.0,0.0,0.0,0.0,0.0,0.0,0.0,0.0,0.0,0.0,0.0,0.0,0.0,0.0,0.0,0.0,0.0,0.0,0.0,0.0,0.0,0.0,0.0,0.0,0.0,0.0,0.0,0.0,0.0,0.0,0.0,0.0,0.0,0.0,0.0,0.0,0.8585,0.8807,0.9473,0.0,0.0,0.0,0.0,0.0,0.0,0.5839,0.4922,0.0,0.0,0.0,0.0,0.0,0.0,0.0,0.0,0.0,0.0,0.0,0.0,0.0,0.0,0.0,0.0,0.0,0.0,0.0,0.0,0.0,0.0,0.0,0.0,0.0,0.0,0.0,0.0,0.0,0.0,0.0,0.0,0.0,0.0,0.0,0.0,0.0,0.0,0.0,0.0,0.0,0.0,0.0,0.0,0.0,0.0,0.0,0.0,0.0,0.0,0.0,0.0,0.0,0.0,0.0,1.0721,1.0721,1.0721,1.0721,1.0721,1.0721,1.0721,1.0721,1.0588,0.0,0.0,0.0,0.0,0.0,0.0,0.0,0.0,0.0,0.0,0.0,0.0,0.0,0.0,0.0,0.0,0.0,0.0,0.0,0.0,0.0,0.0,0.0,0.0,0.0,0.0,0.0,0.0,0.0,0.0,0.0,0.0,0.0,0.0,0.0,0.0,0.0,0.0,0.0,0.0,0.0,1.0449,1.0446,0.9377,0.0,0.0,0.0,0.0,0.8347,0.7127,0.0,0.0,0.0,0.0,0.0,0.0,0.0,0.0,0.0,0.0,0.0,0.0,0.0,0.0,0.0,0.0,0.0,0.0,0.0,0.0,0.0,0.0,0.0,0.0,0.0,0.0,0.0,0.0,0.0,0.0,0.0,0.0,0.0,0.0,0.0,0.0,0.0,0.0,0.0,0.0,0.0,0.0,0.0,0.0,0.0,0.0,0.0,0.0,0.0,0.0,0.0,0.0,0.0,0.0,0.0,0.0,1.0721,1.0721,1.0721,1.0721,1.0721,1.0721,1.0721,1.0721,1.0651,0.0,0.0,0.0,0.0,0.0,0.0,0.0,0.0,0.0,0.0,0.0,0.0,0.0,0.0,0.0,0.0,0.0,0.0,0.0,0.0,0.0,0.0,0.0,0.0,0.0,0.0,0.0,0.0,0.0,0.0,0.0,0.0,0.0,0.0,0.0,0.0,0.0,0.0,0.0,0.0,0.0,1.0307,1.0304,1.0159,1.0022,0.0,0.0,0.9828,1.0022,0.8797,0.0,0.0,0.0,0.0,0.0,0.0,0.0,0.0,0.0,0.0,0.0,0.0,0.0,0.0,0.0,0.0,0.0,0.0,0.0,0.0,0.0,0.0,0.0,0.0,0.0,0.0,0.0,0.0,0.0,0.0,0.0,0.0,0.0,0.0,0.0,0.0,0.0,0.0,0.0,0.0,0.0,0.0,0.0,0.0,0.0,0.0,0.0,0.0,0.0,0.0,0.0,0.0,0.0,0.0,0.0,1.1007,1.1185,1.1267,1.1251,1.0982,1.0986,1.092,1.0721,1.0721,1.0721,0.0,0.0,0.0,0.0,0.0,0.0,0.0,0.0,0.0,0.0,0.0,0.0,0.0,0.0,0.0,0.0,0.0,0.0,0.0,0.0,0.0,0.0,0.0,0.0,0.0,0.0,0.0,0.0,0.0,0.0,0.0,0.0,0.0,0.0,0.0,0.0,0.0,0.0,0.0,0.0,0.0,0.0,1.0161,1.0073,0.0,0.0,0.0,1.0019,1.0019,0.0,0.0,0.0,0.0,0.0,0.0,0.0,0.0,0.0,0.0,0.0,0.0,0.0,0.0,0.0,0.0,0.0,0.0,0.0,0.0,0.0,0.0,0.0,0.0,0.0,0.0,0.0,0.0,0.0,0.0,0.0,0.0,0.0,0.0,0.0,0.0,0.0,0.0,0.0,0.0,0.0,0.0,0.0,0.0,0.0,0.0,0.0,0.0,0.0,0.0,0.0,0.0,0.0,0.0,0.0,0.0,0.0,1.1913,1.2354,1.2486,1.2161,1.1838,1.1515,1.1188,1.0902,0.0,0.0,0.0,0.0,0.0,0.0,0.0,0.0,0.0,0.0,0.0,0.0,0.0,0.0,0.0,0.0,0.0,0.0,0.0,0.0,0.0,0.0,0.0,0.0,0.0,0.0,0.0,0.75,0.0,0.0,0.0,0.0,0.0,0.0,0.0,0.0,0.0,0.0,0.0,0.0,0.0,0.0,1.0374,1.0132,1.0016,0.9883,0.0,0.0,0.9819,0.9819,0.9819,0.9819,0.0,0.0,0.0,0.0,0.0,0.0,0.0,0.0,0.0,0.0,0.0,0.0,0.0,0.0,0.0,0.0,0.0,0.0,0.0,0.0,0.0,0.0,0.0,0.0,0.0,0.0,0.0,0.0,0.0,0.0,0.0,0.0,0.0,0.0,0.0,0.0,0.0,0.0,0.0,0.0,0.0,0.0,0.0,0.0,0.0,0.0,0.0,0.0,0.0,0.0,0.0,0.0,0.0,0.0,1.4173,1.3098,1.4173,1.475,1.4678,1.3555,1.2868,1.2557,1.1517,1.0832,0.0,0.0,0.0,0.0,0.0,0.0,0.0,0.0,0.0,0.0,0.0,0.0,0.0,0.0,0.0,0.0,0.0,0.0,0.0,0.0,0.0,0.0,0.0,0.0,0.0,0.0,0.0,0.0,0.0,0.0,0.0,0.0,0.0,0.0,0.0,0.0,0.0,0.0,0.0,0.0,0.0,1.064,1.0325,1.0251,1.0183,0.0,0.9819,0.9819,0.9819,0.9819,0.9819,0.9819,0.0,0.0,0.0,0.0,0.0,0.0,0.0,0.0,0.0,0.0,0.0,0.0,0.0,0.0,0.0,0.0,0.0,0.0,0.0,0.0,0.0,0.0,0.0,0.0,0.0,0.0,0.0,0.0,0.0,0.0,0.0,0.0,0.0,0.0,0.0,0.0,0.0,0.0,0.0,0.0,0.0,0.0,0.0,0.0,0.0,0.0,0.0,0.0,0.0,0.0,0.0,0.0,0.0,1.5195,1.4757,1.5381,1.5577,1.5391,1.4893,1.4082,1.2955,1.2522,1.1813,0.0,0.0,0.0,0.0,0.0,0.0,0.0,0.0,0.0,0.0,0.0,0.0,0.0,0.0,0.0,0.0,0.0,0.0,0.0,0.0,0.0,0.0,0.0,0.0,0.0,0.0,0.0,0.0,1.1221,1.119,1.1318,0.0,0.0,0.0,0.0,0.0,0.0,0.0,0.0,0.0,0.0,1.0843,1.0622,1.0607,0.0,0.0,1.0425,1.0365,1.0122,1.0122,1.0065,0.9822,0.9819,0.0,0.0,0.0,0.0,0.0,0.0,0.0,0.0,0.0,0.0,0.0,0.0,0.0,0.0,0.0,0.0,0.0,0.0,0.0,0.0,0.0,0.0,0.0,0.0,0.0,0.0,0.0,0.0,0.0,0.0,0.0,0.0,0.0,0.0,0.0,0.0,0.0,0.0,0.0,0.0,0.0,0.0,0.0,0.0,0.0,0.0,0.0,0.0,0.0,0.0,0.0,0.0,1.658,1.6286,1.6822,1.6979,1.673,1.6353,1.5554,1.4322,1.3952,1.2998,0.0,0.0,0.0,0.0,0.0,0.0,0.0,0.0,0.0,0.0,0.0,0.0,0.0,0.0,0.0,0.0,0.0,0.0,0.0,0.0,0.0,0.0,0.0,0.0,0.0,0.0,0.0,0.0,1.1501,1.145,1.1401,0.0,0.0,0.0,0.0,0.0,0.0,0.0,0.0,0.0,0.0,1.1168,1.0989,1.0967,1.091,1.0789,1.0748,1.0598,1.0417,1.0357,1.0297,1.0059,0.0,0.0,0.0,0.0,0.0,0.0,0.0,0.0,0.0,0.0,0.0,0.0,0.0,0.0,0.0,0.0,0.0,0.0,0.0,0.0,0.0,0.0,0.0,0.0,0.0,0.0,0.0,2.0976,0.0,0.0,2.0976,0.0,0.0,0.0,0.0,0.0,0.0,0.0,0.0,0.0,0.0,0.0,0.0,0.0,0.0,0.0,0.0,0.0,0.0,0.0,0.0,0.0,0.0,1.8674,1.7519,1.8622,1.9276,1.9218,1.8129,1.7238,1.6826,1.5839,1.4507,1.2873,0.0,0.0,0.0,0.0,0.0,0.0,0.0,0.0,0.0,0.0,0.0,0.0,0.0,0.0,0.0,0.0,0.0,0.0,0.0,0.0,0.0,0.0,0.0,0.0,0.0,0.0,1.1751,1.1896,1.191,0.0,0.0,0.0,0.0,0.0,0.0,0.0,0.0,0.0,1.1776,1.178,1.1655,1.1337,1.1269,1.1212,1.0849,1.0662,1.0502,1.0502,1.0502,1.0495,0.0,0.0,0.0,0.0,0.0,0.0,0.0,0.0,0.0,0.0,0.0,0.0,0.0,0.0,0.0,0.0,0.0,0.0,0.0,0.0,0.0,0.0,0.0,0.0,0.0,0.0,0.0,2.1796,2.1734,0.0,0.0,0.0,0.0,0.0,0.0,0.0,0.0,0.0,0.0,0.0,2.1196,2.1093,0.0,0.0,0.0,0.0,0.0,0.0,0.0,0.0,0.0,0.0,0.0,0.0,1.9191,1.8829,1.9185,1.9424,1.9424,1.901,1.8286,1.739,1.6938,1.6029,1.4425,0.0,0.0,0.0,0.0,0.0,0.0,0.0,0.0,0.0,0.0,0.0,0.0,0.0,0.0,0.0,0.0,0.0,0.0,0.0,0.0,0.0,0.0,0.0,0.0,0.0,1.1826,0.0,0.0,0.0,0.0,0.0,0.0,0.0,0.0,0.0,0.0,1.1712,1.1837,1.1837,1.1837,1.1772,1.1647,1.1647,1.1587,0.0,0.0,0.0,0.0,0.0,0.0,0.0,0.0,0.0,0.0,0.0,0.0,0.0,0.0,1.024,1.0386,1.0343,1.0274,1.0274,0.0,0.0,0.0,0.0,0.0,0.0,0.0,0.0,0.0,0.0,0.0,0.0,0.0,0.0,2.2104,2.2104,2.2104,0.0,0.0,0.0,0.0,0.0,0.0,0.0,0.0,2.1549,2.1505,2.1187,2.1082,2.1033,2.1012,2.0718,2.0441,0.0,0.0,0.0,0.0,0.0,0.0,0.0,0.0,1.9424,1.9424,1.9424,1.9424,1.9424,1.9424,1.9004,1.8169,1.7747,1.6985,1.5972,1.54,1.4731,0.0,0.0,0.0,0.0,0.0,0.0,0.0,0.0,0.0,0.0,0.0,0.0,0.0,0.0,0.0,0.0,0.0,0.0,0.0,0.0,0.0,0.0,0.0,1.1898,0.0,0.0,0.0,0.0,0.0,0.0,0.0,0.0,0.0,1.1837,1.1837,1.1837,1.1837,1.1837,1.1837,1.1837,0.0,0.0,0.0,0.0,0.0,0.0,0.0,1.0867,1.0582,1.0555,1.0593,1.0474,1.0532,1.059,1.0474,0.0,0.0,1.064,1.0535,1.041,1.0406,1.0239,1.0124,1.0282,1.0121,1.0039,0.0,0.0,0.0,0.0,2.2111,0.0,0.0,0.0,2.2174,2.2167,0.0,2.2167,0.0,0.0,0.0,0.0,2.1642,2.1942,0.0,0.0,2.1541,2.1534,2.1191,2.0851,2.0711,2.069,2.0475,2.0335,2.0284,1.9989,0.0,0.0,0.0,0.0,0.0,0.0,1.9424,1.9424,1.943,1.9424,1.9424,1.9424,1.9366,1.9366,1.8227,1.7572,1.7513,1.6402,1.5791,1.5821,1.4385,0.0,0.0,0.0,0.0,0.0,0.0,0.0,0.0,0.0,0.0,0.0,0.0,0.0,0.0,0.0,0.0,0.0,0.0,0.0,0.0,1.1878,0.0,0.0,0.0,0.0,0.0,0.0,0.0,0.0,0.0,1.1837,1.1837,1.1837,1.1772,1.1764,0.0,0.0,0.0,0.0,1.1492,1.1492,1.12,1.0984,1.0976,1.0972,1.0972,1.0964,0.0,0.0,1.0739,1.0974,1.1077,1.0743,1.0958,1.1035,1.0401,1.0351,1.0351,1.0351,1.0332,1.0336,1.0328,1.0197,1.0047,2.2793,0.0,0.0,0.0,0.0,2.2801,2.2793,2.2801,2.2801,2.2801,2.2793,2.2801,0.0,0.0,0.0,0.0,0.0,0.0,2.196,2.1597,2.1648,2.1525,2.1191,2.1097,2.1054,2.1047,2.096,2.0795,2.0608,2.0493,2.0328,2.0046,0.0,0.0,0.0,0.0,1.9931,1.9707,1.97,1.9591,1.9424,1.9424,1.9424,1.9424,1.9068,1.8887,1.8829,1.8532,1.7908,1.7026,1.6552,0.0,0.0,0.0,0.0,0.0,0.0,0.0,0.0,0.0,0.0,0.0,0.0,0.0,0.0,0.0,0.0,0.0,0.0,0.0,1.1866,1.1805,1.1837,0.0,0.0,0.0,0.0,0.0,0.0,0.0,0.0,0.0,1.1837,1.1837,1.1727,0.0,0.0,1.1529,1.1399,1.1334,1.1301,1.1301,1.1216,0.0,1.1045,1.0968,1.0923,1.0794,1.0814,1.0791,1.0735,1.0791,1.0787,1.0731,1.0791,1.0787,1.0628,1.0675,1.0807,1.0807,1.0659,1.0628,1.056,1.052,1.0497,2.33,2.33,2.3175,2.3106,2.3106,2.3106,2.3106,2.3106,2.3106,2.3106,2.3098,2.2974,2.2806,2.2615,2.2498,0.0,0.0,0.0,2.1818,2.1503,2.1503,2.1401,2.1218,2.1211,2.1211,2.1211,2.1211,2.1089,2.0902,2.0902,2.0788,2.068,0.0,2.027,2.027,2.027,2.0213,1.9982,1.9865,1.9752,1.958,1.9407,1.9401,1.9573,1.953,1.9642,1.9758,1.9764,1.9403,1.8629,1.8092,1.758,0.0,0.0,0.0,0.0,0.0,0.0,0.0,0.0,0.0,0.0,0.0,1.3884,1.3688,0.0,0.0,0.0,1.3434,1.3211,1.2612,1.302,0.0,0.0,0.0,0.0,0.0,0.0,0.0,1.3086,1.3246,1.3228,1.3154,1.3081,1.2862,1.227,1.2136,1.2296,1.2554,0.0,1.2466,1.247,1.2397,1.2138,1.1642,1.1518,1.1364,1.0763,1.0692,1.0692,1.0692,1.0692,1.0692,1.0692,1.0692,1.0692,1.0692,1.0785,1.0863,1.0858,1.0769,1.0696,1.0692,1.0692,1.0692,2.3604,2.3611,2.33,2.3168,2.3168,2.3175,2.3168,2.3168,2.3139,2.3131,2.3109,2.2786,2.2632,2.2588,2.2295,0.0,2.1883,2.1883,2.172,2.1375,2.1375,2.1318,2.1211,2.1211,2.1211,2.1211,2.1211,2.1211,2.1211,2.1211,2.1211,2.1211,2.0615,2.0385,2.0385,2.0357,2.035,2.0293,1.9991,1.9766,1.9766,1.9431,1.9479,1.9766,1.9766,1.9906,2.0179,2.0221,2.0235,2.0235,1.9145,1.8564,1.8506,0.0,0.0,0.0,0.0,0.0,0.0,0.0,0.0,0.0,0.0,0.0,0.0,0.0,0.0,1.5585,1.5688,0.0,1.4018,1.4976,0.0,0.0,0.0,1.3899,1.3899,1.3899,1.4376,1.551,0.0,0.0,1.5183,1.514,1.4714,1.365,1.3364,1.363,1.4539,1.4378,1.4361,1.4251,1.4179,1.3706,1.2713,1.2545,1.2273,1.1341,1.0907,1.0907,1.0907,1.0747,1.0747,1.0692,1.0692,1.0692,1.0692,1.07,1.0692,1.07,1.0696,1.0692,1.0692,1.0692,1.0692,2.3984,2.3984,2.3922,2.3736,2.3487,2.3736,2.386,2.3837,2.3588,2.3482,2.3452,2.3135,2.2855,2.2598,2.2274,2.2585,2.34,2.3392,2.3175,2.2894,2.2894,2.2297,2.1211,2.1211,2.1211,2.1211,2.1211,2.1211,2.1211,2.1211,2.1211,2.1203,2.1031,2.0974,2.0967,2.0728,2.0499,2.0274,1.9968,1.9686,1.9451,1.9326,1.9326,1.9396,1.9451,1.9431,1.9563,1.9787,1.9913,1.9927,1.9851,1.9859,1.9859,1.9557,0.0,0.0,0.0,0.0,0.0,0.0,0.0,0.0,0.0,1.5892,1.5947,0.0,1.5731,0.0,1.6315,1.6138,1.5832,1.6138,0.0,0.0,1.5838,1.5832,1.5838,1.5838,1.5961,1.625,1.6087,1.5889,1.5769,1.5545,1.5586,1.5967,1.4943,1.414,1.4227,1.4207,1.4164,1.4218,1.4234,1.403,1.3809,1.3706,1.3545,1.3329,1.2575,1.1987,1.1987,1.1286,1.0692,1.0692,1.0692,1.0692,1.0692,1.0692,1.0692,1.0692,1.0692,1.0692,1.0692,1.0692,1.0692,2.4293,2.4293,2.4363,2.4232,2.4046,2.4108,2.4016,2.3871,2.368,2.352,2.3367,2.3047,2.2711,2.2383,2.2192,2.2449,2.3103,2.3648,2.3751,2.3631,2.3623,2.3407,2.2918,2.193,2.1596,2.1979,2.1432,2.1211,2.1211,2.1211,2.1211,2.1203,2.1064,2.0991,2.0984,2.0815,2.0543,2.0294,1.9975,1.9636,1.9324,1.9309,1.9381,1.9523,1.9523,1.9588,1.9669,1.9902,1.9995,2.0009,2.0302,2.0466,2.0473,2.0601,2.0622,0.0,0.0,0.0,0.0,0.0,0.0,0.0,0.0,0.0,0.0,0.0,1.6909,1.6539,1.7541,1.7962,1.7372,1.7846,1.7956,1.743,1.7372,1.7372,1.7372,1.7313,1.7505,1.7904,1.7817,1.7566,1.7334,1.711,1.7136,1.7581,1.6779,1.6126,1.6045,1.6009,1.6009,1.6009,1.6003,1.5743,1.5215,1.4508,1.4078,1.4024,1.3593,1.3166,1.3166,1.2635,1.2041,1.161,1.1446,1.1286,1.0802,1.0692,1.0692,1.0692,1.0692,1.0692,1.0692,1.0692,1.0692,2.4672,2.4672,2.4672,2.4641,2.4602,2.4294,2.4001,2.3718,2.3633,2.3419,2.3096,2.2805,2.2498,2.223,2.223,2.2286,2.2498,2.3648,2.4142,2.415,2.415,2.4522,2.5177,2.299,2.2384,2.3038,2.2044,2.1417,2.1209,2.1202,2.118,2.1072,2.0801,2.064,2.0603,2.0596,2.0442,2.0066,1.9835,1.9564,1.9286,1.9272,1.9463,1.9735,1.9757,1.9828,2.0044,2.0103,2.0172,2.0179,2.0431,2.0676,2.072,2.0991,2.1045,0.0,2.0773,0.0,0.0,0.0,0.0,0.0,0.0,0.0,0.0,1.939,1.8325,1.7184,1.9145,1.9975,1.8861,1.9795,1.9975,1.8913,1.8745,1.8726,1.8693,1.8687,1.8986,1.978,1.9829,1.9583,1.9043,1.8963,1.8823,1.8552,1.8443,1.8279,1.8475,1.8258,1.8153,1.8422,1.8422,1.7674,1.6717,1.553,1.4829,1.4722,1.4561,1.44,1.44,1.4191,1.3701,1.2847,1.263,1.2254,1.1122,1.0962,1.0852,1.0747,1.0692,1.0692,1.0692,1.0692,1.0692,2.4988,2.498,2.4988,2.4883,2.4622,2.4561,2.4461,2.4351,2.3799,2.3365,2.3042,2.2971,2.2908,2.2845,2.2845,2.3344,2.4334,2.5461,2.5882,2.559,2.559,2.559,2.5426,2.4142,2.3544,2.3712,2.3416,2.2559,2.1208,2.1208,2.09,2.0365,2.03,2.0201,1.9952,0.0,0.0,0.0,1.9456,1.9338,1.9331,1.9272,1.9301,1.9419,1.9419,0.0,1.9462,1.9711,1.9903,1.9918,2.0157,0.0,0.0,0.0,0.0,0.0,0.0,0.0,0.0,0.0,0.0,0.0,2.1068,2.0917,2.0666,2.0615,2.0558,2.0385,2.0737,2.0917,2.0737,2.0852,2.0917,2.068,2.068,2.058,2.0337,2.0238,2.0236,2.0142,1.9943,1.974,1.9602,1.9377,1.9195,1.9078,1.9116,1.9116,1.9116,1.8691,1.8422,1.8422,1.8422,1.8318,1.8048,1.7674,1.7298,1.7457,1.6552,1.5968,1.5802,1.4888,1.4191,1.3809,1.3809,1.3437,1.2304,1.2096,1.1823,1.0911,1.0747,1.0692,1.0692,1.0692,1.0692,2.5103,2.5095,2.4921,2.4738,0.0,2.4213,2.407,2.4047,2.3639,2.3625,2.3904,2.4484,2.4437,2.3896,2.3896,2.3896,2.3952,2.5148,2.5891,2.6254,2.6254,2.6743,2.7498,2.504,2.4095,2.4415,2.3088,2.1994,2.1196,2.1141,2.0886,2.0387,2.0293,2.0077,1.9815,1.9654,1.9492,1.9272,1.9272,1.9272,1.9272,1.9272,1.9272,1.9272,1.9272,0.0,0.0,0.0,0.0,0.0,0.0,0.0,0.0,2.0391,0.0,2.0947,2.0969,2.1035,2.1196,2.1211,2.1211,2.1211,2.1211,2.1153,2.0967,2.1089,2.1211,2.1211,2.1211,2.1211,2.1211,2.1211,2.1145,2.0998,2.0969,2.0837,2.0489,2.0431,2.0355,2.0062,1.9864,1.9764,1.9595,1.9441,1.9279,1.9272,1.9272,1.9272,1.9272,1.9063,1.8855,1.8848,1.8698,1.8653,1.8639,1.8482,1.8422,1.8265,1.7786,1.7411,1.7358,1.6611,1.5861,1.5322,1.5108,1.462,1.3545,1.3221,1.3063,1.2521,1.2363,1.2146,1.166,1.1126,1.0692,2.5103,2.5079,2.4722,2.4547,2.4436,2.3808,2.3449,2.3451,2.3623,0.0,0.0,2.5899,2.5689,2.4778,2.4565,2.396,2.3127,2.4223,2.5322,2.6218,2.6436,2.7479,2.9033,2.5997,2.4683,2.5032,2.2922,2.1587,2.1117,2.1063,2.0863,2.0518,2.0218,1.9992,1.9713,1.9411,1.9272,1.9272,1.9272,1.9272,1.9272,1.9272,1.9272,1.9272,1.9272,1.9272,1.9272,1.9272,1.9272,1.9286,1.9528,1.9757,1.9823,2.0011,2.0241,2.0603,2.0577,2.0701,2.1013,2.1035,2.1064,2.1115,2.1181,2.1211,2.1211,2.1211,2.1211,2.1211,2.1211,2.1196,2.113,2.1123,2.0991,2.0676,2.064,2.0508,2.0208,2.015,2.0033,1.9801,1.9667,1.9632,1.933,1.9286,1.9272,1.9272,1.9272,1.9272,1.9272,1.9272,1.922,1.922,1.9071,1.8974,1.8921,1.8803,1.8586,1.8639,1.8534,1.8482,1.8429,1.8272,1.7694,1.673,1.6405,1.5695,1.4454,1.4239,1.4132,1.3599,1.3647,1.3437,1.2363,1.1337,1.0747,2.5103,2.5079,2.473,2.4404,2.4153,2.3705,2.3371,2.3142,2.4138,2.5255,2.6218,2.5368,2.4944,2.4731,2.3736,2.3127,2.307,2.4287,2.4889,2.5101,2.6063,2.7006,2.78,2.7303,2.6456,2.5295,2.4848,2.3407,2.1257,2.1022,2.0724,2.0202,1.9926,1.965,1.939,1.9346,1.9272,1.9272,1.9272,1.9272,1.9272,1.9272,1.9272,1.9272,1.9272,1.9272,1.9272,1.9272,1.9272,1.9279,1.9323,1.9529,1.9801,1.9859,1.9974,2.0219,2.0249,2.027,2.0321,2.0369,2.0494,2.0772,2.105,2.1211,2.1211,2.1211,2.1211,2.1203,2.1174,2.1086,2.0837,2.073,2.0606,2.0355,2.0256,2.0172,1.9864,1.9881,1.9711,1.9463,1.9338,1.9352,1.9294,1.9272,1.9272,1.9272,1.9272,1.9272,1.9272,1.9272,1.9272,1.9272,1.9279,1.9227,1.9175,1.9227,1.9116,1.9168,1.8966,1.881,1.881,1.8541,1.822,1.7806,1.7589,1.6723,1.4781,1.4995,1.4406,1.2575,1.2526,1.2526,1.1496,1.0907,1.0688,2.4992,2.4785,2.4444,2.4102,2.3753,2.3403,2.3505,2.4016,2.4556,2.5423,2.6481,2.6608,2.6291,2.5634,2.4492,2.3616,2.3014,2.3568,2.4067,2.4525,2.5044,2.5692,2.6314,2.5604,2.4823,2.4136,2.3324,2.2225,2.1051,2.094,2.0706,2.0308,2.0034,1.9776,1.9532,1.9524,1.9428,1.9272,1.9272,1.9272,1.9272,1.9272,1.9272,1.9272,1.9272,1.9272,1.9272,1.9272,1.9272,1.9272,1.9272,1.9397,1.9536,1.9499,1.9645,1.9952,1.9981,2.0055,2.023,2.0183,2.0303,2.0394,2.054,2.0684,2.0628,2.0845,2.0874,2.065,2.0684,2.057,2.0416,2.0457,2.0333,2.0011,1.9981,1.9842,1.9625,1.9499,1.9492,1.9308,1.9272,1.9272,1.9272,1.9272,1.9272,1.9272,1.9272,1.9272,1.9272,1.9272,1.9272,1.9272,1.9272,1.9272,1.9272,1.9272,1.9272,1.9272,1.9227,1.9123,1.9123,1.8862,1.8646,1.8496,1.8233,1.7582,1.6234,1.5962,1.5102,1.4352,1.3873,1.3652,1.2205,1.1177,1.066,2.4905,2.4555,2.4257,2.3808,2.3403,2.3133,2.3568,2.4398,2.4667,2.5313,2.6227,2.7302,2.7194,2.6054,2.5148,2.4078,2.3015,2.2895,2.3187,2.367,2.396,2.4394,2.4859,2.4166,2.363,2.3023,2.2037,2.1369,2.0968,2.0925,2.0771,2.0514,2.03,2.0042,1.9783,1.9783,1.968,1.948,1.9472,1.9428,1.9279,1.9272,1.9272,1.9272,1.9272,1.9272,1.9272,1.9272,1.9272,1.9272,1.9272,1.9272,1.9272,1.9272,1.9441,1.9676,1.9705,1.9762,1.9996,2.0091,2.0128,2.0128,2.0139,2.0146,2.0157,2.0355,2.0442,2.0212,2.0212,2.0168,2.0142,2.0128,1.9996,1.9757,1.9705,1.9557,1.9323,1.9272,1.9272,1.9272,1.9272,1.9272,1.9272,1.9272,1.9272,1.9272,1.9272,1.9272,1.9272,1.9272,1.9272,1.9272,1.9272,1.9272,1.9272,1.9272,1.9272,1.9272,1.9272,1.9272,1.9227,1.913,1.8974,1.881,1.8436,1.7852,1.7582,1.6988,1.6074,1.5322,1.5269,1.5001,1.2792,1.1773,1.0904,2.4905,2.4547,2.4249,2.3665,2.3093,2.303,2.3127,2.3344,2.4287,2.4834,2.5046,2.6164,2.6063,2.5046,2.4834,2.3936,2.2672,2.2537,2.2456,2.2344,2.3266,2.3582,2.3444,2.5066,2.488,2.2915,2.322,2.2509,2.0968,2.0925,2.0763,2.0522,2.047,2.03,2.0086,2.0086,2.0034,2.0034,2.0034,1.9783,1.9324,1.9272,1.9272,1.9272,1.9279,1.9272,1.9324,1.9272,1.9272,1.9272,1.9272,1.9272,1.9272,1.9272,1.9286,1.933,1.933,1.9338,1.9389,1.9645,1.9859,1.9828,2.0055,2.0091,1.9835,1.9835,1.9974,2.0128,2.0161,2.0077,1.9842,1.9806,1.9681,1.9411,1.9352,1.936,1.9286,1.9272,1.9272,1.9272,1.9272,1.9272,1.9272,1.9272,1.9272,1.9272,1.9272,1.9272,1.9272,1.9272,1.9272,1.9272,1.9272,1.9272,1.9272,1.9272,1.9272,1.9272,1.9272,1.9272,1.9279,1.9279,1.9227,1.8974,1.8653,1.8003,1.7312,1.6776,1.6605,1.5263,1.5156,1.5162,1.3117,1.2254,1.1751,2.4778,2.4313,2.4169,2.3649,2.3062,2.3014,2.3014,2.307,2.3512,2.3728,2.3896,2.4982,2.558,2.5672,2.4162,2.3428,2.3444,2.2586,2.1989,2.1671,2.2116,2.2122,2.1905,2.2639,2.2511,2.1632,2.2013,2.1768,2.107,2.0925,2.0822,2.0771,2.0719,2.0617,2.0351,2.0351,2.0248,2.0138,2.0138,1.9983,1.9776,1.9776,1.9783,1.9776,1.9628,1.9532,1.9524,1.9376,1.9272,1.9272,1.9272,1.9272,1.9272,1.9272,1.9272,1.9272,1.9272,1.9272,1.9272,1.9456,1.9522,1.9529,1.9594,1.9608,1.9551,1.9529,1.9535,1.9638,1.9667,1.9601,1.9551,1.9477,1.9463,1.9353,1.9272,1.9272,1.9272,1.9272,1.9272,1.9272,1.9272,1.9272,1.9272,1.9272,1.9272,1.9272,1.9272,1.9272,1.9272,1.9272,1.9272,1.9272,1.9272,1.9272,1.9272,1.9272,1.9272,1.9272,1.9272,1.9272,1.9272,1.9272,1.9227,1.913,1.8862,1.8429,1.7838,1.6935,1.6346,1.5322,1.4615,1.462,1.446,1.3329,1.2257,2.4611,2.4121,2.3914,2.3483,2.3022,2.3014,2.3014,2.3014,2.3014,2.3014,2.307,2.3952,2.4927,2.5627,2.3821,2.3394,2.3784,2.2502,2.1632,2.1285,2.1254,2.1171,2.0941,2.1224,2.1173,2.0968,2.1275,2.1224,2.0976,2.0925,2.0925,2.0925,2.0925,2.0822,2.0624,2.0617,2.0506,2.0344,2.0292,2.0344,2.0292,2.0344,2.0241,2.0078,1.9931,1.9783,1.9828,1.9524,1.9428,1.9376,1.9331,1.9272,1.9272,1.9272,1.9272,1.9272,1.9272,1.9272,1.9272,1.9272,1.9272,1.9272,1.9272,1.9272,1.9272,1.9272,1.9272,1.9294,1.9272,1.9294,1.9272,1.9272,1.9272,1.9272,1.9272,1.9272,1.9272,1.9272,1.9272,1.9272,1.9272,1.9272,1.9272,1.9272,1.9272,1.9272,1.9272,1.9272,1.9272,1.9272,1.9272,1.9272,1.9272,1.9272,1.9272,1.9272,1.9272,1.9272,1.9272,1.9272,1.9272,1.9272,1.9272,1.9175,1.8974,1.8653,1.816,1.7305,1.6617,1.6293,1.5749,1.5209,1.5482,1.4298,1.3437,2.4388,2.4026,2.334,2.307,2.3014,2.3014,2.3014,2.3014,2.3014,2.3014,2.3014,2.307,2.3784,2.4855,2.4178,2.3937,2.3542,2.2144,2.129,2.0996,2.0972,2.0941,2.0976,2.1928,2.1878,2.1019,2.1725,2.1725,2.0925,2.0925,2.0925,2.0925,2.0925,2.0925,2.0873,2.0873,2.0873,2.0814,2.0822,2.0865,2.0873,2.0814,2.0609,2.0189,2.0078,2.0086,2.0034,1.9828,1.9672,1.968,1.948,1.9324,1.9331,1.9331,1.9272,1.9272,1.9272,1.9272,1.9272,1.9272,1.9272,1.9272,1.9272,1.9272,1.9272,1.9272,1.9272,1.9272,1.9272,1.9272,1.9272,1.9272,1.9272,1.9272,1.9272,1.9272,1.9272,1.9272,1.9272,1.9272,1.9272,1.9272,1.9272,1.9272,1.9272,1.9272,1.9272,1.9272,1.9272,1.9272,1.9272,1.9272,1.9272,1.9272,1.9272,1.9272,1.9272,1.9272,1.9272,1.9272,1.9272,1.9272,1.9272,1.9168,1.8855,1.8593,1.8325,1.8003,1.7529,1.7265,1.7206,1.6935,1.6399,1.6021,1.5215,2.4245,2.3689,2.3213,2.3014,2.3014,2.3014,2.3014,2.3014,2.3014,2.3014,2.3014,2.3014,2.368,2.4744,2.3369,2.3128,2.3474,2.1876,2.0992,2.0925,2.0925,2.0925,2.0917,2.1326,2.1326,2.1027,2.1275,2.1275,2.0968,2.0925,2.0925,2.0925,2.0925,2.0925,2.0925,2.0925,2.0925,2.0925,2.0925,2.0925,2.0925,2.0925,2.0763,2.0609,2.0454,2.0351,2.0359,2.0086,1.9983,1.9931,1.9879,1.9732,1.9576,1.9376,1.9272,1.9272,1.9272,1.9272,1.9272,1.9272,1.9272,1.9272,1.9272,1.9272,1.9272,1.9272,1.9272,1.9272,1.9272,1.9272,1.9272,1.9272,1.9272,1.9272,1.9272,1.9272,1.9272,1.9272,1.9272,1.9272,1.9272,1.9272,1.9272,1.9272,1.9272,1.9272,1.9272,1.9272,1.9272,1.9272,1.9272,1.9272,1.9272,1.9272,1.9272,1.9272,1.9272,1.9272,1.9272,1.9272,1.9272,1.9272,1.9272,1.922,1.8907,1.8534,1.8325,1.795,1.7635,1.7589,1.7589,1.7477,1.71,1.6558,1.5968,2.4007,2.333,2.3117,2.3014,2.3014,2.3014,2.3014,2.3014,2.3014,2.3014,2.3014,2.3014,2.3456,2.3883,2.2648,2.2371,2.292,2.1606,2.0925,2.0925,2.0925,2.0925,2.0925,2.0925,2.0925,2.0925,2.0925,2.0925,2.0925,2.0925,2.0925,2.0925,2.0925,2.0925,2.0925,2.0925,2.0925,2.0925,2.0925,2.0925,2.0925,2.0925,2.0925,2.0873,2.0719,2.0617,2.0617,2.0351,2.0241,2.0241,2.0138,1.9983,1.9732,1.9532,1.9383,1.9331,1.9272,1.9272,1.9272,1.9272,1.9272,1.9272,1.9272,1.9272,1.9272,1.9272,1.9272,1.9272,1.9272,1.9272,1.9272,1.9272,1.9272,1.9272,1.9272,1.9272,1.9272,1.9272,1.9272,1.9272,1.9272,1.9272,1.9272,1.9272,1.9272,1.9272,1.9272,1.9272,1.9272,1.9272,1.9272,1.9272,1.9272,1.9272,1.9272,1.9272,1.9272,1.9272,1.9272,1.9272,1.9279,1.9272,1.9272,1.922,1.8959,1.8586,1.822,1.7845,1.7687,1.7641,1.7589,1.7529,1.7259,1.6995,1.6558,2.3657,2.3085,2.3014,2.3014,2.3014,2.3014,2.3014,2.3014,2.3014,2.3014,2.3014,2.3014,2.307,2.2927,2.2322,2.2057,2.1991,2.1286,2.0925,2.0925,2.0925,2.0925,2.0925,2.0925,2.0925,2.0925,2.0925,2.0925,2.0925,2.0925,2.0925,2.0925,2.0925,2.0925,2.0925,2.0925,2.0925,2.0925,2.0925,2.0925,2.0925,2.0925,2.0925,2.0925,2.0873,2.0873,2.0873,2.0668,2.0514,2.0514,2.0292,1.9983,1.9783,1.9672,1.9576,1.9324,1.9272,1.9272,1.9272,1.9272,1.9272,1.9272,1.9272,1.9272,1.9272,1.9272,1.9272,1.9272,1.9272,1.9272,1.9272,1.9272,1.9272,1.9272,1.9272,1.9272,1.9272,1.9272,1.9272,1.9272,1.9272,1.9272,1.9272,1.9272,1.9272,1.9272,1.9272,1.9272,1.9272,1.9272,1.9272,1.9272,1.9272,1.9272,1.9272,1.9272,1.9272,1.9272,1.9272,1.9272,1.9279,1.9279,1.9175,1.9123,1.8691,1.8325,1.801,1.7635,1.7635,1.7589,1.7589,1.7589,1.7424,1.7265,1.7371,2.3707,2.3038,2.3014,2.3014,2.3014,2.3014,2.3014,2.3014,2.3014,2.3014,2.3014,2.3014,2.3014,2.2855,2.2338,2.2011,2.1947,2.1258,2.0925,2.0925,2.0925,2.0925,2.0925,2.0925,2.0925,2.0925,2.0925,2.0925,2.0925,2.0925,2.0925,2.0925,2.0925,2.0925,2.0925,2.0925,2.0925,2.0925,2.0925,2.0925,2.0925,2.0925,2.0925,2.0925,2.0925,2.0925,2.0925,2.0822,2.0771,2.0771,2.0712,2.0447,2.0034,1.9783,1.9583,1.9324,1.9272,1.9272,1.9272,1.9272,1.9272,1.9272,1.9272,1.9272,1.9272,1.9272,1.9272,1.9272,1.9272,1.9272,1.9272,1.9272,1.9272,1.9272,1.9272,1.9272,1.9272,1.9272,1.9272,1.9272,1.9272,1.9272,1.9272,1.9272,1.9272,1.9272,1.9272,1.9272,1.9272,1.9272,1.9272,1.9272,1.9272,1.9272,1.9272,1.9279,1.9279,1.9227,1.9227,1.9227,1.9227,1.9123,1.9071,1.8862,1.8436,1.8115,1.7747,1.7589,1.7589,1.7589,1.7589,1.7589,1.7589,1.7589,1.7589,2.3649,2.3038,2.3014,2.3014,2.3022,2.3239,2.3183,2.307,2.3239,2.3247,2.3078,2.3014,2.3014,2.2871,2.233,2.2019,2.1932,2.1234,2.0925,2.0925,2.0925,2.0925,2.0925,2.0925,2.0925,2.0925,2.0925,2.0925,2.0925,2.0925,2.0925,2.0925,2.0925,2.0925,2.0925,2.0925,2.0925,2.0925,2.0925,2.0925,2.0925,2.0925,2.0925,2.0925,2.0925,2.0925,2.0925,2.0925,2.0925,2.0925,2.0925,2.066,2.013,1.9931,1.968,1.9376,1.9272,1.9272,1.9272,1.9272,1.9272,1.9272,1.9272,1.9272,1.9272,1.9272,1.9272,1.9272,1.9272,1.9272,1.9272,1.9272,1.9272,1.9272,1.9272,1.9272,1.9272,1.9272,1.9272,1.9272,1.9272,1.9272,1.9272,1.9272,1.9272,1.9272,1.9272,1.9272,1.9272,1.9272,1.9272,1.9272,1.9272,1.9272,1.9272,1.9279,1.9279,1.9182,1.913,1.9078,1.9078,1.8855,1.8698,1.8489,1.8174,1.801,1.7694,1.7641,1.7589,1.7589,1.7589,1.7589,1.7589,1.7589,1.7589,2.3649,2.3046,2.3014,2.3014,2.307,2.352,2.3464,2.3127,2.352,2.3408,2.307,2.3014,2.3014,2.2863,2.2275,2.2011,2.1884,2.1242,2.0925,2.0925,2.0925,2.0925,2.0925,2.0925,2.0925,2.0925,2.0925,2.0925,2.0925,2.0925,2.0925,2.0925,2.0925,2.0925,2.0925,2.0925,2.0925,2.0925,2.0925,2.0925,2.0925,2.0925,2.0925,2.0925,2.0925,2.0925,2.0925,2.0925,2.0925,2.0925,2.0925,2.066,2.0241,2.0138,1.9828,1.9376,1.9324,1.9272,1.9272,1.9272,1.9272,1.9272,1.9272,1.9294,1.9338,1.9367,1.9396,1.9433,1.9381,1.9338,1.9338,1.9286,1.9279,1.9272,1.9272,1.9272,1.9272,1.9272,1.9272,1.9272,1.9272,1.9272,1.9272,1.9272,1.9272,1.9272,1.9272,1.9272,1.9272,1.9272,1.9272,1.9272,1.9272,1.9272,1.9272,1.9123,1.9123,1.9026,1.8921,1.8757,1.881,1.8593,1.8325,1.8122,1.8016,1.7852,1.774,1.7641,1.7589,1.7589,1.7589,1.7589,1.7589,1.7589,1.7589,2.3707,2.303,2.3014,2.3014,2.3022,2.3183,2.3127,2.3014,2.3183,2.3183,2.3014,2.3014,2.3014,2.2934,2.2283,2.2011,2.1836,2.1234,2.0925,2.0925,2.0925,2.0925,2.0925,2.0925,2.0925,2.0925,2.0925,2.0925,2.0925,2.0925,2.0925,2.0925,2.0925,2.0925,2.0925,2.0925,2.0925,2.0925,2.0925,2.0925,2.0925,2.0925,2.0925,2.0925,2.0925,2.0925,2.0925,2.0925,2.0925,2.0925,2.0925,2.0771,2.0411,2.0197,1.9931,1.9628,1.939,1.9286,1.9286,1.9301,1.9294,1.9272,1.9345,1.9389,1.9616,1.9691,1.9747,1.9864,1.9791,1.9691,1.9647,1.9433,1.9323,1.9272,1.9338,1.9316,1.9279,1.9272,1.9272,1.9272,1.9272,1.9272,1.9272,1.9272,1.9272,1.9272,1.9272,1.9272,1.9272,1.9272,1.9272,1.9272,1.9272,1.9272,1.9227,1.9071,1.8974,1.8869,1.8653,1.8325,1.8325,1.8272,1.801,1.7799,1.7799,1.7694,1.7641,1.7641,1.7589,1.7589,1.7589,1.7589,1.7589,1.7589,1.7589,2.3699,2.3022,2.3014,2.3014,2.3014,2.3296,2.3239,2.3078,2.3296,2.3239,2.307,2.3014,2.3014,2.2942,2.233,2.2011,2.1916,2.1234,2.0941,2.0925,2.0925,2.0925,2.0925,2.0925,2.0925,2.0925,2.0925,2.0925,2.0925,2.0925,2.0925,2.0925,2.0925,2.0925,2.0925,2.0925,2.0925,2.0925,2.0925,2.0925,2.0925,2.0925,2.0925,2.0925,2.0925,2.0925,2.0925,2.0925,2.0925,2.0925,2.0873,2.0771,2.0514,2.0248,1.9983,1.9732,1.9546,1.9544,1.9566,1.9594,1.9681,1.9681,1.9681,1.9769,1.9923,1.9967,2.0069,2.0095,2.0047,1.9981,1.993,1.9784,1.9689,1.9711,1.9681,1.9572,1.9323,1.9272,1.9272,1.9272,1.9272,1.9279,1.9279,1.9286,1.9279,1.9272,1.9272,1.9272,1.9272,1.9279,1.9263,1.9255,1.9195,1.9091,1.8986,1.8836,1.8671,1.8559,1.8401,1.8058,1.801,1.801,1.7852,1.7694,1.7641,1.7589,1.7589,1.7589,1.7589,1.7589,1.7589,1.7589,1.7589,1.7589,1.7589,2.3649,2.3014,2.3014,2.3014,2.307,2.3528,2.3408,2.3183,2.3464,2.3408,2.307,2.3014,2.3014,2.2974,2.2338,2.2003,2.1963,2.1242,2.0988,2.0925,2.0925,2.0925,2.0925,2.0925,2.0925,2.0925,2.0925,2.0925,2.0925,2.0925,2.0925,2.0925,2.0925,2.0925,2.0925,2.0925,2.0925,2.0925,2.0925,2.0925,2.0925,2.0925,2.0925,2.0925,2.0925,2.0925,2.0925,2.0925,2.0925,2.0925,2.0925,2.0802,2.056,2.0369,2.0149,1.9926,1.9886,1.9867,1.9889,2.0025,2.0132,2.0103,2.0117,2.0219,2.0212,2.0234,2.0278,2.0394,2.027,2.0259,2.0186,2.0139,2.0103,2.0066,2.0124,1.993,1.955,1.9374,1.9374,1.9381,1.9389,1.9381,1.9374,1.9367,1.9396,1.963,1.9594,1.9601,1.9555,1.9517,1.9396,1.9254,1.9105,1.8875,1.871,1.8551,1.8386,1.822,1.8068,1.7875,1.7767,1.7747,1.7694,1.7589,1.7589,1.7589,1.7589,1.7589,1.7589,1.7589,1.7589,1.7589,1.7589,1.7589,1.7589,2.3649,2.3014,2.3014,2.3014,2.3014,2.3127,2.3127,2.3014,2.3127,2.3127,2.3022,2.3014,2.3014,2.2974,2.2299,2.2011,2.1916,2.1266,2.0925,2.0925,2.0925,2.0925,2.0925,2.0925,2.0925,2.0925,2.0925,2.0925,2.0925,2.0925,2.0925,2.0925,2.0925,2.0925,2.0925,2.0925,2.0925,2.0925,2.0925,2.0925,2.0925,2.0925,2.0925,2.0925,2.0925,2.0925,2.0925,2.0925,2.0925,2.0925,2.0897,2.0964,2.099,2.0685,2.0529,2.0567,2.0318,2.0135,2.015,2.0223,2.0197,2.0249,2.0278,2.0292,2.0548,2.0618,2.0742,2.0867,2.0772,2.0537,2.0355,2.0205,2.0249,2.027,2.0249,2.0183,2.0008,2.0011,1.9967,1.9981,1.9981,1.9964,2.0003,1.9959,1.9974,2.0018,2.0003,2.0011,1.9873,1.9729,1.9524,1.9291,1.913,1.8933,1.8772,1.8589,1.8387,1.8245,1.8057,1.7923,1.7809,1.7695,1.7742,1.7682,1.7589,1.7589,1.7589,1.7589,1.7589,1.7589,1.7589,1.7589,1.7589,1.7589,1.7589,2.3699,2.303,2.3014,2.3014,2.3014,2.3014,2.3014,2.3014,2.3014,2.3014,2.3014,2.3014,2.3014,2.295,2.2299,2.2011,2.1844,2.125,2.0925,2.0925,2.0925,2.0925,2.0925,2.0925,2.0925,2.0925,2.0925,2.0925,2.0925,2.0925,2.0925,2.0925,2.0925,2.0925,2.0925,2.0925,2.0925,2.0925,2.0925,2.0925,2.0925,2.0925,2.0925,2.0925,2.0925,2.0925,2.0925,2.0925,2.0917,2.0916,2.0919,2.099,2.1141,2.0849,2.0764,2.0738,2.0674,2.045,2.0416,2.0603,2.0706,2.0676,2.0684,2.0779,2.0903,2.0947,2.1013,2.113,2.105,2.0867,2.0713,2.0698,2.0691,2.0691,2.0684,2.0684,2.0584,2.038,2.0183,2.0183,2.0146,2.0154,2.0183,2.027,2.0212,2.0124,2.011,2.0117,1.9877,1.974,1.9488,1.9303,1.9174,1.9016,1.8858,1.8666,1.8495,1.84,1.8311,1.823,1.817,1.805,1.7943,1.7809,1.7649,1.7589,1.7589,1.7589,1.7589,1.7589,1.7589,1.7589,1.7589,1.7589,1.7589,2.3699,2.3014,2.3014,2.3014,2.3014,2.3014,2.3014,2.3014,2.3014,2.3014,2.3014,2.3014,2.3014,2.2863,2.2275,2.2003,2.1624,2.1274,2.0925,2.0925,2.0925,2.0925,2.0925,2.0925,2.0925,2.0925,2.0925,2.0925,2.0925,2.0925,2.0925,2.0925,2.0925,2.0925,2.0925,2.0925,2.0925,2.0925,2.0925,2.0925,2.0925,2.0925,2.0925,2.0925,2.0925,2.0925,2.0897,2.0909,2.094,2.1012,2.1023,2.1024,2.0941,2.0825,2.0731,2.0768,2.0836,2.0779,2.0774,2.1006,2.1145,2.1211,2.1189,2.1181,2.1181,2.1167,2.1174,2.1189,2.1159,2.1159,2.1196,2.1123,2.1137,2.1159,2.1181,2.1211,2.1115,2.0643,2.046,2.0402,2.0497,2.0589,2.0475,2.0434,2.0332,2.0259,2.0252,2.0142,1.9976,1.9784,1.9577,1.9424,1.9311,1.9219,1.905,1.9016,1.878,1.8653,1.8557,1.8504,1.847,1.8317,1.8136,1.7862,1.7716,1.7682,1.7629,1.7589,1.7589,1.7589,1.7589,1.7589,1.7589,1.7589,1.7589,2.3642,2.3014,2.3014,2.3014,2.3014,2.3014,2.3014,2.3014,2.3014,2.3014,2.3014,2.3014,2.3014,2.2831,2.2275,2.174,2.125,2.098,2.0925,2.0925,2.0925,2.0925,2.0925,2.0925,2.0925,2.0925,2.0925,2.0925,2.0925,2.0925,2.0925,2.0925,2.0925,2.0925,2.0925,2.0925,2.0925,2.0925,2.0925,2.0925,2.0925,2.0925,2.0925,2.0925,2.0925,2.0889,2.0917,2.0958,2.0981,2.1022,2.1038,2.1086,2.1083,2.104,2.1134,2.1256,2.1191,2.1064,2.1101,2.1152,2.1211,2.1211,2.1211,2.1211,2.1211,2.1211,2.1211,2.1211,2.1211,2.1211,2.1211,2.1211,2.1211,2.1211,2.1211,2.1211,2.1174,2.1007,2.0883,2.0783,2.0898,2.0856,2.0648,2.0485,2.0407,2.0329,2.028,2.0245,2.0033,1.9919,1.9704,1.9594,1.9476,1.9425,1.9316,1.9263,1.9132,1.8925,1.8831,1.8744,1.8671,1.8531,1.833,1.8156,1.7976,1.7883,1.7796,1.7675,1.7595,1.7602,1.7595,1.7589,1.7589,1.7589,1.7589,2.3649,2.303,2.3014,2.3014,2.3014,2.3014,2.3014,2.3014,2.3014,2.3014,2.3014,2.3014,2.3014,2.2823,2.2275,2.1576,2.1068,2.0925,2.0925,2.0925,2.0925,2.0925,2.0925,2.0925,2.0925,2.0925,2.0925,2.0925,2.0925,2.0925,2.0925,2.0925,2.0925,2.0925,2.0925,2.0925,2.0925,2.0925,2.0925,2.0925,2.0925,2.0925,2.0925,2.0925,2.0897,2.0909,2.0958,2.0956,2.1009,2.1054,2.1098,2.1108,2.1185,2.1259,2.1319,2.146,2.1325,2.1211,2.1211,2.1211,2.1211,2.1211,2.1211,2.1211,2.1211,2.1211,2.1211,2.1211,2.1211,2.1211,2.1211,2.1211,2.1211,2.1211,2.1211,2.1211,2.1146,2.1024,2.0967,2.0902,2.0845,2.0694,2.0623,2.0494,2.0472,2.0436,2.0328,2.0213,2.0046,1.9931,1.97,1.9584,1.9468,1.9468,1.9417,1.941,1.9339,1.9185,1.9085,1.8998,1.8971,1.8871,1.8751,1.8604,1.8355,1.8223,1.7996,1.7883,1.7756,1.7642,1.7629,1.7622,1.7602,1.7589,1.7589,2.3649,2.3014,2.3014,2.3014,2.3014,2.3014,2.3014,2.3014,2.3014,2.3014,2.3014,2.3014,2.3014,2.2831,2.2275,2.1592,2.0956,2.0925,2.0925,2.0925,2.0925,2.0925,2.0925,2.0925,2.0925,2.0925,2.0925,2.0925,2.0925,2.0925,2.0925,2.0925,2.0925,2.0925,2.0925,2.0925,2.0925,2.0925,2.0925,2.0925,2.0925,2.0925,2.0972,2.0968,2.0976,2.1055,2.1565,2.1573,2.1788,2.1963,2.2039,2.1971,2.1919,2.1923,2.1923,2.1816,2.1489,2.1268,2.1211,2.1211,2.1211,2.1211,2.1211,2.1211,2.1211,2.1211,2.1211,2.1211,2.1211,2.1211,2.1211,2.1211,2.1211,2.1211,2.1203,2.1146,2.1024,2.0902,2.0666,2.0608,2.0551,2.0493,2.0392,2.0277,2.0155,2.0097,2.004,1.9873,1.9764,1.9764,1.9591,1.9482,1.9424,1.9424,1.9424,1.9424,1.9417,1.9363,1.9316,1.9269,1.931,1.933,1.9118,1.8938,1.8878,1.8671,1.8384,1.8075,1.8076,1.7963,1.7776,1.7709,1.7762,1.7669,1.7589,2.3642,2.3014,2.3014,2.3014,2.3014,2.3014,2.3014,2.3014,2.3014,2.3014,2.3014,2.3014,2.295,2.2736,2.2267,2.1576,2.1048,2.0873,2.0873,2.0873,2.0873,2.0822,2.0873,2.0925,2.0814,2.0763,2.0814,2.0925,2.0865,2.0865,2.0925,2.0925,2.0873,2.0925,2.0925,2.0873,2.0925,2.0925,2.0933,2.0948,2.0956,2.0972,2.1095,2.1209,2.1312,2.165,2.2564,2.267,2.3002,2.3934,2.4128,2.4216,2.4283,2.4292,2.4292,2.3679,2.258,2.1211,2.1425,2.1489,2.1432,2.1432,2.1268,2.1211,2.1211,2.1211,2.1211,2.1211,2.1211,2.1211,2.1211,2.1211,2.1211,2.1211,2.1211,2.1024,2.0845,2.073,2.0493,2.0155,2.0097,2.0213,2.0162,1.9989,1.9866,1.9758,1.97,1.9591,1.9533,1.9533,1.9533,1.9424,1.9424,1.9424,1.9424,1.9424,1.9424,1.9424,1.9424,1.9424,1.9424,1.9424,1.9424,1.9219,1.9223,1.9032,1.8711,1.851,1.8437,1.8283,1.8083,1.8016,1.7949,1.7856,1.7722,2.3468,2.3022,2.3014,2.3014,2.3014,2.3014,2.3014,2.3014,2.3014,2.3014,2.2958,2.2845,2.2479,2.2001,2.1565,2.1205,2.0742,2.0676,2.0676,2.0668,2.0668,2.0617,2.0454,2.0447,2.0447,2.0498,2.0447,2.0395,2.0506,2.0771,2.0925,2.0873,2.0771,2.0771,2.0854,2.0727,2.0771,2.0877,2.1048,2.1159,2.1274,2.1401,2.1515,2.1506,2.2001,2.2568,2.3108,2.3753,2.4044,2.4671,2.4684,2.471,2.4663,2.4663,2.4663,2.4616,2.3838,2.3295,2.3183,2.2595,2.2263,2.1987,2.1653,2.1211,2.1211,2.1211,2.1211,2.1211,2.1211,2.1211,2.1211,2.1211,2.1211,2.1211,2.1146,2.0967,2.073,2.05,2.0328,1.9982,1.97,1.9815,1.988,1.9764,1.9649,1.9591,1.9533,1.9482,1.9482,1.9482,1.9482,1.9424,1.9424,1.9424,1.9424,1.9424,1.9424,1.9424,1.9424,1.9424,1.9424,1.9424,1.9424,1.9424,1.935,1.9196,1.8951,1.8831,1.8711,1.8551,1.839,1.8343,1.8297,1.8263,1.811,2.3177,2.2796,2.2853,2.2901,2.2901,2.2901,2.2845,2.2788,2.2732,2.2788,2.2732,2.2539,2.1958,2.1278,2.1125,2.0894,2.0434,2.0411,2.0411,2.0411,2.0359,2.03,2.0241,2.0138,2.0138,2.0086,2.0189,2.0251,2.0379,2.0587,2.0786,2.0727,2.0506,2.0576,2.0682,2.0685,2.0664,2.0977,2.1157,2.1251,2.1351,2.1531,2.1788,2.2145,2.2756,2.3427,2.3993,2.4622,2.5123,2.5746,2.5818,2.5945,2.5891,2.5945,2.5945,2.5945,2.5617,2.5617,2.5122,2.4467,2.3528,2.2757,2.1979,2.1211,2.1211,2.1211,2.1211,2.1211,2.1211,2.1211,2.1211,2.1211,2.1211,2.1146,2.1089,2.0902,2.0666,2.0385,2.0097,1.9758,1.9533,1.9475,1.954,1.9482,1.9424,1.9424,1.9424,1.9424,1.9424,1.9424,1.9424,1.9424,1.9424,1.9424,1.9424,1.9424,1.9424,1.9424,1.9424,1.9424,1.9424,1.9424,1.9424,1.9424,1.9424,1.9363,1.9209,1.9065,1.8978,1.8878,1.8778,1.8651,1.8597,1.8564,1.8464,2.277,2.2165,2.2456,2.2626,2.2626,2.2634,2.2456,2.2222,2.2222,2.2222,2.2222,2.2142,2.1742,2.1207,2.0954,2.0689,2.0161,2.0145,2.0138,2.0138,2.0138,2.0086,2.0042,2.0013,2.008,2.0088,2.0119,2.0271,2.043,2.0506,2.0428,2.0191,2.0314,2.0398,2.0565,2.0725,2.0787,2.1002,2.1179,2.1217,2.1287,2.1496,2.2001,2.2917,2.3255,2.4052,2.6463,2.6435,2.6706,2.7511,2.7511,2.7511,2.7403,2.7457,2.7394,2.7394,2.7447,2.7403,2.707,2.5672,2.4181,2.3087,2.2207,2.1653,2.1539,2.1318,2.1268,2.1261,2.1211,2.1211,2.1211,2.1211,2.1211,2.1153,2.1031,2.0788,2.05,2.0213,1.9931,1.9533,1.9424,1.9424,1.9424,1.9424,1.9424,1.9424,1.9424,1.9424,1.9424,1.9424,1.9424,1.9424,1.9424,1.9424,1.9424,1.9424,1.9424,1.9424,1.9424,1.9424,1.9424,1.9424,1.9424,1.9424,1.9424,1.9424,1.9417,1.9303,1.9185,1.9219,1.9152,1.8978,1.8818,1.8738,1.8644,2.2485,2.1896,2.201,2.2124,2.2294,2.2286,2.223,2.2116,2.2108,2.2002,2.1831,2.1809,2.1463,2.0962,2.0602,2.0427,2.0144,1.9903,1.9858,1.9828,1.9828,1.9724,1.9725,1.9822,1.9948,1.9971,2.0105,2.0208,2.0303,2.0426,2.0327,2.0208,2.0331,2.0605,2.0772,2.0872,2.0971,2.1131,2.1307,2.1406,2.1617,2.245,2.3036,2.33,2.5149,2.5584,2.6672,2.7349,2.7799,2.813,2.8291,2.8301,2.8301,2.8301,2.8301,2.8301,2.8301,2.8301,2.8077,2.6726,2.5351,2.4292,2.3575,2.3023,2.2369,2.2312,2.1816,2.1539,2.1261,2.1375,2.1211,2.1211,2.1211,2.1153,2.0974,2.073,2.0443,2.0097,1.9815,1.9482,1.9424,1.9424,1.9424,1.9424,1.9424,1.9424,1.9424,1.9424,1.9424,1.9424,1.9424,1.9424,1.9424,1.9424,1.9424,1.9424,1.9424,1.9424,1.9424,1.9424,1.9424,1.9424,1.9424,1.9424,1.9424,1.9424,1.9424,1.9424,1.9403,1.937,1.935,1.9296,1.9085,1.8925,1.8844,2.2052,2.1576,2.1554,2.1717,2.1945,2.2002,2.1938,2.1831,2.1831,2.1725,2.1554,2.1539,2.1255,2.0706,2.0384,2.0163,1.9976,1.9754,1.9621,1.9576,1.9524,1.9487,1.9522,1.9676,1.9883,1.9916,2.0091,2.0245,2.0439,2.0384,2.0442,2.0612,2.0682,2.088,2.0886,2.1086,2.1123,2.1199,2.1319,2.1813,2.2123,2.2927,2.4164,2.4339,2.5882,2.6717,2.7178,2.7789,2.813,2.8237,2.8301,2.8301,2.8301,2.8301,2.8301,2.8301,2.8301,2.8301,2.8014,2.7178,2.6182,2.5351,2.4671,2.4181,2.3743,2.3463,2.3023,2.2036,2.1816,2.1596,2.1375,2.1211,2.1211,2.1153,2.0967,2.073,2.0385,2.0104,1.9764,1.9482,1.9424,1.9424,1.9424,1.9424,1.9424,1.9424,1.9424,1.9424,1.9424,1.9424,1.9424,1.9424,1.9424,1.9424,1.9424,1.9424,1.9424,1.9424,1.9424,1.9424,1.9424,1.9424,1.9424,1.9424,1.9424,1.9424,1.9424,1.9424,1.9424,1.9424,1.9397,1.937,1.9285,1.9138,1.9105,2.1518,2.1225,2.1211,2.1439,2.1668,2.1725,2.1554,2.1325,2.1325,2.1268,2.1268,2.1261,2.1106,2.0728,2.0428,2.0145,1.9927,1.9596,1.9435,1.9457,1.9552,1.9588,1.9749,1.9872,2.0062,2.0186,2.0307,2.0497,2.0713,2.072,2.0867,2.1006,2.1048,2.0996,2.0757,2.102,2.1167,2.1231,2.1216,2.1813,2.242,2.3007,2.43,2.536,2.6472,2.7305,2.7853,2.8067,2.8301,2.8301,2.8301,2.8301,2.8301,2.8301,2.8301,2.8301,2.8301,2.8301,2.8184,2.7133,2.669,2.6463,2.5899,2.5177,2.4782,2.4497,2.3958,2.27,2.2482,2.2093,2.1653,2.1211,2.1211,2.1146,2.0967,2.073,2.0443,2.0162,1.988,1.954,1.9424,1.9424,1.9424,1.9424,1.9424,1.9424,1.9424,1.9424,1.9424,1.9424,1.9424,1.9424,1.9424,1.9424,1.9424,1.9424,1.9424,1.9424,1.9424,1.9424,1.9424,1.9424,1.9424,1.9424,1.9424,1.9424,1.9424,1.9424,1.9424,1.9424,1.9424,1.941,1.9417,1.9339,1.9272,2.1503,2.1218,2.1211,2.1268,2.1382,2.1382,2.1268,2.1211,2.1211,2.1211,2.1211,2.1211,2.1167,2.0911,2.0508,2.0186,2.0047,1.9815,1.9654,1.9669,1.9769,1.9945,2.0098,2.0259,2.0428,2.0589,2.0735,2.0867,2.1042,2.1013,2.1064,2.1196,2.1203,2.1152,2.1086,2.1181,2.1203,2.1203,2.1261,2.1482,2.1987,2.3247,2.4458,2.5452,2.6789,2.7691,2.813,2.813,2.8077,2.8067,2.8014,2.813,2.8184,2.8237,2.8301,2.8301,2.8301,2.8301,2.8237,2.7853,2.7745,2.7403,2.7187,2.6454,2.6063,2.5058,2.4181,2.3255,2.2644,2.2036,2.1261,2.1211,2.1211,2.1211,2.1031,2.0795,2.05,2.0328,2.0046,1.9649,1.9424,1.9424,1.9424,1.9424,1.9424,1.9424,1.9424,1.9424,1.9424,1.9424,1.9424,1.9424,1.9424,1.9424,1.9424,1.9424,1.9424,1.9424,1.9424,1.9424,1.9424,1.9424,1.9424,1.9424,1.9424,1.9424,1.9424,1.9424,1.9424,1.9424,1.9424,1.9424,1.9424,1.9417,1.9403,2.1401,2.1218,2.1211,2.1211,2.1211,2.1211,2.1211,2.1211,2.1211,2.1211,2.1211,2.1211,2.1203,2.1042,2.0698,2.0351,2.0369,2.0084,1.993,1.9952,2.012,2.0267,2.0435,2.0618,2.0728,2.0903,2.1057,2.1196,2.1174,2.1196,2.1203,2.1203,2.1211,2.1196,2.1189,2.1203,2.1211,2.1211,2.1268,2.1482,2.2207,2.3247,2.4458,2.5562,2.6626,2.7574,2.7628,2.7628,2.7511,2.7403,2.7457,2.7691,2.7799,2.8067,2.8184,2.8301,2.8301,2.8077,2.7736,2.7574,2.7187,2.6672,2.7682,2.7906,2.7241,2.6563,2.5571,2.4475,2.303,2.2256,2.1873,2.1816,2.1261,2.1261,2.1024,2.073,2.0443,2.027,1.9989,1.9591,1.9424,1.9424,1.9424,1.9424,1.9424,1.9424,1.9424,1.9424,1.9424,1.9424,1.9424,1.9424,1.9424,1.9424,1.9424,1.9424,1.9424,1.9424,1.9424,1.9424,1.9424,1.9424,1.9424,1.9424,1.9424,1.9424,1.9424,1.9424,1.9424,1.9424,1.9424,1.9424,1.9424,1.9424,1.9424,2.1211,2.1211,2.1211,2.1211,2.1211,2.1211,2.1211,2.1211,2.1211,2.1211,2.1211,2.1211,2.1211,2.1145,2.0845,2.0691,2.064,2.0314,2.0234,2.0289,2.0398,2.0489,2.0613,2.0786,2.0933,2.1101,2.1211,2.1211,2.1211,2.1211,2.1211,2.1211,2.1211,2.1211,2.1211,2.1211,2.1211,2.1211,2.1268,2.1596,2.2263,2.2926,2.4078,2.5131,2.6073,2.6409,2.6518,2.6636,2.6182,2.6009,2.6182,2.6527,2.7025,2.7691,2.8077,2.8301,2.8301,2.7736,2.7187,2.7079,2.6354,2.6118,2.7124,2.7843,2.7906,2.7349,2.6581,2.5744,2.4633,2.3751,2.3087,2.2263,2.1432,2.1196,2.0902,2.0615,2.0328,2.0104,1.9764,1.9533,1.9424,1.9424,1.9424,1.9424,1.9424,1.9424,1.9424,1.9424,1.9424,1.9424,1.9424,1.9424,1.9424,1.9424,1.9424,1.9424,1.9424,1.9424,1.9424,1.9424,1.9424,1.9424,1.9424,1.9424,1.9424,1.9424,1.9424,1.9424,1.9424,1.9424,1.9424,1.9424,1.9424,1.9424,1.9424,2.1211,2.1211,2.1211,2.1211,2.1211,2.1211,2.1211,2.1211,2.1211,2.1211,2.1211,2.1211,2.1211,2.1174,2.0874,2.0764,2.0698,2.0647,2.0548,2.0584,2.075,2.094,2.102,2.1042,2.1137,2.1167,2.1211,2.1211,2.1211,2.1211,2.1211,2.1211,2.1211,2.1211,2.1211,2.1211,2.1211,2.1211,2.1211,2.1482,2.1987,2.2482,2.348,2.4142,2.4965,2.5131,2.5296,2.6018,2.5899,2.6073,2.707,2.7682,2.7853,2.813,2.8301,2.8301,2.8237,2.8077,2.7682,2.6961,2.6082,2.5634,2.6463,2.6799,2.7025,2.7025,2.6916,2.6354,2.5626,2.4578,2.3584,2.27,2.1816,2.1253,2.0902,2.0558,2.027,1.9989,1.9649,1.9482,1.9424,1.9424,1.9424,1.9424,1.9424,1.9424,1.9424,1.9424,1.9424,1.9424,1.9424,1.9424,1.9424,1.9424,1.9424,1.9424,1.9424,1.9424,1.9424,1.9424,1.9424,1.9424,1.9424,1.9424,1.9424,1.9424,1.9424,1.9424,1.9424,1.9424,1.9424,1.9424,1.9424,1.9424,1.9424,2.1211,2.1211,2.1211,2.1211,2.1211,2.1211,2.1211,2.1211,2.1211,2.1211,2.1211,2.1211,2.1211,2.1189,2.102,2.0933,2.0925,2.0933,2.0918,2.0969,2.1108,2.1145,2.1203,2.1211,2.1196,2.1211,2.1211,2.1211,2.1211,2.1211,2.1211,2.1211,2.1211,2.1211,2.1211,2.1211,2.1211,2.1211,2.1211,2.1211,2.1539,2.1987,2.2369,2.303,2.3799,2.3966,2.4181,2.5186,2.5571,2.558,2.6518,2.7574,2.7736,2.7906,2.8291,2.8301,2.8291,2.7565,2.6735,2.6073,2.536,2.4872,2.4982,2.5029,2.5854,2.63,2.6581,2.6518,2.579,2.5075,2.4133,2.3199,2.2263,2.1318,2.091,2.05,2.0155,1.9873,1.9649,1.9482,1.9424,1.9424,1.9424,1.9424,1.9424,1.9424,1.9424,1.9424,1.9424,1.9424,1.9424,1.9424,1.9424,1.9424,1.9424,1.9424,1.9424,1.9424,1.9424,1.9424,1.9424,1.9424,1.9424,1.9424,1.9424,1.9424,1.9424,1.9424,1.9424,1.9424,1.9424,1.9424,1.9424,1.9424,1.9424,2.1211,2.1211,2.1211,2.1211,2.1211,2.1211,2.1211,2.1211,2.1211,2.1211,2.1211,2.1211,2.1211,2.1203,2.1145,2.1145,2.113,2.113,2.1123,2.1196,2.1181,2.1211,2.1211,2.1211,2.1211,2.1211,2.1211,2.1211,2.1211,2.1211,2.1211,2.1211,2.1211,2.1211,2.1211,2.1211,2.1211,2.1211,2.1211,2.1211,2.1211,2.1432,2.171,2.2539,2.2813,2.2918,2.3199,2.3687,2.4228,2.43,2.5194,2.6799,2.7295,2.7736,2.8184,2.813,2.8014,2.7124,2.5954,2.5067,2.3695,2.2918,2.2369,2.303,2.4086,2.5634,2.6127,2.6073,2.5397,2.4799,2.3919,2.3199,2.2369,2.1417,2.0737,2.0385,2.0097,1.9758,1.954,1.9424,1.9424,1.9424,1.9424,1.9424,1.9424,1.9424,1.9424,1.9424,1.9424,1.9424,1.9424,1.9424,1.9424,1.9424,1.9424,1.9424,1.9424,1.9424,1.9424,1.9424,1.9424,1.9424,1.9424,1.9424,1.9424,1.9424,1.9424,1.9424,1.9424,1.9424,1.9424,1.9424,1.9424,1.9424,1.9424,2.1211,2.1211,2.1211,2.1211,2.1211,2.1211,2.1211,2.1211,2.1211,2.1211,2.1211,2.1211,2.1211,2.1211,2.1211,2.1211,2.1211,2.1211,2.1211,2.1203,2.1211,2.1211,2.1211,2.1211,2.1211,2.1211,2.1211,2.1211,2.1211,2.1211,2.1211,2.1211,2.1211,2.1211,2.1211,2.1211,2.1211,2.1211,2.1211,2.1211,2.1211,2.1211,2.1489,2.171,2.171,2.1873,2.2425,2.3623,2.4228,2.4735,2.6681,2.7682,2.796,2.8174,2.8291,2.813,2.7574,2.6735,2.5799,2.4633,2.3416,2.2918,2.2587,2.2256,2.2862,2.4569,2.5397,2.5177,2.4956,2.4411,2.3807,2.3199,2.2474,2.146,2.0565,2.027,1.9982,1.97,1.9424,1.9424,1.9424,1.9424,1.9424,1.9424,1.9424,1.9424,1.9424,1.9424,1.9424,1.9424,1.9424,1.9424,1.9424,1.9424,1.9424,1.9424,1.9424,1.9424,1.9424,1.9424,1.9424,1.9424,1.9424,1.9424,1.9424,1.9424,1.9424,1.9424,1.9424,1.9424,1.9424,1.9424,1.9424,1.9424,1.9424,2.1211,2.1211,2.1211,2.1211,2.1211,2.1211,2.1211,2.1211,2.1211,2.1211,2.1211,2.1211,2.1211,2.1211,2.1211,2.1211,2.1211,2.1211,2.1211,2.1211,2.1211,2.1211,2.1211,2.1211,2.1211,2.1211,2.1211,2.1211,2.1233,2.1211,2.1211,2.1211,2.1211,2.1211,2.1211,2.1211,2.1211,2.1211,2.1211,2.1211,2.1211,2.1211,2.1211,2.1211,2.1211,2.1375,2.2482,2.3799,2.4735,2.5672,2.734,2.8014,2.8184,2.8237,2.8291,2.8184,2.7682,2.6789,2.579,2.4799,2.3536,2.2926,2.2918,2.2474,2.1596,2.3087,2.364,2.364,2.4727,2.4403,2.364,2.2982,2.2127,2.1174,2.0558,2.0155,1.9815,1.9533,1.9424,1.9424,1.9424,1.9424,1.9424,1.9424,1.9424,1.9424,1.9424,1.9424,1.9424,1.9424,1.9424,1.9424,1.9424,1.9424,1.9424,1.9424,1.9424,1.9424,1.9424,1.9424,1.9424,1.9424,1.9424,1.9424,1.9424,1.9424,1.9424,1.9424,1.9424,1.9424,1.9424,1.9424,1.9424,1.9424,1.9424,2.1211,2.1211,2.1211,2.1211,2.1211,2.1211,2.1211,2.1211,2.1211,2.1211,2.1211,2.1211,2.1211,2.1211,2.1211,2.1211,2.1211,2.1211,2.1211,2.1211,2.1211,2.1211,2.1211,2.1211,2.1254,2.1306,2.1328,2.1328,2.1328,2.1328,2.132,2.124,2.1211,2.1211,2.1211,2.1211,2.1211,2.1211,2.1211,2.1211,2.1211,2.1211,2.1211,2.1211,2.1318,2.1809,2.2918,2.4078,2.5241,2.64,2.7511,2.8067,2.8301,2.8301,2.8301,2.813,2.7403,2.6282,2.5342,2.5075,2.3536,2.2482,2.2757,2.2482,2.1603,2.1489,2.2036,2.2644,2.3735,2.3902,2.3087,2.2539,2.1687,2.0945,2.0493,2.0046,1.9707,1.9424,1.9424,1.9424,1.9424,1.9424,1.9424,1.9424,1.9424,1.9424,1.9424,1.9424,1.9424,1.9424,1.9424,1.9424,1.9424,1.9424,1.9424,1.9424,1.9424,1.9424,1.9424,1.9424,1.9424,1.9424,1.9424,1.9424,1.9424,1.9424,1.9424,1.9424,1.9424,1.9424,1.9424,1.9424,1.9424,1.9424,1.9424,2.1211,2.1211,2.1211,2.1211,2.1211,2.1211,2.1211,2.1211,2.1211,2.1211,2.1211,2.1211,2.1211,2.1211,2.1211,2.1211,2.1211,2.1211,2.1211,2.1211,2.1211,2.1211,2.1211,2.1218,2.1379,2.1481,2.1554,2.1591,2.1598,2.1591,2.1474,2.1298,2.1254,2.1247,2.124,2.1262,2.132,2.1335,2.1328,2.1328,2.1284,2.1262,2.1211,2.1211,2.1211,2.1979,2.2918,2.4125,2.5287,2.6463,2.7511,2.8014,2.8301,2.8301,2.8301,2.7897,2.7114,2.5836,2.5067,2.4569,2.3087,2.1816,2.2093,2.2425,2.171,2.1211,2.1539,2.1539,2.2256,2.2256,2.1767,2.1767,2.1196,2.0558,2.0046,1.9764,1.9482,1.9424,1.9424,1.9424,1.9424,1.9424,1.9424,1.9424,1.9424,1.9424,1.9424,1.9424,1.9424,1.9424,1.9424,1.9424,1.9424,1.9424,1.9424,1.9424,1.9424,1.9424,1.9424,1.9424,1.9424,1.9424,1.9424,1.9424,1.9424,1.9424,1.9424,1.9424,1.9424,1.9424,1.9424,1.9424,1.9424,1.9424,1.9424]}]]